[[{"header":{"parameterUnit":"m.s-1","parameterCategory":1,"la1":31.0,"la2":29.5877,"lo1":-88.7671,"lo2":-86.6584,"dy":0.0162,"dx":0.0185,"nx":115,"ny":88,"refTime":"2026-04-27T12:00:00:Z","depth":0,"parameterNumber":2,"parameterNumberName":"U-component_of_WINDS"},"data":[0.0,0.0,0.0,0.0,0.0,0.0,0.0,0.0,0.0,0.0,0.0,0.0,0.0,0.0,0.0,0.0,0.0,0.0,0.0,0.0,0.0,0.0,0.0,0.0,0.0,0.0,0.0,0.0,0.0,0.0,0.0,0.0,0.0,0.0,0.0,0.0,0.0,0.0,0.0,0.0,0.0,0.0,0.0,0.0,0.0,0.0,0.0,0.0,0.0,0.0,0.0,0.0,0.0,0.0,0.0,0.0,0.0,0.0,0.0,0.0,0.0,0.0,0.0,0.0,0.0,0.0,0.0,0.0,0.0,0.0,0.0,0.0,0.0,0.0,0.0,0.0,0.0,0.0,0.0,0.0,0.0,0.0,0.0,0.0,0.0,0.0,0.0,0.0,0.0,0.0,0.0,0.0,0.0,0.0,0.0,0.0,0.0,0.0,0.0,0.0,0.0,0.0,0.0,0.0,0.0,0.0,0.0,0.0,0.0,0.0,0.0,0.0,0.0,0.0,0.0,0.0,0.0,0.0,0.0,0.0,0.0,0.0,0.0,0.0,0.0,0.0,0.0,0.0,0.0,0.0,0.0,0.0,0.0,0.0,0.0,0.0,0.0,0.0,0.0,0.0,0.0,0.0,0.0,0.0,0.0,0.0,0.0,0.0,0.0,0.0,0.0,0.0,0.0,0.0,0.0,0.0,0.0,0.0,0.0,0.0,0.0,0.0,0.0,0.0,0.0,0.0,0.0,0.0,0.0,0.0,0.0,0.0,0.0,0.0,0.0,0.0,0.0,0.0,0.0,0.0,0.0,0.0,0.0,0.0,0.0,0.0,0.0,0.0,0.0,0.0,0.0,0.0,0.0,0.0,0.0,0.0,0.0,0.0,0.0,0.0,0.0,0.0,0.0,0.0,0.0,0.0,0.0,0.0,0.0,0.0,0.0,0.0,0.0,0.0,0.0,0.0,0.0,0.0,0.0,0.0,0.0,0.0,0.0,0.0,0.0,0.0,0.0,0.0,0.0,0.0,0.0,0.0,0.0,0.0,0.0,0.0,0.0,0.0,0.0,0.0,0.0,0.0,0.0,0.0,0.0,0.0,0.0,0.0,0.0,0.0,0.0,0.0,0.0,0.0,0.0,0.0,0.0,0.0,0.0,0.0,0.0,0.0,0.0,0.0,0.0,0.0,0.0,0.0,0.0,0.0,0.0,0.0,0.0,0.0,0.0,0.0,0.0,0.0,0.0,0.0,0.0,0.0,0.0,0.0,0.0,0.0,0.0,0.0,0.0,0.0,0.0,0.0,0.0,0.0,0.0,0.0,0.0,0.0,0.0,0.0,0.0,0.0,0.0,0.0,0.0,0.0,0.0,0.0,0.0,0.0,0.0,0.0,0.0,0.0,0.0,0.0,0.0,0.0,0.0,0.0,0.0,0.0,0.0,0.0,0.0,0.0,0.0,0.0,0.0,0.0,0.0,0.0,0.0,0.0,0.0,0.0,0.0,0.0,0.0,0.0,0.0,0.0,0.0,0.0,0.0,0.0,0.0,0.0,0.0,0.0,0.0,0.0,0.0,0.0,0.0,0.0,0.0,0.0,0.0,0.0,0.0,0.0,0.0,0.0,0.0,0.0,0.0,0.0,0.0,0.0,0.0,0.0,0.0,0.0,0.0,0.0,0.0,0.0,0.0,0.0,0.0,0.0,0.0,0.0,0.0,0.0,0.0,0.0,0.0,0.0,0.0,0.0,0.0,0.0,0.0,0.0,0.0,0.0,0.0,0.0,0.0,0.0,0.0,0.0,0.0,0.0,0.0,0.0,0.0,0.0,0.0,0.0,0.0,0.0,0.0,0.0,0.0,0.0,0.0,0.0,0.0,0.0,0.0,0.0,0.0,0.0,0.0,0.0,0.0,0.0,0.0,0.0,0.0,0.0,0.0,0.0,0.0,0.0,0.0,0.0,0.0,0.0,0.0,0.0,0.0,0.0,0.0,0.0,0.0,0.0,0.0,0.0,0.0,0.0,0.0,0.0,0.0,0.0,0.0,0.0,0.0,0.0,0.0,0.0,0.0,0.0,0.0,0.0,0.0,0.0,0.0,0.0,0.0,0.0,0.0,0.0,0.0,0.0,0.0,0.0,0.0,0.0,0.0,0.0,0.0,0.0,0.0,0.0,0.0,0.0,0.0,0.0,0.0,0.0,0.0,0.0,0.0,0.0,0.0,0.0,0.0,0.0,0.0,0.0,0.0,0.0,0.0,0.0,0.0,0.0,0.0,0.0,0.0,0.0,0.0,0.0,0.0,0.0,0.0,0.0,0.0,0.0,0.0,0.0,0.0,0.0,0.0,0.0,0.0,0.0,0.0,0.0,0.0,0.0,0.0,0.0,0.0,0.0,0.0,0.0,0.0,0.0,0.0,0.0,0.0,0.0,0.0,0.0,0.0,0.0,0.0,0.0,0.0,0.0,0.0,0.0,0.0,0.0,0.0,0.0,0.0,0.0,0.0,0.0,0.0,0.0,0.0,0.0,0.0,0.0,0.0,0.0,0.0,0.0,0.0,0.0,0.0,0.0,0.0,0.0,0.0,0.0,0.0,0.0,0.0,0.0,0.0,0.0,0.0,0.0,0.0,0.0,0.0,0.0,0.0,0.0,0.0,0.0,0.0,0.0,0.0,0.0,0.0,0.0,0.0,0.0,0.0,0.0,0.0,0.0,0.0,0.0,0.0,0.0,0.0,0.0,0.0,0.0,0.0,0.0,0.0,0.0,0.0,0.0,0.0,0.0,0.0,0.0,0.0,0.0,0.0,0.0,0.0,0.0,0.0,0.0,0.0,0.0,0.0,0.0,0.0,0.0,0.0,0.0,0.0,0.0,0.0,0.0,0.0,0.0,0.0,0.0,0.0,0.0,0.0,0.0,0.0,0.0,0.0,0.0,0.0,0.0,0.0,0.0,0.0,0.0,0.0,0.0,0.0,0.0,0.0,0.0,0.0,0.0,0.0,0.0,0.0,0.0,0.0,0.0,0.0,0.0,0.0,0.0,0.0,0.0,0.0,0.0,0.0,0.0,0.0,0.0,0.0,0.0,0.0,0.0,0.0,0.0,0.0,0.0,0.0,0.0,0.0,0.0,0.0,0.0,0.0,0.0,0.0,0.0,0.0,0.0,0.0,0.0,0.0,0.0,0.0,0.0,0.0,0.0,0.0,0.0,0.0,0.0,0.0,0.0,0.0,0.0,0.0,0.0,0.0,0.0,0.0,0.0,0.0,0.0,0.0,0.0,0.0,0.0,0.0,0.0,0.0,0.0,0.0,0.0,0.0,0.0,0.0,0.0,0.0,0.0,0.0,0.0,0.0,0.0,0.0,0.0,0.0,0.0,0.0,0.0,0.0,0.0,0.0,0.0,0.0,0.0,0.0,0.0,0.0,0.0,0.0,0.0,0.0,0.0,0.0,0.0,0.0,0.0,0.0,0.0,0.0,0.0,0.0,0.0,0.0,0.0,0.0,0.0,0.0,0.0,0.0,0.0,0.0,0.0,0.0,0.0,0.0,0.0,0.0,0.0,0.0,0.0,0.0,0.0,0.0,0.0,0.0,0.0,0.0,0.0,0.0,0.0,0.0,0.0,0.0,0.0,0.0,0.0,0.0,0.0,0.0,0.0,0.0,0.0,0.0,0.0,0.0,0.0,0.0,0.0,0.0,0.0,0.0,0.0,0.0,0.0,0.0,0.0,0.0,0.0,0.0,0.0,0.0,0.0,0.0,0.0,0.0,0.0,0.0,0.0,0.0,0.0,0.0,0.0,0.0,0.0,0.0,0.0,0.0,0.0,0.0,0.0,0.0,0.0,0.0,0.0,0.0,0.0,0.0,0.0,0.0,0.0,0.0,0.0,0.0,0.0,0.0,0.0,0.0,0.0,0.0,0.0,0.0,0.0,0.0,0.0,0.0,0.0,0.0,0.0,0.0,0.0,0.0,0.0,0.0,0.0,0.0,0.0,0.0,0.0,0.0,0.0,0.0,0.0,0.0,0.0,0.0,0.0,0.0,0.0,0.0,0.0,0.0,0.0,0.0,0.0,0.0,0.0,0.0,0.0,0.0,0.0,0.0,0.0,0.0,0.0,0.0,0.0,0.0,0.0,0.0,0.0,0.0,0.0,0.0,0.0,0.0,0.0,0.0,0.0,0.0,0.0,0.0,0.0,0.0,0.0,0.0,0.0,0.0,0.0,0.0,0.0,0.0,0.0,0.0,0.0,0.0,0.0,0.0,0.0,0.0,0.0,0.0,0.0,-2.5358,0.0,0.0,0.0,0.0,0.0,0.0,0.0,0.0,0.0,0.0,0.0,0.0,0.0,0.0,0.0,0.0,0.0,0.0,0.0,0.0,0.0,0.0,0.0,0.0,0.0,0.0,0.0,0.0,0.0,0.0,0.0,0.0,0.0,0.0,0.0,0.0,0.0,0.0,0.0,0.0,0.0,0.0,0.0,0.0,0.0,0.0,0.0,0.0,0.0,0.0,0.0,0.0,0.0,0.0,0.0,0.0,0.0,0.0,0.0,0.0,0.0,0.0,0.0,0.0,0.0,0.0,0.0,0.0,0.0,0.0,0.0,0.0,0.0,0.0,0.0,0.0,0.0,0.0,0.0,0.0,0.0,0.0,0.0,0.0,0.0,0.0,0.0,0.0,0.0,0.0,0.0,0.0,0.0,0.0,0.0,0.0,0.0,0.0,0.0,0.0,0.0,0.0,0.0,0.0,0.0,0.0,0.0,0.0,0.0,0.0,-2.5837,-2.5801,-2.5675,-2.5611,-2.5565,0.0,0.0,0.0,0.0,0.0,0.0,0.0,0.0,0.0,0.0,0.0,0.0,0.0,0.0,0.0,0.0,0.0,0.0,0.0,0.0,0.0,0.0,0.0,0.0,0.0,0.0,0.0,0.0,0.0,0.0,0.0,0.0,0.0,0.0,0.0,0.0,0.0,0.0,0.0,0.0,0.0,0.0,0.0,0.0,0.0,0.0,0.0,0.0,0.0,0.0,0.0,0.0,0.0,0.0,0.0,0.0,0.0,0.0,0.0,0.0,0.0,0.0,0.0,0.0,0.0,0.0,0.0,0.0,0.0,0.0,0.0,0.0,0.0,0.0,0.0,0.0,0.0,0.0,0.0,0.0,0.0,0.0,0.0,0.0,0.0,0.0,0.0,0.0,0.0,0.0,0.0,0.0,0.0,0.0,0.0,0.0,0.0,0.0,0.0,0.0,0.0,0.0,0.0,0.0,0.0,0.0,0.0,0.0,0.0,0.0,0.0,0.0,-2.6595,-2.6293,-2.5961,0.0,0.0,0.0,0.0,0.0,0.0,0.0,0.0,0.0,0.0,0.0,0.0,0.0,0.0,0.0,0.0,0.0,0.0,0.0,0.0,0.0,0.0,0.0,0.0,0.0,0.0,0.0,0.0,0.0,0.0,0.0,0.0,0.0,0.0,0.0,0.0,0.0,0.0,0.0,0.0,0.0,0.0,0.0,0.0,0.0,0.0,0.0,0.0,0.0,0.0,0.0,0.0,0.0,0.0,0.0,0.0,0.0,0.0,0.0,0.0,0.0,0.0,0.0,0.0,0.0,0.0,0.0,0.0,0.0,0.0,0.0,0.0,0.0,0.0,0.0,0.0,0.0,0.0,0.0,0.0,0.0,0.0,0.0,0.0,0.0,0.0,0.0,0.0,0.0,0.0,0.0,0.0,0.0,0.0,0.0,0.0,0.0,0.0,0.0,0.0,0.0,0.0,0.0,0.0,0.0,0.0,0.0,0.0,0.0,0.0,-2.7718,-2.9548,-2.9404,0.0,-2.7427,0.0,0.0,0.0,0.0,0.0,0.0,0.0,0.0,0.0,0.0,0.0,0.0,0.0,0.0,0.0,0.0,0.0,0.0,0.0,0.0,0.0,0.0,0.0,0.0,0.0,0.0,0.0,0.0,0.0,0.0,0.0,0.0,0.0,0.0,0.0,0.0,0.0,0.0,0.0,0.0,0.0,0.0,0.0,0.0,0.0,0.0,0.0,0.0,0.0,0.0,0.0,0.0,0.0,0.0,0.0,0.0,0.0,0.0,0.0,0.0,0.0,0.0,0.0,0.0,0.0,0.0,0.0,0.0,0.0,0.0,0.0,0.0,0.0,0.0,0.0,0.0,0.0,0.0,0.0,0.0,0.0,0.0,0.0,0.0,0.0,0.0,0.0,0.0,0.0,0.0,0.0,0.0,0.0,0.0,0.0,0.0,0.0,0.0,0.0,0.0,0.0,0.0,0.0,0.0,0.0,0.0,0.0,0.0,0.0,0.0,-2.8611,-2.9733,-2.9633,-2.8889,0.0,0.0,0.0,0.0,0.0,0.0,0.0,0.0,0.0,0.0,0.0,0.0,0.0,0.0,0.0,0.0,0.0,0.0,0.0,0.0,0.0,0.0,0.0,0.0,0.0,0.0,0.0,0.0,0.0,0.0,0.0,0.0,0.0,0.0,0.0,0.0,0.0,0.0,0.0,0.0,0.0,0.0,0.0,0.0,0.0,0.0,0.0,0.0,0.0,0.0,0.0,0.0,0.0,0.0,0.0,0.0,0.0,0.0,0.0,0.0,0.0,0.0,0.0,0.0,0.0,0.0,0.0,0.0,0.0,0.0,0.0,0.0,0.0,0.0,0.0,0.0,0.0,0.0,0.0,0.0,0.0,0.0,0.0,0.0,0.0,0.0,0.0,0.0,0.0,0.0,0.0,0.0,0.0,0.0,0.0,0.0,0.0,0.0,0.0,0.0,0.0,0.0,0.0,0.0,0.0,0.0,0.0,0.0,0.0,0.0,-2.8028,0.0,-3.0077,-3.0101,-2.9155,-2.7172,0.0,0.0,0.0,0.0,0.0,0.0,0.0,0.0,0.0,0.0,0.0,0.0,0.0,0.0,0.0,0.0,0.0,0.0,0.0,0.0,0.0,0.0,0.0,0.0,0.0,0.0,0.0,0.0,0.0,0.0,0.0,0.0,0.0,0.0,0.0,0.0,0.0,0.0,0.0,0.0,0.0,0.0,0.0,0.0,0.0,0.0,0.0,0.0,0.0,0.0,0.0,0.0,0.0,0.0,0.0,0.0,0.0,0.0,0.0,0.0,0.0,0.0,0.0,0.0,0.0,0.0,0.0,0.0,0.0,0.0,0.0,0.0,0.0,0.0,0.0,0.0,0.0,0.0,0.0,0.0,0.0,0.0,0.0,0.0,0.0,0.0,0.0,0.0,0.0,0.0,0.0,0.0,0.0,0.0,0.0,0.0,0.0,0.0,0.0,0.0,0.0,0.0,0.0,0.0,0.0,0.0,0.0,0.0,0.0,-2.9309,-2.9626,-3.1446,-3.1497,-2.9886,0.0,0.0,0.0,0.0,0.0,0.0,0.0,0.0,0.0,0.0,0.0,0.0,0.0,0.0,0.0,0.0,0.0,0.0,0.0,0.0,0.0,0.0,0.0,0.0,0.0,0.0,0.0,0.0,0.0,0.0,0.0,0.0,0.0,0.0,0.0,0.0,0.0,0.0,0.0,0.0,0.0,0.0,0.0,0.0,0.0,0.0,0.0,0.0,0.0,0.0,0.0,0.0,0.0,0.0,0.0,0.0,0.0,0.0,0.0,0.0,0.0,0.0,0.0,0.0,0.0,0.0,0.0,0.0,0.0,0.0,0.0,0.0,0.0,0.0,0.0,0.0,0.0,0.0,0.0,0.0,0.0,0.0,0.0,0.0,0.0,0.0,0.0,0.0,0.0,0.0,0.0,0.0,0.0,0.0,0.0,0.0,0.0,0.0,0.0,0.0,0.0,0.0,0.0,0.0,0.0,0.0,0.0,0.0,0.0,-2.6763,-2.8618,-3.1023,-3.372,-3.1405,-2.9458,0.0,0.0,0.0,0.0,0.0,0.0,0.0,0.0,0.0,0.0,0.0,0.0,0.0,0.0,0.0,0.0,0.0,0.0,0.0,0.0,0.0,0.0,0.0,0.0,0.0,0.0,0.0,0.0,0.0,0.0,0.0,0.0,0.0,0.0,0.0,0.0,0.0,0.0,0.0,0.0,0.0,0.0,0.0,0.0,0.0,0.0,0.0,0.0,0.0,0.0,0.0,0.0,0.0,0.0,0.0,0.0,0.0,0.0,0.0,0.0,0.0,0.0,0.0,0.0,0.0,0.0,0.0,0.0,0.0,0.0,0.0,0.0,0.0,0.0,0.0,0.0,0.0,0.0,0.0,0.0,0.0,0.0,0.0,0.0,0.0,0.0,0.0,0.0,0.0,0.0,0.0,0.0,0.0,0.0,0.0,0.0,0.0,0.0,0.0,0.0,0.0,0.0,0.0,0.0,0.0,0.0,0.0,0.0,0.0,-2.657,0.0,-3.2133,0.0,-3.107,-2.8796,0.0,0.0,0.0,0.0,0.0,0.0,0.0,0.0,0.0,0.0,0.0,0.0,0.0,0.0,0.0,0.0,0.0,0.0,0.0,0.0,0.0,0.0,0.0,0.0,0.0,0.0,0.0,0.0,0.0,0.0,0.0,0.0,0.0,0.0,0.0,0.0,0.0,0.0,0.0,0.0,0.0,0.0,0.0,0.0,0.0,0.0,0.0,0.0,0.0,0.0,0.0,0.0,0.0,0.0,0.0,0.0,0.0,0.0,0.0,0.0,0.0,0.0,0.0,0.0,0.0,0.0,0.0,0.0,0.0,0.0,0.0,0.0,0.0,0.0,0.0,0.0,0.0,0.0,0.0,0.0,0.0,0.0,0.0,0.0,0.0,0.0,0.0,0.0,0.0,0.0,0.0,0.0,0.0,0.0,0.0,0.0,0.0,0.0,0.0,0.0,0.0,0.0,0.0,0.0,0.0,0.0,0.0,0.0,-2.6658,-3.0567,-3.2701,-3.2884,-3.0819,-3.0653,-2.8008,0.0,0.0,0.0,0.0,0.0,0.0,0.0,0.0,0.0,0.0,0.0,0.0,0.0,0.0,0.0,0.0,0.0,0.0,0.0,0.0,0.0,0.0,0.0,0.0,0.0,0.0,0.0,0.0,0.0,0.0,0.0,0.0,0.0,0.0,0.0,0.0,0.0,0.0,0.0,0.0,0.0,0.0,0.0,0.0,0.0,0.0,0.0,0.0,0.0,0.0,0.0,0.0,0.0,0.0,0.0,0.0,0.0,0.0,0.0,0.0,0.0,0.0,0.0,0.0,0.0,0.0,0.0,0.0,0.0,0.0,0.0,0.0,0.0,0.0,0.0,0.0,0.0,0.0,0.0,0.0,0.0,0.0,0.0,0.0,0.0,0.0,0.0,0.0,0.0,0.0,0.0,0.0,0.0,0.0,0.0,0.0,0.0,0.0,0.0,0.0,0.0,0.0,0.0,0.0,0.0,0.0,0.0,0.0,0.0,-2.9979,-3.2051,-3.3688,-3.47,-3.119,-2.8869,0.0,0.0,0.0,0.0,0.0,0.0,0.0,0.0,0.0,0.0,0.0,0.0,0.0,0.0,0.0,0.0,0.0,0.0,0.0,0.0,0.0,0.0,0.0,0.0,0.0,0.0,0.0,0.0,0.0,0.0,0.0,0.0,0.0,0.0,0.0,0.0,0.0,0.0,0.0,0.0,0.0,0.0,0.0,0.0,0.0,0.0,0.0,0.0,0.0,0.0,0.0,0.0,0.0,0.0,0.0,0.0,0.0,0.0,0.0,0.0,0.0,0.0,0.0,0.0,0.0,0.0,0.0,0.0,0.0,0.0,0.0,0.0,0.0,0.0,0.0,0.0,0.0,0.0,0.0,0.0,0.0,0.0,0.0,0.0,0.0,0.0,0.0,0.0,0.0,0.0,0.0,0.0,0.0,0.0,0.0,0.0,0.0,0.0,0.0,0.0,0.0,0.0,0.0,0.0,0.0,0.0,0.0,0.0,0.0,-3.1837,-3.409,-3.5584,-3.6202,-3.2567,-3.003,-2.8777,0.0,0.0,0.0,0.0,0.0,0.0,0.0,0.0,0.0,0.0,0.0,0.0,0.0,0.0,0.0,0.0,0.0,0.0,0.0,0.0,0.0,0.0,0.0,0.0,0.0,0.0,0.0,0.0,0.0,0.0,0.0,0.0,0.0,0.0,0.0,0.0,0.0,0.0,0.0,0.0,0.0,0.0,0.0,0.0,0.0,0.0,0.0,0.0,0.0,0.0,0.0,0.0,0.0,0.0,0.0,0.0,0.0,0.0,0.0,0.0,0.0,0.0,0.0,0.0,0.0,0.0,0.0,0.0,0.0,0.0,0.0,0.0,0.0,0.0,0.0,0.0,0.0,0.0,0.0,0.0,0.0,0.0,0.0,0.0,0.0,0.0,0.0,0.0,0.0,0.0,0.0,0.0,0.0,0.0,0.0,0.0,0.0,0.0,0.0,0.0,0.0,0.0,0.0,0.0,0.0,0.0,0.0,0.0,-3.5584,-3.8318,-3.8429,-3.5789,-3.4623,-3.157,0.0,0.0,0.0,0.0,0.0,0.0,0.0,0.0,0.0,0.0,0.0,0.0,0.0,0.0,0.0,0.0,0.0,0.0,0.0,0.0,0.0,0.0,0.0,0.0,0.0,0.0,0.0,0.0,0.0,0.0,0.0,0.0,0.0,0.0,0.0,0.0,0.0,0.0,0.0,0.0,0.0,0.0,0.0,0.0,0.0,0.0,0.0,0.0,0.0,0.0,0.0,0.0,0.0,0.0,0.0,0.0,0.0,0.0,0.0,0.0,0.0,0.0,0.0,0.0,0.0,0.0,0.0,0.0,0.0,0.0,0.0,0.0,0.0,0.0,0.0,0.0,0.0,0.0,0.0,0.0,0.0,0.0,0.0,0.0,0.0,0.0,0.0,0.0,0.0,0.0,0.0,0.0,0.0,0.0,0.0,0.0,0.0,0.0,0.0,0.0,0.0,0.0,0.0,0.0,0.0,0.0,0.0,0.0,0.0,-3.8365,-4.1146,-4.1999,-4.0703,-3.7042,-3.403,0.0,0.0,0.0,0.0,0.0,0.0,0.0,0.0,0.0,0.0,0.0,0.0,0.0,0.0,0.0,0.0,0.0,0.0,0.0,0.0,0.0,0.0,0.0,0.0,0.0,0.0,0.0,0.0,0.0,0.0,0.0,0.0,0.0,0.0,0.0,0.0,0.0,0.0,0.0,0.0,0.0,0.0,0.0,0.0,0.0,0.0,0.0,0.0,0.0,0.0,0.0,0.0,0.0,0.0,0.0,0.0,0.0,0.0,0.0,0.0,0.0,0.0,0.0,0.0,0.0,0.0,0.0,0.0,0.0,0.0,0.0,0.0,0.0,0.0,0.0,0.0,0.0,0.0,0.0,0.0,0.0,0.0,0.0,0.0,0.0,0.0,0.0,0.0,0.0,0.0,0.0,0.0,0.0,0.0,0.0,0.0,0.0,0.0,0.0,0.0,0.0,0.0,0.0,0.0,0.0,0.0,0.0,0.0,-3.6437,-3.9898,-4.2679,-4.4085,-4.399,-3.9991,-3.6315,0.0,0.0,0.0,0.0,0.0,0.0,0.0,0.0,0.0,0.0,0.0,0.0,0.0,0.0,0.0,0.0,0.0,0.0,0.0,0.0,0.0,0.0,0.0,0.0,0.0,0.0,0.0,0.0,0.0,0.0,0.0,0.0,0.0,0.0,0.0,0.0,0.0,0.0,0.0,0.0,0.0,0.0,0.0,0.0,0.0,0.0,0.0,0.0,0.0,0.0,0.0,0.0,0.0,0.0,0.0,0.0,0.0,0.0,0.0,0.0,0.0,0.0,0.0,0.0,0.0,0.0,0.0,0.0,0.0,0.0,0.0,0.0,0.0,0.0,0.0,0.0,0.0,0.0,0.0,0.0,0.0,0.0,0.0,0.0,0.0,0.0,0.0,0.0,0.0,0.0,0.0,0.0,0.0,0.0,0.0,0.0,0.0,0.0,0.0,0.0,0.0,0.0,0.0,0.0,0.0,0.0,0.0,0.0,-3.7338,-4.064,-4.339,-4.5096,-4.555,-4.2655,-3.8326,0.0,0.0,0.0,0.0,0.0,0.0,0.0,0.0,0.0,0.0,0.0,0.0,0.0,0.0,0.0,0.0,0.0,0.0,0.0,0.0,0.0,0.0,0.0,0.0,0.0,0.0,0.0,0.0,0.0,0.0,0.0,0.0,0.0,0.0,0.0,0.0,0.0,0.0,0.0,0.0,0.0,0.0,0.0,0.0,0.0,0.0,0.0,0.0,0.0,0.0,0.0,0.0,0.0,0.0,0.0,0.0,0.0,0.0,0.0,0.0,0.0,0.0,0.0,0.0,0.0,0.0,0.0,0.0,0.0,0.0,0.0,0.0,0.0,0.0,0.0,0.0,0.0,0.0,0.0,0.0,0.0,0.0,0.0,0.0,0.0,0.0,0.0,0.0,0.0,0.0,0.0,0.0,0.0,0.0,0.0,0.0,0.0,0.0,0.0,0.0,0.0,0.0,0.0,0.0,0.0,0.0,0.0,0.0,-3.8997,-4.1351,-4.4132,-4.5381,-4.4954,-4.2201,-3.9031,0.0,0.0,0.0,0.0,0.0,0.0,0.0,0.0,0.0,0.0,0.0,0.0,0.0,0.0,0.0,0.0,0.0,0.0,0.0,0.0,0.0,0.0,0.0,0.0,0.0,0.0,0.0,0.0,0.0,0.0,0.0,0.0,0.0,0.0,0.0,0.0,0.0,0.0,0.0,0.0,0.0,0.0,0.0,0.0,0.0,0.0,0.0,0.0,-2.8157,0.0,0.0,0.0,0.0,0.0,0.0,0.0,0.0,0.0,0.0,0.0,0.0,0.0,0.0,0.0,0.0,0.0,0.0,0.0,0.0,0.0,0.0,0.0,0.0,0.0,0.0,0.0,0.0,0.0,0.0,0.0,0.0,0.0,0.0,0.0,0.0,0.0,0.0,0.0,0.0,0.0,0.0,0.0,0.0,0.0,0.0,0.0,0.0,0.0,0.0,0.0,0.0,0.0,0.0,0.0,0.0,0.0,0.0,0.0,-3.9993,-4.2078,-4.4527,-4.5634,-4.5159,-4.2853,-3.9929,0.0,0.0,0.0,0.0,0.0,0.0,0.0,0.0,0.0,0.0,0.0,0.0,0.0,0.0,0.0,0.0,0.0,0.0,0.0,0.0,0.0,0.0,0.0,0.0,0.0,0.0,0.0,0.0,0.0,0.0,0.0,0.0,0.0,0.0,0.0,0.0,0.0,0.0,0.0,0.0,0.0,0.0,0.0,0.0,0.0,0.0,0.0,0.0,0.0,0.0,0.0,0.0,0.0,0.0,0.0,0.0,0.0,0.0,0.0,0.0,0.0,0.0,0.0,0.0,0.0,0.0,0.0,0.0,0.0,0.0,0.0,0.0,0.0,0.0,0.0,0.0,0.0,0.0,0.0,0.0,0.0,0.0,0.0,0.0,0.0,0.0,0.0,0.0,0.0,0.0,0.0,0.0,0.0,0.0,0.0,0.0,0.0,0.0,0.0,0.0,0.0,0.0,0.0,0.0,0.0,0.0,0.0,-3.701,-4.0372,-4.2805,-4.4796,-4.576,-4.5618,-4.3722,-4.0687,-3.6418,0.0,0.0,0.0,0.0,0.0,0.0,0.0,0.0,0.0,0.0,0.0,0.0,0.0,0.0,0.0,0.0,0.0,0.0,0.0,0.0,0.0,0.0,0.0,0.0,0.0,0.0,0.0,0.0,0.0,0.0,0.0,0.0,0.0,0.0,0.0,0.0,0.0,0.0,-2.5658,-2.7229,0.0,0.0,0.0,0.0,0.0,0.0,0.0,0.0,-2.8898,0.0,0.0,0.0,0.0,0.0,0.0,0.0,0.0,0.0,0.0,0.0,0.0,0.0,0.0,0.0,0.0,0.0,0.0,0.0,0.0,0.0,0.0,0.0,0.0,0.0,0.0,0.0,0.0,0.0,0.0,0.0,0.0,0.0,0.0,0.0,0.0,0.0,0.0,0.0,0.0,0.0,0.0,0.0,0.0,0.0,0.0,0.0,0.0,0.0,0.0,0.0,0.0,0.0,0.0,0.0,0.0,-3.5591,-3.7117,-3.9677,-4.3419,-4.5033,-4.5523,-4.4891,-4.3469,-4.0719,-3.6553,0.0,0.0,0.0,0.0,0.0,0.0,0.0,0.0,0.0,0.0,0.0,0.0,0.0,0.0,0.0,0.0,0.0,0.0,0.0,0.0,0.0,0.0,0.0,0.0,0.0,0.0,0.0,0.0,0.0,0.0,0.0,0.0,0.0,0.0,0.0,0.0,0.0,0.0,0.0,-3.0364,-3.0973,0.0,0.0,0.0,0.0,0.0,0.0,0.0,0.0,-2.945,0.0,0.0,0.0,0.0,0.0,0.0,0.0,0.0,0.0,0.0,0.0,0.0,0.0,0.0,0.0,0.0,0.0,0.0,0.0,0.0,0.0,0.0,0.0,0.0,0.0,0.0,0.0,0.0,0.0,0.0,0.0,0.0,0.0,0.0,0.0,0.0,0.0,0.0,0.0,0.0,0.0,0.0,0.0,0.0,0.0,0.0,0.0,0.0,0.0,0.0,0.0,0.0,0.0,0.0,0.0,-3.4778,-3.8349,-4.1336,-4.3624,-4.5045,-4.546,-4.4701,-4.2695,-3.9977,0.0,0.0,0.0,0.0,0.0,0.0,0.0,0.0,0.0,0.0,0.0,0.0,0.0,0.0,0.0,0.0,0.0,0.0,0.0,0.0,0.0,0.0,0.0,0.0,0.0,0.0,0.0,0.0,0.0,0.0,0.0,0.0,0.0,0.0,0.0,0.0,0.0,0.0,0.0,0.0,-3.1119,-3.1888,-3.2875,0.0,0.0,0.0,0.0,0.0,0.0,-3.0539,-3.0335,0.0,0.0,0.0,0.0,0.0,0.0,0.0,0.0,0.0,0.0,0.0,0.0,0.0,0.0,0.0,0.0,0.0,0.0,0.0,0.0,0.0,0.0,0.0,0.0,0.0,0.0,0.0,0.0,0.0,0.0,0.0,0.0,0.0,0.0,0.0,0.0,0.0,0.0,0.0,0.0,0.0,0.0,0.0,0.0,0.0,0.0,0.0,0.0,0.0,0.0,0.0,0.0,0.0,0.0,0.0,-3.3451,-3.8934,-4.2394,-4.35,-4.4733,-4.5049,-4.429,-4.1904,-3.9155,0.0,0.0,0.0,0.0,0.0,0.0,0.0,0.0,0.0,0.0,0.0,0.0,0.0,0.0,0.0,0.0,0.0,0.0,0.0,0.0,0.0,0.0,0.0,0.0,0.0,0.0,0.0,0.0,0.0,0.0,0.0,0.0,0.0,0.0,0.0,0.0,0.0,0.0,0.0,0.0,0.0,-3.2916,-3.4211,-3.3079,0.0,0.0,0.0,0.0,-3.1527,-3.2179,0.0,0.0,0.0,0.0,0.0,0.0,0.0,0.0,0.0,0.0,0.0,0.0,0.0,0.0,0.0,0.0,0.0,0.0,0.0,0.0,0.0,0.0,0.0,0.0,0.0,0.0,0.0,0.0,0.0,0.0,0.0,0.0,0.0,0.0,0.0,0.0,0.0,0.0,0.0,0.0,0.0,0.0,0.0,0.0,0.0,0.0,0.0,0.0,0.0,0.0,0.0,0.0,0.0,0.0,0.0,0.0,-3.3309,-3.7054,-4.023,-4.2695,-4.3529,-4.3643,-4.2932,-4.1415,-3.8697,0.0,0.0,0.0,0.0,0.0,0.0,0.0,0.0,0.0,0.0,0.0,0.0,0.0,0.0,0.0,0.0,0.0,0.0,0.0,0.0,0.0,0.0,0.0,0.0,0.0,0.0,0.0,0.0,0.0,0.0,0.0,0.0,0.0,0.0,0.0,0.0,0.0,0.0,0.0,0.0,0.0,-3.5415,-3.4496,-3.4211,-3.3862,0.0,0.0,-3.3561,-3.468,-3.5836,0.0,0.0,0.0,0.0,0.0,0.0,0.0,0.0,0.0,0.0,0.0,0.0,0.0,0.0,0.0,0.0,0.0,0.0,0.0,0.0,0.0,0.0,0.0,0.0,0.0,0.0,0.0,0.0,0.0,0.0,0.0,0.0,0.0,0.0,0.0,0.0,0.0,0.0,0.0,0.0,0.0,0.0,0.0,0.0,0.0,0.0,0.0,0.0,0.0,0.0,0.0,0.0,0.0,0.0,0.0,-3.1422,-3.3403,-3.8302,-4.1478,-4.2647,-4.3374,-4.339,-4.2695,-4.0182,-3.7401,0.0,0.0,0.0,0.0,0.0,0.0,0.0,0.0,0.0,0.0,0.0,0.0,0.0,0.0,0.0,0.0,0.0,0.0,0.0,0.0,0.0,0.0,0.0,0.0,0.0,0.0,0.0,0.0,0.0,0.0,0.0,0.0,0.0,0.0,0.0,0.0,0.0,0.0,0.0,0.0,0.0,0.0,-3.5459,-3.6098,0.0,0.0,0.0,-3.5691,-3.588,0.0,0.0,0.0,0.0,0.0,0.0,0.0,0.0,0.0,0.0,0.0,0.0,0.0,0.0,0.0,0.0,0.0,0.0,0.0,0.0,0.0,0.0,0.0,0.0,0.0,0.0,0.0,0.0,0.0,0.0,0.0,0.0,0.0,0.0,0.0,0.0,0.0,0.0,0.0,0.0,0.0,0.0,0.0,0.0,0.0,0.0,0.0,0.0,0.0,0.0,0.0,0.0,0.0,0.0,0.0,0.0,0.0,-3.3388,-3.9313,-4.2426,-4.2426,-4.2932,-4.2947,-4.2378,-3.955,0.0,0.0,0.0,0.0,0.0,0.0,0.0,0.0,0.0,0.0,0.0,0.0,0.0,0.0,0.0,0.0,0.0,0.0,0.0,0.0,0.0,0.0,0.0,0.0,0.0,0.0,0.0,-1.9362,0.0,0.0,0.0,0.0,0.0,0.0,0.0,0.0,0.0,0.0,0.0,0.0,0.0,0.0,-3.5473,-3.6431,-3.7767,-3.858,0.0,0.0,-3.7462,-3.7288,-3.8101,-3.7433,0.0,0.0,0.0,0.0,0.0,0.0,0.0,0.0,0.0,0.0,0.0,0.0,0.0,0.0,0.0,0.0,0.0,0.0,0.0,0.0,0.0,0.0,0.0,0.0,0.0,0.0,0.0,0.0,0.0,0.0,0.0,0.0,0.0,0.0,0.0,0.0,0.0,0.0,0.0,0.0,0.0,0.0,0.0,0.0,0.0,0.0,0.0,0.0,0.0,0.0,0.0,0.0,0.0,0.0,0.0,-3.3435,-3.8823,-4.1667,-4.1667,-4.1715,-4.1748,-4.1636,-4.0166,-3.748,0.0,0.0,0.0,0.0,0.0,0.0,0.0,0.0,0.0,0.0,0.0,0.0,0.0,0.0,0.0,0.0,0.0,0.0,0.0,0.0,0.0,0.0,0.0,0.0,0.0,0.0,0.0,0.0,0.0,0.0,0.0,0.0,0.0,0.0,0.0,0.0,0.0,0.0,0.0,0.0,0.0,-3.7143,-3.723,-3.8797,-4.0176,0.0,0.0,-3.8536,-3.9668,-4.1366,-4.0713,-3.5183,0.0,0.0,0.0,0.0,0.0,0.0,0.0,0.0,0.0,0.0,0.0,0.0,0.0,0.0,0.0,0.0,0.0,0.0,0.0,0.0,0.0,0.0,0.0,0.0,0.0,0.0,0.0,0.0,0.0,0.0,0.0,0.0,0.0,0.0,0.0,0.0,0.0,0.0,0.0,0.0,0.0,0.0,0.0,0.0,0.0,0.0,0.0,0.0,0.0,0.0,0.0,0.0,0.0,-3.1476,-3.3324,-3.8365,-4.1178,-4.1573,-4.1588,-4.1588,-4.1588,-3.9835,-3.7322,0.0,0.0,0.0,0.0,0.0,0.0,0.0,0.0,0.0,0.0,0.0,0.0,0.0,0.0,0.0,0.0,0.0,0.0,0.0,0.0,0.0,0.0,0.0,0.0,0.0,0.0,0.0,0.0,-2.2207,-2.2468,-2.2548,0.0,0.0,0.0,0.0,0.0,0.0,0.0,0.0,0.0,0.0,-3.6678,-3.8246,-3.9755,0.0,0.0,-4.0713,-4.0147,-4.0626,-4.0321,-3.8899,-3.5566,-3.3169,0.0,0.0,0.0,0.0,0.0,0.0,0.0,0.0,0.0,0.0,0.0,0.0,0.0,0.0,0.0,0.0,0.0,0.0,0.0,0.0,0.0,0.0,0.0,0.0,0.0,0.0,0.0,0.0,0.0,0.0,0.0,0.0,0.0,0.0,0.0,0.0,0.0,0.0,0.0,0.0,0.0,0.0,0.0,0.0,0.0,0.0,0.0,0.0,0.0,0.0,0.0,0.0,-3.1413,-3.3309,-3.8112,-4.0909,-4.1606,-4.1588,-4.1588,-4.1541,-3.9787,-3.7496,0.0,0.0,0.0,0.0,0.0,0.0,0.0,0.0,0.0,0.0,0.0,0.0,0.0,0.0,0.0,0.0,0.0,0.0,0.0,0.0,0.0,0.0,0.0,0.0,0.0,0.0,0.0,0.0,-2.3064,-2.3078,-2.2403,0.0,0.0,0.0,0.0,0.0,0.0,0.0,0.0,0.0,0.0,-3.6772,-3.8899,-4.0292,-4.1279,-4.1729,-4.0902,-4.0234,-4.0234,-3.9247,-3.7665,-3.5232,0.0,0.0,0.0,0.0,0.0,0.0,0.0,0.0,0.0,0.0,0.0,0.0,0.0,0.0,0.0,0.0,0.0,0.0,0.0,0.0,0.0,0.0,0.0,0.0,0.0,0.0,0.0,0.0,0.0,0.0,-2.6192,0.0,0.0,0.0,0.0,0.0,0.0,0.0,0.0,0.0,0.0,0.0,0.0,0.0,0.0,0.0,0.0,0.0,0.0,0.0,0.0,0.0,0.0,-3.1871,-3.334,-3.8112,-4.0909,-4.1573,-4.1588,-4.1588,-4.1557,-4.0214,-3.8175,-3.5379,0.0,0.0,0.0,0.0,0.0,0.0,0.0,0.0,0.0,0.0,0.0,0.0,0.0,0.0,0.0,0.0,0.0,0.0,0.0,0.0,0.0,0.0,0.0,0.0,0.0,0.0,-2.1989,-2.2033,-2.1801,0.0,0.0,0.0,0.0,0.0,0.0,0.0,0.0,0.0,0.0,-3.4428,-3.7723,-3.903,-4.0292,-4.1091,-4.1149,-3.9552,-3.8304,-3.8362,-3.8768,-3.7883,0.0,0.0,0.0,0.0,0.0,0.0,0.0,0.0,0.0,0.0,0.0,0.0,0.0,0.0,0.0,0.0,0.0,0.0,0.0,0.0,0.0,0.0,0.0,0.0,0.0,0.0,0.0,-3.3024,-3.142,0.0,0.0,0.0,0.0,0.0,0.0,0.0,0.0,0.0,0.0,0.0,-3.4051,-3.541,0.0,0.0,0.0,0.0,0.0,0.0,0.0,0.0,0.0,0.0,0.0,0.0,-3.1665,-3.402,-3.7859,-4.0419,-4.1541,-4.1588,-4.1588,-4.1588,-4.023,-3.778,-3.4099,0.0,0.0,0.0,0.0,0.0,0.0,0.0,0.0,0.0,0.0,0.0,0.0,0.0,0.0,0.0,0.0,0.0,0.0,0.0,0.0,0.0,0.0,0.0,0.0,0.0,-2.2846,0.0,0.0,0.0,0.0,0.0,0.0,0.0,0.0,0.0,0.0,0.0,-2.8724,-3.1496,-3.4632,-3.7259,-3.8957,-3.9915,-4.0742,0.0,0.0,0.0,0.0,0.0,0.0,0.0,0.0,0.0,0.0,0.0,0.0,0.0,0.0,-3.2672,-2.9319,-2.836,-2.8245,-2.8841,0.0,0.0,0.0,0.0,0.0,0.0,0.0,0.0,0.0,0.0,0.0,0.0,0.0,0.0,-3.6404,0.0,-3.4202,0.0,0.0,0.0,0.0,0.0,0.0,0.0,0.0,-3.6026,-3.7196,-3.7259,-3.8349,-3.778,0.0,-3.5821,-3.3577,0.0,0.0,0.0,0.0,0.0,0.0,0.0,0.0,-3.2392,-3.4715,-3.8112,-4.0435,-4.1525,-4.1588,-4.1588,-4.1557,-4.0008,-3.7543,-3.4146,-3.1571,-2.9374,0.0,0.0,0.0,0.0,0.0,0.0,0.0,0.0,0.0,0.0,0.0,0.0,0.0,0.0,0.0,0.0,0.0,0.0,0.0,0.0,0.0,0.0,0.0,-2.3818,0.0,0.0,0.0,0.0,0.0,0.0,0.0,0.0,0.0,-2.625,-2.8405,-3.0959,-3.3499,-3.5648,-3.7433,-3.8681,0.0,0.0,0.0,0.0,0.0,0.0,0.0,-3.6365,-3.6315,-3.5503,-3.4893,-3.5053,-3.5778,-3.6083,-3.5227,0.0,0.0,-3.205,-3.0974,-3.0858,-3.1496,-3.1932,-3.2396,-3.3064,-3.3062,-3.3006,0.0,0.0,0.0,0.0,0.0,0.0,0.0,0.0,-3.9267,-3.9267,0.0,-3.6927,0.0,0.0,0.0,0.0,0.0,-3.4798,0.0,0.0,-3.9582,-4.0609,-4.0546,-3.9929,-3.9266,-3.8713,-3.9866,-3.8728,-3.5315,-3.0765,0.0,0.0,0.0,0.0,0.0,0.0,-3.4051,-3.5505,-3.8839,-4.0909,-4.1557,-4.1588,-4.1573,-4.1446,-3.9598,-3.7575,-3.5473,-3.3477,-3.1105,-2.8347,-2.6235,0.0,0.0,0.0,0.0,0.0,0.0,0.0,0.0,0.0,0.0,0.0,0.0,0.0,0.0,0.0,0.0,0.0,0.0,0.0,0.0,-2.3136,0.0,0.0,0.0,0.0,0.0,0.0,0.0,0.0,0.0,0.0,-2.9071,-3.1018,-3.3485,-3.5938,0.0,0.0,0.0,0.0,-3.9,-3.842,-3.7796,-3.7244,-3.6649,-3.7462,-3.7781,-3.6649,0.0,0.0,-3.6751,-3.7447,-3.7868,-3.6678,-3.7462,-3.7868,-3.6606,-3.527,-3.469,-3.5247,-3.4549,-3.4404,-3.5809,-3.5303,-3.4652,-4.6199,0.0,0.0,0.0,0.0,-4.2585,-4.3699,-4.5406,-4.5199,-4.3992,-4.214,-4.1325,0.0,0.0,0.0,0.0,0.0,0.0,-3.8286,-3.8997,-4.0561,-4.1304,-4.132,-4.1636,-4.1399,-4.0719,-4.0625,-3.9819,-3.8286,-3.6437,-3.3198,-2.8812,0.0,0.0,0.0,0.0,-3.5489,-3.6972,-3.9329,-4.0909,-4.1606,-4.1588,-4.1114,-4.0135,-3.9534,-3.8239,-3.6172,-3.5078,-3.3462,-3.1184,-2.8607,0.0,0.0,0.0,0.0,0.0,0.0,0.0,0.0,0.0,0.0,0.0,0.0,0.0,0.0,0.0,0.0,0.0,0.0,0.0,-2.2461,-2.2968,-2.3273,0.0,0.0,0.0,0.0,0.0,0.0,0.0,0.0,0.0,-3.2812,-3.3398,-3.4472,0.0,0.0,-3.7564,-3.7564,-3.8492,-3.9276,-3.9509,0.0,0.0,0.0,-3.887,-3.8391,-3.8928,-3.9479,-3.9654,-3.9117,-3.9305,-3.9436,-3.9044,-3.9305,-3.9421,-3.9059,-3.7984,-3.723,-3.7331,-3.7447,-3.7839,-3.8701,-3.8597,-3.8167,-5.0991,-4.7313,-4.5675,-4.5389,-4.6096,-4.6424,-4.7493,-4.9016,-4.8752,-4.7751,-4.6232,-4.4801,-4.2416,-3.9337,-3.8052,0.0,0.0,0.0,-4.0672,-4.1588,-4.2173,-4.2584,-4.2805,-4.2742,-4.2457,-4.1983,-4.132,-4.0751,-4.0324,-3.9645,-3.7385,-3.3593,0.0,0.0,-3.274,-3.53,-3.7164,-3.8302,-4.0072,-4.1193,-4.1573,-4.1588,-4.1067,-3.9977,-3.9661,-3.8792,-3.7306,-3.6311,-3.4952,-3.3161,-3.0686,-2.8207,0.0,0.0,0.0,0.0,0.0,0.0,0.0,0.0,0.0,0.0,0.0,-1.8245,-1.6603,0.0,0.0,0.0,-2.0712,-2.2672,-2.4288,-2.4897,0.0,0.0,0.0,0.0,0.0,0.0,0.0,-2.9927,-3.3319,-3.5344,-3.5165,-3.5401,-3.5903,-3.6925,-3.7418,-3.7665,-3.7665,0.0,-3.8942,-3.9291,-3.9349,-3.9479,-3.9871,-3.9204,-3.8942,-3.9944,-4.0104,-4.0104,-4.0104,-4.0104,-4.0104,-4.0104,-4.0104,-4.0104,-4.0104,-3.9465,-3.8957,-3.8957,-3.9276,-3.9623,-3.9912,-3.9648,-3.9198,-5.4783,-5.3739,-4.9959,-4.8676,-4.9148,-4.9902,-5.0592,-5.1132,-5.0476,-5.0493,-5.075,-4.7516,-4.5871,-4.5345,-4.2823,0.0,-4.1873,-4.26,-4.3548,-4.4685,-4.4034,-4.4066,-4.4575,-4.3295,-4.2695,-4.2697,-4.1936,-4.1588,-4.1574,-4.0972,-4.0024,-3.8744,-3.7387,-3.6614,-3.6487,-3.7859,-3.8902,-3.9503,-4.0767,-4.1446,-4.1509,-4.1462,-4.113,-4.0498,-3.9756,-3.9013,-3.8349,-3.7054,-3.5682,-3.432,-3.2392,-2.995,-2.6994,0.0,0.0,0.0,0.0,0.0,0.0,0.0,0.0,0.0,0.0,0.0,0.0,0.0,0.0,0.0,-2.3557,0.0,-2.675,-2.7911,0.0,0.0,0.0,-2.8666,-2.8203,-2.972,-3.1053,-3.1741,0.0,0.0,-3.6424,0.0,-3.7578,-3.813,-3.8202,-3.8202,-3.8202,-3.826,-3.8275,-3.8391,-3.8376,-3.8391,-3.8696,-3.8986,-3.945,-4.0002,-4.0104,-4.0104,-4.0104,-4.0104,-4.0104,-4.0104,-4.0104,-4.0104,-4.0104,-4.0046,-4.0104,-4.0031,-4.0128,-4.0079,-3.9809,-3.9103,-3.8406,-5.6819,-5.5566,-5.4583,-5.3194,-5.1649,-5.1923,-5.2025,-5.1925,-5.1889,-5.1284,-5.0211,-4.9392,-4.784,-4.5701,-4.5016,-4.4452,-4.4006,-4.4733,-4.4922,-4.4682,-4.4543,-4.4255,-4.3892,-4.309,-4.2695,-4.2631,-4.1936,-4.1588,-4.1588,-4.1446,-4.1193,-4.083,-4.0008,-3.8539,-3.655,-3.8287,-3.9345,-3.9487,-3.9835,-4.0277,-4.0798,-4.0293,-3.9914,-3.9771,-3.8586,-3.7622,-3.6898,-3.609,-3.5221,-3.432,-3.2861,-3.1214,-2.9407,-2.6056,0.0,0.0,0.0,0.0,0.0,0.0,0.0,0.0,0.0,-2.1815,-1.9101,0.0,-2.2823,0.0,-2.5135,-2.6663,-2.7391,-2.7753,0.0,0.0,-3.006,-3.0685,-3.1992,-3.2349,-3.303,-3.4308,-3.6497,-3.771,-3.7136,-3.7607,-3.8028,-3.8188,-3.8202,-3.8202,-3.8217,-3.8652,-3.8957,-3.8971,-3.9276,-3.9654,-3.9567,-3.977,-3.9886,-4.0089,-4.0089,-4.0104,-4.0089,-4.0104,-4.0104,-4.0104,-4.0104,-4.0104,-4.0089,-4.0104,-4.0089,-4.0118,-4.0367,-4.0523,-4.0097,-3.9304,-3.8627,-5.7982,-5.6881,-5.6563,-5.5323,-5.3691,-5.3661,-5.3511,-5.3341,-5.3104,-5.2438,-5.1434,-5.0183,-4.82,-4.5862,-4.5795,-4.5566,-4.5223,-4.5634,-4.5586,-4.5207,-4.5207,-4.5017,-4.4622,-4.3595,-4.3137,-4.3121,-4.2078,-4.1588,-4.1588,-4.1588,-4.1588,-4.1573,-4.1225,-3.9961,-3.7938,-3.8934,-3.9487,-3.9487,-3.9487,-3.9692,-4.0072,-3.9708,-3.9202,-3.8648,-3.8175,-3.7306,-3.6011,-3.59,-3.5236,-3.3925,-3.3161,-3.1741,-2.9532,-2.6972,-2.4837,0.0,0.0,0.0,0.0,0.0,0.0,0.0,0.0,0.0,0.0,0.0,-2.5023,-2.5937,-2.7258,-2.8536,-2.9711,-3.0335,-3.1134,-3.2179,-3.2788,-3.3456,-3.4273,-3.4735,-3.5301,-3.6156,-3.7405,-3.806,-3.7738,-3.7999,-3.8202,-3.8202,-3.8202,-3.8202,-3.8231,-3.8536,-3.8754,-3.8768,-3.9044,-3.9262,-3.9247,-3.9247,-3.9247,-3.9247,-3.9262,-3.9262,-3.9247,-3.9247,-3.9262,-3.9247,-3.9247,-3.9363,-3.961,-3.9436,-3.9334,-3.961,-3.9644,-3.9454,-3.9003,-3.8636,-3.8131,-5.8615,-5.7737,-5.7052,-5.6137,-5.5199,-5.4961,-5.4842,-5.4759,-5.4113,-5.3675,-5.3287,-5.0483,-4.811,-4.6279,-4.6112,-4.6008,-4.5864,-4.588,-4.5864,-4.588,-4.5807,-4.5807,-4.5744,-4.4354,-4.369,-4.3624,-4.2268,-4.1588,-4.1588,-4.1588,-4.1588,-4.1588,-4.1509,-4.0798,-3.955,-3.9424,-3.9329,-3.925,-3.9329,-3.9376,-3.9376,-3.9281,-3.8728,-3.7715,-3.7923,-3.7259,-3.5505,-3.5789,-3.5145,-3.3435,-3.3214,-3.1834,-2.8938,-2.731,-2.5932,0.0,-2.3208,0.0,0.0,0.0,0.0,0.0,0.0,0.0,0.0,-2.6866,-2.7839,-2.8985,-2.9697,-3.0887,-3.2716,-3.3877,-3.4574,-3.4675,-3.5706,-3.6214,-3.577,-3.6693,-3.7418,-3.7418,-3.7868,-3.8202,-3.8173,-3.8202,-3.8202,-3.8202,-3.8202,-3.8202,-3.8202,-3.8231,-3.826,-3.8202,-3.8202,-3.8362,-3.8318,-3.8275,-3.8275,-3.8246,-3.8304,-3.8202,-3.8275,-3.826,-3.8231,-3.8246,-3.8289,-3.8449,-3.8971,-3.8609,-3.8449,-3.8957,-3.8667,-3.8203,-3.7809,-3.7827,-3.7182,-5.9071,-5.779,-5.7649,-5.6741,-5.5448,-5.5217,-5.5066,-5.4944,-5.4891,-5.4478,-5.3636,-5.1476,-4.9837,-4.8597,-4.7835,-4.7032,-4.6211,-4.6195,-4.6195,-4.6195,-4.592,-4.5807,-4.5728,-4.4369,-4.3722,-4.3608,-4.2284,-4.1588,-4.1588,-4.1588,-4.1588,-4.1573,-4.1051,-4.0356,-3.9518,0.0,0.0,0.0,-3.8412,-3.8697,-3.8681,-3.8144,-3.8017,-3.827,-3.6801,0.0,-3.5407,-3.4431,-3.3719,-3.3324,-3.2771,0.0,0.0,0.0,0.0,0.0,0.0,0.0,0.0,0.0,0.0,0.0,-2.8797,-2.8043,-2.7449,-2.932,-3.0727,-3.0988,-3.2048,-3.3344,-3.4724,-3.5058,-3.5386,-3.5923,-3.6649,-3.707,-3.6983,-3.7593,-3.8028,-3.8043,-3.813,-3.8202,-3.8202,-3.8202,-3.8202,-3.8202,-3.8202,-3.8202,-3.8202,-3.8202,-3.8202,-3.8202,-3.8202,-3.8202,-3.8202,-3.8202,-3.8202,-3.8202,-3.8202,-3.8202,-3.8202,-3.8202,-3.8202,-3.8202,-3.8202,-3.8231,-3.8391,-3.8275,-3.8246,-3.8376,-3.8304,-3.8162,-3.8074,-3.8069,-3.7745,-5.9194,0.0,-5.7807,-5.6912,0.0,-5.5401,-5.5294,-5.5252,-5.5199,-5.4552,-5.3406,-5.1945,-5.0449,-4.9028,-4.815,-4.7338,-4.6582,-4.6582,-4.6582,-4.6582,-4.6439,-4.6349,-4.6301,-4.4753,-4.3981,-4.3918,-4.2352,-4.1588,-4.1588,-4.1588,-4.1588,-4.1606,-4.0925,-4.023,-3.9503,-3.8507,-3.7828,-3.751,-3.7828,-3.8002,-3.7986,-3.7684,-3.751,-3.7464,0.0,0.0,0.0,0.0,0.0,0.0,0.0,0.0,0.0,0.0,0.0,-2.8881,-2.8391,-2.8434,-2.9058,-2.9102,-2.9682,-3.093,-3.1627,-3.1422,-3.0161,-3.1569,-3.2745,-3.3369,-3.407,-3.4971,-3.617,-3.633,-3.6612,-3.7172,-3.7549,-3.7752,-3.7781,-3.8014,-3.8202,-3.8202,-3.8202,-3.8202,-3.8202,-3.8202,-3.8202,-3.8202,-3.8202,-3.8202,-3.8202,-3.8202,-3.8202,-3.8202,-3.8202,-3.8202,-3.8202,-3.8202,-3.8202,-3.8202,-3.8202,-3.8202,-3.8202,-3.8202,-3.8202,-3.8202,-3.8202,-3.8202,-3.8202,-3.8202,-3.8202,-3.8202,-3.8202,-3.8202,-3.815,-3.7324,-3.6355,-5.9194,-5.7807,-5.7807,-5.6912,-5.5525,-5.5525,-5.5525,-5.5478,0.0,0.0,0.0,-5.2482,-5.0992,-4.9177,-4.8349,-4.7637,-4.703,-4.6979,-4.6979,-4.6979,-4.6911,-4.6911,-4.6811,-4.5182,-4.4388,-4.4308,-4.2617,-4.1769,-4.1785,-4.1769,-4.1769,-4.1722,-4.1119,-4.0293,-3.939,-3.8171,-3.7553,-3.751,-3.751,-3.751,-3.751,-3.751,-3.7241,-3.6627,-3.7054,-3.6469,-3.4762,-3.5126,-3.4589,-3.2956,-3.2845,-3.2332,-3.1254,-3.1428,-3.1522,-3.1499,-3.1703,-3.1822,-3.1874,-3.2382,-3.2556,-3.2222,-3.3775,-3.4196,-3.2916,-3.3543,-3.4491,-3.5654,-3.5741,-3.6235,-3.7346,-3.7462,-3.7651,-3.8159,-3.8202,-3.8202,-3.8202,-3.8202,-3.8202,-3.8202,-3.8202,-3.8202,-3.8202,-3.8202,-3.8202,-3.8202,-3.8202,-3.8202,-3.8202,-3.8202,-3.8202,-3.8202,-3.8202,-3.8202,-3.8202,-3.8202,-3.8202,-3.8202,-3.8202,-3.8202,-3.8202,-3.8202,-3.8202,-3.8202,-3.8202,-3.8202,-3.8202,-3.8202,-3.8202,-3.8202,-3.8202,-3.8202,-3.8023,-3.6623,-3.5251,-5.9194,-5.7807,-5.7807,-5.6929,-5.5525,-5.5525,-5.5525,-5.5507,-5.5478,-5.5348,-5.5102,-5.3862,-5.2437,-5.0832,-4.9981,-4.8761,-4.7354,-4.7303,-4.7337,0.0,-4.7048,-4.6911,-4.6811,-4.5418,-4.4721,-4.4624,-4.3202,-4.2459,-4.2459,-4.2459,-4.2459,-4.2379,-4.1734,-4.0582,-3.9058,-3.8227,-3.7727,-3.751,-3.751,-3.751,-3.751,-3.751,-3.7478,-3.7322,-3.6832,-3.644,-3.6137,-3.5647,-3.5296,-3.4984,-3.4952,-3.4439,-3.3379,-3.381,-3.3565,-3.2318,-3.2703,-3.3092,-3.3202,-3.3314,-3.3808,-3.4782,-3.5575,-3.5503,-3.4279,-3.5227,-3.6228,-3.6954,-3.6997,-3.7317,-3.7984,-3.8043,-3.8043,-3.8144,-3.8188,-3.8202,-3.813,-3.8173,-3.8159,-3.8159,-3.8202,-3.8202,-3.8202,-3.8202,-3.8202,-3.8202,-3.8202,-3.8202,-3.8202,-3.8202,-3.8202,-3.8202,-3.8202,-3.8202,-3.8202,-3.8202,-3.8202,-3.8202,-3.8202,-3.8202,-3.8202,-3.8202,-3.8202,-3.8202,-3.8202,-3.8202,-3.8202,-3.8202,-3.8202,-3.8202,-3.8202,-3.8202,-3.8202,-3.7228,-3.6265,-5.8843,-5.779,-5.7333,-5.6526,-5.5525,-5.5525,-5.5525,-5.5525,-5.5525,-5.5312,-5.4948,-5.397,-5.264,-5.1083,-5.0214,-4.9073,-4.7737,-4.7721,-4.7737,-4.7704,-4.7588,-4.7471,-4.734,-4.5832,-4.5082,-4.4968,-4.3377,-4.2617,-4.2617,-4.2617,-4.2601,-4.2537,-4.1486,-4.0164,-3.8695,-3.8309,-3.8017,-3.7727,-3.7714,-3.7655,-3.751,-3.7626,-3.7626,-3.751,-3.7164,-3.6801,-3.6408,-3.6093,-3.5774,-3.5394,-3.5394,-3.5152,-3.467,-3.5007,-3.477,-3.3834,-3.4095,-3.4233,-3.3997,-3.4346,-3.4782,-3.5378,-3.6286,-3.662,-3.604,-3.6519,-3.7114,-3.7709,-3.7796,-3.7897,-3.8159,-3.7912,-3.7709,-3.7709,-3.7404,-3.7186,-3.723,-3.752,-3.7723,-3.7738,-3.8014,-3.8202,-3.8202,-3.8202,-3.8202,-3.8202,-3.8202,-3.8202,-3.8202,-3.8202,-3.8202,-3.8202,-3.8202,-3.8202,-3.8202,-3.8202,-3.8202,-3.8202,-3.8202,-3.8202,-3.8202,-3.8202,-3.8202,-3.8202,-3.8202,-3.8202,-3.8202,-3.8202,-3.8202,-3.8202,-3.8202,-3.8202,-3.8075,-3.7208,-3.6016,-5.8527,-5.7737,-5.6929,-5.6192,-5.5543,-5.5525,-5.5525,-5.5525,-5.5525,-5.5204,-5.4655,-5.4035,-5.2829,-5.115,-5.0382,-4.9305,-4.8116,-4.8001,-4.8001,-4.8001,-4.8001,-4.8001,-4.7819,-4.6238,-4.5403,-4.5223,-4.3645,-4.2851,-4.282,-4.282,-4.2657,-4.2252,-4.1225,-3.9959,-3.852,-3.8504,-3.8319,-3.803,-3.8087,-3.7918,-3.7524,-3.7756,-3.7786,-3.7539,-3.7553,-3.73,-3.6706,-3.6658,-3.6421,-3.5916,-3.5853,-3.5897,-3.5884,-3.6009,-3.5858,-3.5385,-3.5322,-3.5129,-3.4729,-3.5407,-3.5842,-3.5857,-3.6852,-3.7506,-3.7506,-3.752,-3.768,-3.8115,-3.8173,-3.8188,-3.813,-3.768,-3.7302,-3.7259,-3.6707,-3.6388,-3.6373,-3.691,-3.7302,-3.736,-3.7839,-3.8202,-3.8202,-3.8202,-3.8202,-3.8202,-3.8202,-3.8202,-3.8202,-3.8202,-3.8202,-3.8202,-3.8202,-3.8202,-3.8202,-3.8202,-3.8202,-3.8202,-3.8202,-3.8202,-3.8202,-3.8202,-3.8202,-3.8202,-3.8202,-3.8202,-3.8202,-3.8202,-3.8202,-3.8202,-3.8202,-3.8127,-3.781,-3.6727,-3.5467,-5.8527,-5.7737,-5.6912,-5.6174,-5.5543,-5.5525,-5.5525,-5.5525,-5.5525,-5.5204,-5.4724,-5.4593,-5.3446,-5.1728,-5.1082,-4.9805,-4.8083,-4.8001,-4.8001,-4.8001,-4.8001,-4.8001,-4.7868,-4.6462,-4.575,-4.5553,-4.4186,-4.3449,-4.3462,-4.3479,-4.2815,-4.1642,-4.139,-4.0428,-3.8952,-3.8766,-3.8611,-3.8363,-3.86,-3.8331,-3.7599,-3.7772,-3.7756,-3.751,-3.7743,-3.7725,-3.7397,-3.7415,-3.7383,-3.732,-3.7273,-3.7288,-3.7288,-3.7308,-3.7086,-3.6538,-3.6102,-3.5669,-3.5443,-3.6431,-3.707,-3.7172,-3.768,-3.8086,-3.8086,-3.8101,-3.813,-3.8202,-3.8202,-3.8202,-3.8173,-3.7636,-3.7215,-3.7099,-3.662,-3.6286,-3.6344,-3.691,-3.7302,-3.7302,-3.7839,-3.8202,-3.8202,-3.8202,-3.8202,-3.8202,-3.8202,-3.8202,-3.8202,-3.8202,-3.8202,-3.8202,-3.8202,-3.8202,-3.8202,-3.8202,-3.8202,-3.8202,-3.8202,-3.8202,-3.8202,-3.8173,-3.8188,-3.8028,-3.8043,-3.8014,-3.8057,-3.8202,-3.8115,-3.8086,-3.804,-3.8,-3.7208,-3.632,-3.54,-5.8105,-5.7684,-5.6473,-5.5788,-5.5525,-5.5525,-5.5525,-5.5525,-5.5525,-5.5371,-5.5044,-5.4071,-5.2711,-5.1246,-5.0615,-4.9454,-4.8034,-4.8001,-4.8001,-4.8001,-4.8001,-4.8001,-4.7852,-4.6493,-4.5798,-4.5665,-4.4307,-4.3615,-4.3615,-4.3615,-4.2837,-4.1574,-4.1397,-4.0641,-3.9193,-3.9094,-3.8958,-3.8639,-3.875,-3.8528,-3.8119,-3.8274,-3.8201,-3.7815,-3.7844,-3.796,-3.7992,-3.77,-3.7553,-3.7714,-3.7583,-3.751,-3.751,-3.751,-3.7255,-3.6754,-3.6275,-3.5982,-3.595,-3.6794,-3.7302,-3.7302,-3.7854,-3.8202,-3.8202,-3.8202,-3.8202,-3.8202,-3.8202,-3.8086,-3.7694,-3.7099,-3.6577,-3.6228,-3.5944,-3.5799,-3.5799,-3.6693,-3.7302,-3.7346,-3.7825,-3.8202,-3.8202,-3.8202,-3.8202,-3.8202,-3.8202,-3.8202,-3.8202,-3.8202,-3.8202,-3.8202,-3.8202,-3.8202,-3.8202,-3.8202,-3.8202,-3.8202,-3.8202,-3.8202,-3.8144,-3.7839,-3.768,-3.768,-3.7404,-3.7186,-3.7012,-3.7114,-3.7157,-3.7476,-3.8043,-3.8037,-3.772,-3.6557,-3.5588,-5.7649,-5.728,-5.6052,-5.5525,-5.5525,-5.5525,-5.5525,-5.5525,-5.5525,-5.5525,-5.5296,-5.3688,-5.2281,-5.1148,-5.0085,-4.8992,-4.8083,-4.8001,-4.8001,-4.8001,-4.8001,-4.8001,-4.7868,-4.6493,-4.5798,-4.5566,-4.4307,-4.3615,-4.3615,-4.3615,-4.2853,-4.1595,-4.1397,-4.0696,-3.9464,-3.9315,-3.9175,-3.8985,-3.8942,-3.8794,-3.8572,-3.8794,-3.8639,-3.8103,-3.8046,-3.8103,-3.8234,-3.7788,-3.7583,-3.774,-3.7612,-3.751,-3.751,-3.751,-3.7289,-3.6862,-3.6857,-3.6773,-3.6634,-3.7186,-3.7549,-3.7593,-3.797,-3.813,-3.7999,-3.7955,-3.7868,-3.7651,-3.768,-3.7476,-3.7331,-3.6707,-3.6069,-3.5494,-3.5261,-3.5189,-3.545,-3.6388,-3.7085,-3.7317,-3.7839,-3.8202,-3.8202,-3.8202,-3.8202,-3.8202,-3.8202,-3.8202,-3.8202,-3.8202,-3.8202,-3.8202,-3.8202,-3.8202,-3.8202,-3.8202,-3.8202,-3.8144,-3.8115,-3.7897,-3.7897,-3.7418,-3.7041,-3.6954,-3.6519,-3.6388,-3.6548,-3.6475,-3.6402,-3.6954,-3.7491,-3.7771,-3.73,-3.6337,-3.5802,-5.7351,-5.6578,-5.5823,-5.5525,-5.5525,-5.5525,-5.5525,-5.5525,-5.5525,-5.5507,-5.5262,-5.3824,-5.2606,-5.1523,-4.9855,-4.8713,-4.8067,-4.8001,-4.8001,-4.8001,-4.8001,-4.8001,-4.7901,-4.6493,-4.5798,-4.5665,-4.4324,-4.3615,-4.3615,-4.3598,-4.2853,-4.1491,-4.1397,-4.0696,-3.9497,-3.9315,-3.9315,-3.9245,-3.9245,-3.9137,-3.886,-3.9094,-3.8975,-3.846,-3.8379,-3.8262,-3.7972,-3.7655,-3.7539,-3.7539,-3.7524,-3.751,-3.7494,-3.7541,-3.7357,-3.706,-3.8046,-3.8287,-3.747,-3.7781,-3.8086,-3.8115,-3.8072,-3.7941,-3.7389,-3.7331,-3.7114,-3.6489,-3.6548,-3.6707,-3.7027,-3.6548,-3.5967,-3.5392,-3.4835,-3.4849,-3.5392,-3.6098,-3.6635,-3.7259,-3.7868,-3.8173,-3.8202,-3.8202,-3.8202,-3.8202,-3.8202,-3.8202,-3.8202,-3.8202,-3.8202,-3.8202,-3.8202,-3.8202,-3.8202,-3.8202,-3.8202,-3.8043,-3.7709,-3.7375,-3.7114,-3.6867,-3.6562,-3.6315,-3.6112,-3.6069,-3.6214,-3.6272,-3.6228,-3.6548,-3.7034,-3.7141,-3.6607,-3.6039,-3.5424,-5.6596,-5.5894,-5.5613,-5.5525,-5.5525,-5.5525,-5.5525,-5.5525,-5.5525,-5.5209,-5.4554,-5.3323,-5.2104,-5.0923,-4.9506,-4.8526,-4.805,-4.8001,-4.8001,-4.8001,-4.8001,-4.8001,-4.7835,-4.6493,-4.5798,-4.5582,-4.4324,-4.3615,-4.3615,-4.3615,-4.2853,-4.164,-4.1397,-4.0696,-3.9564,-3.9315,-3.9315,-3.9315,-3.9315,-3.9245,-3.9137,-3.9245,-3.9191,-3.8975,-3.8766,-3.86,-3.8483,-3.8205,-3.8078,-3.8094,-3.7889,-3.7756,-3.7791,-3.8011,-3.792,-3.7636,-3.8364,-3.8607,-3.801,-3.8072,-3.8028,-3.768,-3.7636,-3.7346,-3.6823,-3.6664,-3.6562,-3.6344,-3.6286,-3.6315,-3.606,-3.5872,-3.5459,-3.4907,-3.4922,-3.5241,-3.5894,-3.6548,-3.7186,-3.7738,-3.8101,-3.8188,-3.8202,-3.8202,-3.8202,-3.8202,-3.8202,-3.8202,-3.8202,-3.8202,-3.8202,-3.8202,-3.8202,-3.8202,-3.8202,-3.8202,-3.8115,-3.7738,-3.7375,-3.7027,-3.6736,-3.6127,-3.5749,-3.5648,-3.5532,-3.5328,-3.5357,-3.5604,-3.5648,-3.5822,-3.6322,-3.6461,-3.5684,-3.5261,-3.4654,-5.5964,-5.556,-5.5525,-5.5525,-5.5525,-5.5525,-5.5525,-5.5525,-5.5507,-5.5069,-5.4186,-5.3172,-5.1949,-5.056,-4.9443,-4.8562,-4.8033,-4.8001,-4.8001,-4.8001,-4.8001,-4.8001,-4.7769,-4.6477,-4.5798,-4.5566,-4.4324,-4.3615,-4.3615,-4.3615,-4.2936,-4.1827,-4.1558,-4.0812,-3.9812,-3.9431,-3.9315,-3.9315,-3.9315,-3.9315,-3.9315,-3.9315,-3.9315,-3.9272,-3.9067,-3.8931,-3.8805,-3.8544,-3.8391,-3.8363,-3.8177,-3.8001,-3.7966,-3.8277,-3.8216,-3.7712,-3.8186,-3.8277,-3.7689,-3.7607,-3.7404,-3.7041,-3.6968,-3.6707,-3.6098,-3.6011,-3.5909,-3.5778,-3.5691,-3.5488,-3.5198,-3.5053,-3.4878,-3.4574,-3.5014,-3.5604,-3.6243,-3.6896,-3.752,-3.7984,-3.797,-3.7999,-3.813,-3.7999,-3.8014,-3.8159,-3.8202,-3.8202,-3.8202,-3.8202,-3.8202,-3.8202,-3.8202,-3.8202,-3.8115,-3.7999,-3.781,-3.7447,-3.6707,-3.6431,-3.6127,-3.5523,-3.516,-3.5043,-3.482,-3.4545,-3.4559,-3.4835,-3.5029,-3.516,-3.5644,-3.5992,-3.5268,-3.4561,-3.3836,-5.5543,-5.5525,-5.5525,-5.5525,-5.5525,-5.5525,-5.5525,-5.5525,-5.5455,-5.4928,-5.4103,-5.3408,-5.2033,-5.063,-4.9649,-4.8872,-4.8131,-4.8001,-4.8001,-4.8001,-4.8001,-4.7968,-4.7802,-4.646,-4.5665,-4.5516,-4.4244,-4.3615,-4.3615,-4.3582,-4.3168,-4.2406,-4.169,-4.0978,-4.0326,-3.9613,-3.9315,-3.9315,-3.9315,-3.9315,-3.9315,-3.9315,-3.9315,-3.9315,-3.9272,-3.9121,-3.8832,-3.86,-3.8448,-3.842,-3.8391,-3.8234,-3.8075,-3.8338,-3.8044,-3.7401,-3.7628,-3.7409,-3.6587,-3.6561,-3.6648,-3.633,-3.6315,-3.6112,-3.5537,-3.5392,-3.5203,-3.4762,-3.4569,-3.4501,-3.4516,-3.4501,-3.4486,-3.4472,-3.498,-3.5639,-3.6257,-3.6925,-3.7535,-3.7984,-3.7767,-3.7636,-3.7897,-3.7752,-3.7651,-3.8057,-3.8202,-3.8202,-3.8202,-3.8202,-3.8202,-3.8202,-3.8188,-3.8173,-3.797,-3.7738,-3.7462,-3.7085,-3.6199,-3.5639,-3.5401,-3.4922,-3.4762,-3.4646,-3.4661,-3.438,-3.438,-3.4646,-3.4603,-3.4772,-3.5243,-3.5282,-3.4315,-3.3407,-3.2772,-5.5525,-5.5525,-5.5525,-5.5525,-5.5525,-5.5525,-5.5525,-5.5455,-5.4946,-5.4261,-5.3489,-5.2716,-5.1384,-5.006,-4.9505,-4.8889,-4.8033,-4.8001,-4.8001,-4.8001,-4.8001,-4.7719,-4.7139,-4.6245,-4.5268,-4.439,-4.3847,-4.3615,-4.3615,-4.3615,-4.3002,-4.1893,-4.1541,-4.0763,-3.9763,-3.9415,-3.9315,-3.9315,-3.9315,-3.9315,-3.9315,-3.9315,-3.9315,-3.9315,-3.9315,-3.9245,-3.9148,-3.9056,-3.892,-3.8711,-3.8683,-3.8655,-3.8614,-3.8695,-3.8589,-3.8253,-3.8306,-3.7965,-3.7099,-3.7134,-3.6831,-3.6058,-3.604,-3.5735,-3.4893,-3.4719,-3.4646,-3.4428,-3.438,-3.438,-3.438,-3.438,-3.438,-3.438,-3.4965,-3.5683,-3.6402,-3.7288,-3.7926,-3.8072,-3.768,-3.7622,-3.7926,-3.768,-3.7564,-3.8072,-3.8202,-3.8202,-3.8202,-3.8202,-3.8202,-3.8202,-3.8173,-3.8086,-3.7854,-3.7549,-3.723,-3.6809,-3.6031,-3.5218,-3.4878,-3.4675,-3.4501,-3.438,-3.438,-3.438,-3.438,-3.438,-3.438,-3.438,-3.4741,-3.4115,-3.2963,-3.2165,-3.1537,-5.5525,-5.5525,-5.5525,-5.5525,-5.5525,-5.5525,-5.5525,-5.5402,-5.4665,-5.3892,-5.3138,-5.2365,-5.1037,-4.9671,-4.9419,-4.8889,-4.8066,-4.8001,-4.8001,-4.8001,-4.8001,-4.7603,-4.6808,-4.5831,-4.4804,-4.3813,-4.3615,-4.3615,-4.3615,-4.3565,-4.2986,-4.196,-4.1558,-4.0862,-3.9763,-3.9431,-3.9315,-3.9315,-3.9315,-3.9315,-3.9315,-3.9315,-3.9315,-3.9315,-3.9315,-3.9315,-3.9315,-3.9315,-3.9202,-3.9013,-3.886,-3.8839,-3.8859,-3.8747,-3.8601,-3.8309,-3.8011,-3.7483,-3.6716,-3.6739,-3.657,-3.5447,-3.5604,-3.5517,-3.4661,-3.438,-3.438,-3.438,-3.438,-3.438,-3.438,-3.438,-3.438,-3.4428,-3.5227,-3.6054,-3.6881,-3.7694,-3.8144,-3.8086,-3.768,-3.768,-3.7897,-3.7709,-3.7578,-3.8043,-3.8202,-3.8202,-3.8202,-3.8202,-3.8202,-3.8202,-3.8202,-3.8028,-3.7752,-3.7404,-3.7012,-3.6489,-3.5915,-3.5218,-3.4675,-3.4559,-3.438,-3.438,-3.438,-3.438,-3.438,-3.438,-3.4395,-3.4398,-3.4378,-3.3641,-3.2723,-3.1123,-3.0369,-5.5525,-5.5525,-5.5525,-5.5525,-5.5525,-5.5525,-5.5455,-5.5279,-5.4542,-5.3734,-5.3015,-5.2172,-5.0967,-4.9671,-4.9419,-4.8872,-4.8131,-4.8001,-4.8001,-4.8001,-4.7968,-4.757,-4.6626,-4.5284,-4.4274,-4.3698,-4.3615,-4.3615,-4.3615,-4.3598,-4.3218,-4.2406,-4.1723,-4.1061,-4.031,-3.9663,-3.9315,-3.9315,-3.9315,-3.9315,-3.9315,-3.9315,-3.9315,-3.9315,-3.9315,-3.9315,-3.9315,-3.9315,-3.9315,-3.9245,-3.9013,-3.8914,-3.882,-3.8593,-3.8257,-3.7921,-3.7134,-3.6585,-3.5937,-3.6089,-3.5624,-3.4777,-3.5087,-3.5131,-3.4559,-3.438,-3.438,-3.438,-3.438,-3.438,-3.438,-3.438,-3.4424,-3.469,-3.559,-3.6678,-3.7926,-3.813,-3.8086,-3.8043,-3.7709,-3.7433,-3.7883,-3.7535,-3.7535,-3.7912,-3.8115,-3.8202,-3.8202,-3.8202,-3.8202,-3.8202,-3.8188,-3.797,-3.7694,-3.7752,-3.7273,-3.6214,-3.5828,-3.5444,-3.4748,-3.4559,-3.438,-3.438,-3.438,-3.438,-3.438,-3.438,-3.453,-3.4679,-3.4311,-3.3589,-3.2595,-3.1253,-3.019,-5.5525,-5.5525,-5.5525,-5.5525,-5.5525,-5.5525,-5.5156,-5.4577,-5.3822,-5.3085,-5.2295,-5.1523,-5.0567,-4.9496,-4.9389,-4.8872,-4.8179,-4.8001,-4.8001,-4.8001,-4.8001,-4.7239,-4.6013,-4.4622,-4.3813,-4.3615,-4.3615,-4.3615,-4.3615,-4.3615,-4.3201,-4.2489,-4.1773,-4.1077,-4.0409,-3.968,-3.9332,-3.9315,-3.9315,-3.9315,-3.9315,-3.9315,-3.9315,-3.9315,-3.9315,-3.9315,-3.9315,-3.9315,-3.9315,-3.9315,-3.9202,-3.9336,-3.9455,-3.9016,-3.8707,-3.8701,-3.8213,-3.7415,-3.6616,-3.6586,-3.6109,-3.4863,-3.5097,-3.5101,-3.4486,-3.438,-3.438,-3.438,-3.438,-3.438,-3.438,-3.438,-3.4777,-3.5677,-3.604,-3.6751,-3.7767,-3.7825,-3.7694,-3.7941,-3.6838,-3.6693,-3.7143,-3.7143,-3.6954,-3.752,-3.7941,-3.8159,-3.8101,-3.8086,-3.8043,-3.8144,-3.8115,-3.7883,-3.7767,-3.7912,-3.7418,-3.6148,-3.5784,-3.588,-3.5198,-3.4704,-3.453,-3.438,-3.438,-3.438,-3.438,-3.438,-3.4632,-3.4791,-3.4634,-3.4108,-3.3406,-3.2324,-3.1101,-5.5525,-5.5525,-5.5525,-5.5525,-5.5525,-5.5525,-5.5033,-5.4261,-5.3535,-5.2751,-5.1979,-5.1224,-5.0341,-4.9479,-4.9389,-4.8872,-4.8099,-4.8001,-4.8001,-4.7885,-4.7338,-4.6576,-4.5582,-4.431,-4.3615,-4.3615,-4.3615,-4.3615,-4.3615,-4.3615,-4.3184,-4.2473,-4.1761,-4.1077,-4.0393,-3.9696,-3.9315,-3.9315,-3.9315,-3.9315,-3.9315,-3.9315,-3.9315,-3.9315,-3.9315,-3.9315,-3.9315,-3.9315,-3.9315,-3.9315,-3.9332,-3.9433,-3.9572,-3.9276,-3.9112,-3.9311,-3.8497,-3.7592,-3.7014,-3.6841,-3.6157,-3.5133,-3.5166,-3.5054,-3.4574,-3.438,-3.438,-3.438,-3.438,-3.438,-3.438,-3.438,-3.4893,-3.5619,-3.5909,-3.6446,-3.7665,-3.752,-3.7346,-3.7128,-3.6562,-3.6112,-3.7157,-3.6896,-3.7099,-3.7578,-3.8028,-3.7984,-3.7854,-3.7854,-3.7781,-3.7752,-3.7651,-3.7346,-3.7418,-3.7607,-3.7796,-3.6577,-3.577,-3.5909,-3.527,-3.4704,-3.4574,-3.438,-3.438,-3.438,-3.438,-3.438,-3.4501,-3.4636,-3.4753,-3.432,-3.3459,-3.2548,-3.1453,-5.5525,-5.5525,-5.5525,-5.5525,-5.549,-5.542,-5.484,-5.4121,-5.3313,-5.2558,-5.1821,-5.1171,-5.0341,-4.9419,-4.9389,-4.8872,-4.8001,-4.8001,-4.7901,-4.7471,-4.6676,-4.5798,-4.545,-4.4211,-4.3648,-4.3615,-4.3615,-4.3615,-4.3615,-4.3615,-4.3284,-4.2688,-4.196,-4.121,-4.0597,-3.9862,-3.9431,-3.9315,-3.9315,-3.9315,-3.9315,-3.9315,-3.9315,-3.9315,-3.9315,-3.9315,-3.9315,-3.9315,-3.9315,-3.9315,-3.9315,-3.9332,-3.9338,-3.9299,-3.9191,-3.9035,-3.8217,-3.7472,-3.6983,-3.6493,-3.5856,-3.5074,-3.5214,-3.5229,-3.4612,-3.4448,-3.438,-3.438,-3.438,-3.438,-3.438,-3.438,-3.4748,-3.5378,-3.5494,-3.6054,-3.6765,-3.7099,-3.6896,-3.6373,-3.6243,-3.6417,-3.6852,-3.7143,-3.7201,-3.6867,-3.7433,-3.7738,-3.7607,-3.7549,-3.7317,-3.7012,-3.6867,-3.6678,-3.6925,-3.7259,-3.7476,-3.7172,-3.617,-3.5735,-3.4965,-3.4501,-3.4457,-3.438,-3.438,-3.438,-3.438,-3.4428,-3.4457,-3.4358,-3.4396,-3.3733,-3.2863,-3.2051,-3.1048,-5.5525,-5.5525,-5.5525,-5.5525,-5.5402,-5.4823,-5.4121,-5.3366,-5.2611,-5.1909,-5.1242,-5.0943,-5.0341,-4.9419,-4.9372,-4.8872,-4.8082,-4.8,-4.7719,-4.7023,-4.6245,-4.545,-4.492,-4.4009,-4.3648,-4.3615,-4.3615,-4.3615,-4.3615,-4.3598,-4.3532,-4.3267,-4.2506,-4.1877,-4.116,-4.0442,-3.9862,-3.9431,-3.9315,-3.9315,-3.9315,-3.9315,-3.9315,-3.9315,-3.9315,-3.9315,-3.9315,-3.9315,-3.9315,-3.9315,-3.9315,-3.9315,-3.9315,-3.9315,-3.9121,-3.8689,-3.8322,-3.7618,-3.6754,-3.6333,-3.5883,-3.5204,-3.4963,-3.481,-3.4689,-3.4481,-3.4414,-3.438,-3.438,-3.4414,-3.4414,-3.4414,-3.469,-3.5218,-3.5726,-3.5944,-3.5886,-3.5979,-3.6212,-3.606,-3.5459,-3.5082,-3.5755,-3.5944,-3.6075,-3.6206,-3.6678,-3.7288,-3.7288,-3.7128,-3.6765,-3.6301,-3.6141,-3.6069,-3.6649,-3.6968,-3.7186,-3.7114,-3.6301,-3.5691,-3.4922,-3.438,-3.438,-3.438,-3.438,-3.438,-3.438,-3.4395,-3.4424,-3.4243,-3.4065,-3.3457,-3.2736,-3.1746,-3.0965,-5.5525,-5.5525,-5.5525,-5.5297,-5.4911,-5.4472,-5.3682,-5.2699,-5.2225,-5.1593,-5.1013,-5.0891,-5.0453,-4.9727,-4.9492,-4.8995,-4.842,-4.8082,-4.7603,-4.6891,-4.6146,-4.54,-4.4671,-4.4026,-4.3615,-4.3615,-4.3615,-4.3615,-4.3615,-4.3615,-4.3598,-4.3549,-4.287,-4.2075,-4.1397,-4.0774,-4.0011,-3.9448,-3.9315,-3.9315,-3.9315,-3.9315,-3.9315,-3.9315,-3.9315,-3.9315,-3.9315,-3.9315,-3.9315,-3.9315,-3.9315,-3.9315,-3.9315,-3.9315,-3.9077,-3.8799,-3.808,-3.7677,-3.6951,-3.6227,-3.5668,-3.5246,-3.4949,-3.4798,-3.4698,-3.4597,-3.4481,-3.4433,-3.4501,-3.4601,-3.4549,-3.4448,-3.4646,-3.4907,-3.5488,-3.5561,-3.5247,-3.5715,-3.5968,-3.5581,-3.4849,-3.4922,-3.5145,-3.5261,-3.5639,-3.6069,-3.6228,-3.6736,-3.6257,-3.6098,-3.5909,-3.559,-3.543,-3.559,-3.6272,-3.6678,-3.6925,-3.6635,-3.5981,-3.561,-3.5125,-3.4719,-3.438,-3.438,-3.438,-3.438,-3.438,-3.4409,-3.4375,-3.4306,-3.4033,-3.3416,-3.2717,-3.184,-3.1169,-5.5525,-5.5507,-5.5385,-5.4928,-5.4314,-5.4015,-5.319,-5.2137,-5.1874,-5.1417,-5.0996,-5.0891,-5.0564,-5.0091,-4.9698,-4.9222,-4.8637,-4.7945,-4.7305,-4.6576,-4.5847,-4.5102,-4.4423,-4.391,-4.3615,-4.3615,-4.3615,-4.3615,-4.3615,-4.3615,-4.3615,-4.3499,-4.3035,-4.2274,-4.1491,-4.0862,-4.0177,-3.9448,-3.9315,-3.9315,-3.9315,-3.9315,-3.9315,-3.9315,-3.9315,-3.9315,-3.9315,-3.9315,-3.9315,-3.9315,-3.9315,-3.9315,-3.9315,-3.9315,-3.9218,-3.9077,-3.8039,-3.7383,-3.6936,-3.6164,-3.5457,-3.5246,-3.5001,-3.4868,-3.475,-3.4698,-3.4582,-3.4582,-3.465,-3.4769,-3.4698,-3.4515,-3.4414,-3.4574,-3.5043,-3.5043,-3.4884,-3.5851,-3.5915,-3.4869,-3.4559,-3.4704,-3.4893,-3.5101,-3.5517,-3.5894,-3.604,-3.6025,-3.561,-3.5378,-3.5314,-3.5183,-3.5082,-3.5198,-3.5822,-3.6098,-3.6373,-3.6243,-3.5683,-3.545,-3.5189,-3.4762,-3.438,-3.438,-3.438,-3.438,-3.438,-3.4395,-3.4395,-3.4346,-3.375,-3.2894,-3.235,-3.1919,-3.1258,-5.5525,-5.5455,-5.4788,-5.4419,-5.4103,-5.298,-5.2295,-5.1944,-5.1347,-5.1031,-5.0926,-5.0891,-5.0592,-5.0205,-5.0045,-4.9492,-4.8579,-4.7725,-4.6757,-4.6011,-4.5268,-4.4589,-4.3946,-4.3731,-4.3615,-4.3615,-4.3615,-4.3615,-4.3615,-4.3615,-4.3615,-4.3565,-4.3433,-4.2754,-4.1789,-4.121,-4.0531,-3.958,-3.9365,-3.9315,-3.9315,-3.9315,-3.9315,-3.9315,-3.9315,-3.9315,-3.9315,-3.9315,-3.9315,-3.9315,-3.9315,-3.9315,-3.9245,-3.9245,-3.8996,-3.8507,-3.7867,-3.7221,-3.6662,-3.5973,-3.5537,-3.5374,-3.5148,-3.4935,-3.4835,-3.4783,-3.4765,-3.4731,-3.4731,-3.4731,-3.4698,-3.4582,-3.4448,-3.4559,-3.4927,-3.5116,-3.4874,-3.5385,-3.5868,-3.4651,-3.4472,-3.4409,-3.4646,-3.4777,-3.4951,-3.5227,-3.5372,-3.5473,-3.5334,-3.5232,-3.529,-3.5067,-3.4835,-3.5053,-3.5421,-3.5537,-3.5712,-3.5799,-3.545,-3.5227,-3.4951,-3.4617,-3.438,-3.4428,-3.438,-3.438,-3.438,-3.438,-3.4045,-3.3776,-3.3052,-3.2304,-3.1783,-3.1281,-3.0762,-5.4665,-5.4261,-5.3875,-5.3489,-5.305,-5.2348,-5.1786,-5.14,-5.1049,-5.0891,-5.0891,-5.0891,-5.0764,-5.0492,-5.0176,-4.9409,-4.8216,-4.7625,-4.6495,-4.5443,-4.4821,-4.4307,-4.3664,-4.3615,-4.3615,-4.3615,-4.3615,-4.3615,-4.3615,-4.3615,-4.3615,-4.3615,-4.3598,-4.3019,-4.2092,-4.1558,-4.0862,-3.9978,-3.9514,-3.9315,-3.9315,-3.9315,-3.9315,-3.9315,-3.9315,-3.9315,-3.9315,-3.9315,-3.9315,-3.9315,-3.9315,-3.9121,-3.8898,-3.8788,-3.8662,-3.8222,-3.7706,-3.7101,-3.6446,-3.5846,-3.5537,-3.5472,-3.5228,-3.5082,-3.5034,-3.5016,-3.4997,-3.5045,-3.485,-3.485,-3.4949,-3.4783,-3.4668,-3.4752,-3.5142,-3.5103,-3.4928,-3.5512,-3.5195,-3.4578,-3.4472,-3.4395,-3.4395,-3.4486,-3.4409,-3.4545,-3.4733,-3.4849,-3.4971,-3.5,-3.5009,-3.4922,-3.4733,-3.4922,-3.5145,-3.5203,-3.5348,-3.5392,-3.5247,-3.5024,-3.4951,-3.4719,-3.4545,-3.4457,-3.4443,-3.438,-3.423,-3.4113,-3.3673,-3.3262,-3.2684,-3.2074,-3.1267,-3.0633,-3.0266,-5.3734,-5.3173,-5.3043,-5.2576,-5.2049,-5.1839,-5.1452,-5.0978,-5.0908,-5.0891,-5.0891,-5.0891,-5.0891,-5.0712,-5.0046,-4.9062,-4.7644,-4.7355,-4.6173,-4.518,-4.455,-4.4092,-4.3747,-4.3615,-4.3615,-4.3615,-4.3615,-4.3615,-4.3615,-4.3615,-4.3615,-4.3615,-4.3598,-4.3218,-4.2473,-4.174,-4.1077,-4.0393,-3.9696,-3.9332,-3.9315,-3.9315,-3.9315,-3.9315,-3.9315,-3.9315,-3.9315,-3.9315,-3.9315,-3.9315,-3.9245,-3.9007,-3.8463,-3.8435,-3.8322,-3.7953,-3.7442,-3.6951,-3.6461,-3.5846,-3.5489,-3.5504,-3.5326,-3.5228,-3.518,-3.518,-3.5261,-3.5374,-3.5195,-3.5001,-3.5067,-3.5001,-3.4854,-3.4875,-3.5116,-3.5253,-3.4923,-3.4947,-3.5001,-3.4608,-3.4457,-3.438,-3.4414,-3.438,-3.438,-3.438,-3.4588,-3.4574,-3.4646,-3.4603,-3.4632,-3.4661,-3.4675,-3.482,-3.4936,-3.4951,-3.5189,-3.5378,-3.5145,-3.4835,-3.4922,-3.4965,-3.4748,-3.4472,-3.4428,-3.4346,-3.4113,-3.4011,-3.3894,-3.35,-3.2698,-3.2037,-3.1513,-3.0784,-3.0215,-5.3289,-5.3131,-5.2435,-5.2084,-5.1864,-5.1312,-5.1013,-5.0908,-5.0891,-5.0891,-5.0873,-5.0855,-5.082,-5.0529,-4.9624,-4.8661,-4.7562,-4.6474,-4.5648,-4.4942,-4.4241,-4.378,-4.3615,-4.3615,-4.3615,-4.3615,-4.3615,-4.3615,-4.3615,-4.3615,-4.3615,-4.3615,-4.3549,-4.3251,-4.2638,-4.1955,-4.1061,-4.0409,-3.9696,-3.9315,-3.9315,-3.9315,-3.9315,-3.9315,-3.9315,-3.9315,-3.9315,-3.9315,-3.9315,-3.9315,-3.9315,-3.8969,-3.8518,-3.8871,-3.8096,-3.7191,-3.6554,-3.6492,-3.629,-3.5829,-3.5489,-3.5457,-3.5326,-3.5213,-3.5213,-3.5246,-3.5326,-3.5472,-3.5338,-3.521,-3.521,-3.5108,-3.4898,-3.4923,-3.5148,-3.5087,-3.4806,-3.5049,-3.4996,-3.485,-3.4758,-3.4549,-3.4428,-3.4414,-3.438,-3.438,-3.438,-3.438,-3.438,-3.438,-3.438,-3.4486,-3.4545,-3.4675,-3.4748,-3.4762,-3.5024,-3.5319,-3.5145,-3.4806,-3.4922,-3.5009,-3.469,-3.4472,-3.4443,-3.438,-3.4264,-3.4196,-3.423,-3.3534,-3.2484,-3.2146,-3.2037,-3.1172,-3.0138,-5.1874,-5.1856,-5.1505,-5.1382,-5.1329,-5.1013,-5.0891,-5.0891,-5.0891,-5.0891,-5.0785,-5.0364,-4.9995,-4.9539,-4.8924,-4.8018,-4.6907,-4.605,-4.5209,-4.4562,-4.3883,-4.3615,-4.3615,-4.3615,-4.3615,-4.3615,-4.3615,-4.3615,-4.3615,-4.3615,-4.3615,-4.3615,-4.3598,-4.3499,-4.2986,-4.2373,-4.1707,-4.0878,-3.9951,-3.9348,-3.9315,-3.9315,-3.9315,-3.9315,-3.9315,-3.9315,-3.9315,-3.9315,-3.9315,-3.9315,-3.9315,-3.8996,-3.8518,-3.8435,-3.7994,-3.6677,-3.643,-3.6258,-3.591,-3.5666,-3.5537,-3.5489,-3.5424,-3.5392,-3.5359,-3.5359,-3.5392,-3.5472,-3.5798,-3.578,-3.5687,-3.5978,-3.5971,-3.5874,-3.5596,-3.5765,-3.5629,-3.5341,-3.5385,-3.5239,-3.5044,-3.486,-3.4675,-3.4661,-3.4588,-3.438,-3.438,-3.438,-3.438,-3.438,-3.438,-3.4395,-3.4457,-3.4516,-3.4545,-3.4574,-3.4936,-3.5218,-3.5392,-3.5145,-3.5101,-3.4994,-3.469,-3.4486,-3.4428,-3.438,-3.438,-3.4011,-3.3673,-3.2946,-3.2196,-3.1783,-3.1392,-3.0797,-2.9933,-5.0891,-5.0891,-5.0891,-5.0891,-5.0891,-5.0891,-5.0891,-5.0891,-5.0891,-5.0768,-5.0399,-4.975,-4.8995,-4.8381,-4.805,-4.7237,-4.6035,-4.577,-4.4941,-4.4115,-4.3658,-4.3615,-4.3615,-4.3615,-4.3615,-4.3615,-4.3615,-4.3615,-4.3615,-4.3615,-4.3615,-4.3615,-4.3615,-4.3582,-4.3383,-4.2771,-4.1988,-4.0945,-3.9879,-3.9348,-3.9315,-3.9315,-3.9315,-3.9315,-3.9315,-3.9315,-3.9315,-3.9315,-3.9315,-3.9315,-3.9315,-3.8996,-3.8463,-3.8507,-3.7924,-3.6875,-3.6569,-3.6352,-3.5878,-3.5537,-3.5489,-3.5489,-3.5489,-3.5457,-3.5457,-3.5504,-3.5669,-3.5789,-3.5848,-3.6013,-3.6207,-3.6757,-3.666,-3.6563,-3.648,-3.6773,-3.6931,-3.6384,-3.5991,-3.5868,-3.5662,-3.5316,-3.5131,-3.4994,-3.4806,-3.4501,-3.438,-3.438,-3.4424,-3.4486,-3.4428,-3.4428,-3.4457,-3.4574,-3.4777,-3.4806,-3.5038,-3.5096,-3.529,-3.5218,-3.498,-3.4893,-3.4704,-3.4545,-3.4395,-3.438,-3.438,-3.3707,-3.3052,-3.2684,-3.2182,-3.1132,-3.0533,-3.0037,-2.9804,-5.0891,-5.0891,-5.0891,-5.0891,-5.0891,-5.0891,-5.0891,-5.0873,-5.0873,-5.0391,-4.9592,-4.8942,-4.8187,-4.7532,-4.7056,-4.6474,-4.5571,-4.4782,-4.4389,-4.4114,-4.3864,-4.3645,-4.3615,-4.3615,-4.3615,-4.3615,-4.3615,-4.3615,-4.3615,-4.3615,-4.3615,-4.3615,-4.3615,-4.3615,-4.3383,-4.2853,-4.1905,-4.0878,-3.9879,-3.9398,-3.9332,-3.9315,-3.9315,-3.9315,-3.9315,-3.9315,-3.9315,-3.9315,-3.9315,-3.9315,-3.9315,-3.8996,-3.849,-3.8689,-3.801,-3.689,-3.6768,-3.643,-3.5797,-3.5489,-3.5489,-3.5489,-3.5504,-3.5549,-3.5669,-3.5579,-3.5789,-3.6312,-3.6372,-3.6447,-3.6716,-3.7,-3.7261,-3.7182,-3.7233,-3.7357,-3.7406,-3.7083,-3.6717,-3.6541,-3.6359,-3.6111,-3.5758,-3.5685,-3.4971,-3.4588,-3.4443,-3.4443,-3.4603,-3.4646,-3.4501,-3.4457,-3.4501,-3.4719,-3.5218,-3.529,-3.5067,-3.5053,-3.5203,-3.4922,-3.4617,-3.4559,-3.4617,-3.453,-3.438,-3.438,-3.4264,-3.3673,-3.3122,-3.2826,-3.2205,-3.1244,-3.0495,-3.0037,-2.9856,-5.0891,-5.0891,-5.0891,-5.0891,-5.0891,-5.0891,-5.0891,-5.0803,-5.0364,-4.9416,-4.831,-4.7941,-4.7397,-4.6778,-4.6485,-4.5927,-4.5196,-4.4882,-4.439,-4.3964,-4.3687,-4.3615,-4.3615,-4.3615,-4.3615,-4.3615,-4.3615,-4.3615,-4.3615,-4.3615,-4.3615,-4.3615,-4.3615,-4.3615,-4.3367,-4.2837,-4.1939,-4.1127,-4.031,-3.9812,-3.9332,-3.9315,-3.9315,-3.9315,-3.9315,-3.9315,-3.9315,-3.9315,-3.9315,-3.9315,-3.9299,-3.8871,-3.839,-3.8618,-3.7867,-3.6631,-3.6753,-3.6352,-3.5733,-3.5489,-3.5489,-3.5489,-3.5519,-3.5684,-3.6028,-3.6103,-3.6432,-3.6806,-3.7105,-3.727,-3.7195,-3.7898,-3.8387,-3.8098,-3.7953,-3.8002,-3.7961,-3.7715,-3.7571,-3.7435,-3.7367,-3.721,-3.6784,-3.6394,-3.5496,-3.4709,-3.4559,-3.4545,-3.4806,-3.4965,-3.4907,-3.4864,-3.4907,-3.4994,-3.5465,-3.5305,-3.4994,-3.5096,-3.5232,-3.4922,-3.4675,-3.4457,-3.4486,-3.4428,-3.438,-3.438,-3.4147,-3.3624,-3.3192,-3.2861,-3.2218,-3.1392,-3.0709,-3.0037,-2.9895,-5.0891,-5.0873,-5.0627,-5.068,-5.0838,-5.0627,-5.0539,-5.0426,-4.9662,-4.8644,-4.738,-4.7169,-4.6783,-4.6277,-4.6023,-4.577,-4.5196,-4.4818,-4.4361,-4.3977,-4.3747,-4.3645,-4.3615,-4.3615,-4.3615,-4.3615,-4.3615,-4.3615,-4.3615,-4.3615,-4.3615,-4.3615,-4.3615,-4.3615,-4.3383,-4.2638,-4.191,-4.1375,-4.0498,-3.9928,-3.9332,-3.9315,-3.9315,-3.9315,-3.9315,-3.9315,-3.9315,-3.9315,-3.9315,-3.9218,-3.9077,-3.8745,-3.8407,-3.7994,-3.7442,-3.6814,-3.6352,-3.6116,-3.5668,-3.5489,-3.5594,-3.5818,-3.5863,-3.6193,-3.6552,-3.6776,-3.7045,-3.7584,-3.7943,-3.8048,-3.7778,-3.8512,-3.8871,-3.8551,-3.8534,-3.8582,-3.8707,-3.857,-3.8481,-3.835,-3.8216,-3.7976,-3.7402,-3.6931,-3.6301,-3.5563,-3.5415,-3.5401,-3.5517,-3.5604,-3.5532,-3.5503,-3.5488,-3.5575,-3.5697,-3.559,-3.5546,-3.5648,-3.5633,-3.5227,-3.4965,-3.4733,-3.4501,-3.4414,-3.438,-3.438,-3.4196,-3.3894,-3.3381,-3.2861,-3.1965,-3.0897,-3.0495,-2.9895,-2.9856,-5.0873,-5.0785,-5.0075,-5.0171,-5.0627,-5.003,-4.9741,-4.9609,-4.8889,-4.8064,-4.7239,-4.6642,-4.6319,-4.6122,-4.593,-4.5684,-4.5372,-4.478,-4.4293,-4.415,-4.3776,-4.3628,-4.3615,-4.3615,-4.3615,-4.3615,-4.3615,-4.3615,-4.3615,-4.3615,-4.3615,-4.3615,-4.3615,-4.3598,-4.3466,-4.2158,-4.148,-4.1226,-4.0094,-3.9597,-3.9332,-3.9315,-3.9315,-3.9315,-3.9315,-3.9315,-3.9315,-3.9315,-3.9315,-3.9272,-3.8871,-3.8535,-3.8165,-3.7735,-3.7131,-3.6399,-3.6337,-3.6053,-3.5587,-3.5522,-3.5774,-3.6207,-3.6252,-3.6626,-3.718,-3.7449,-3.7674,-3.8272,-3.8138,-3.8362,-3.8551,-3.8901,-3.902,-3.9059,-3.9011,-3.902,-3.913,-3.916,-3.8975,-3.8901,-3.8758,-3.8538,-3.7933,-3.739,-3.6963,-3.6558,-3.6372,-3.6286,-3.6307,-3.6243,-3.617,-3.6025,-3.5996,-3.604,-3.6083,-3.6098,-3.6112,-3.6199,-3.5996,-3.5546,-3.5328,-3.5247,-3.4936,-3.4574,-3.438,-3.438,-3.438,-3.4264,-3.343,-3.2434,-3.1145,-3.0216,-2.9934,-2.9779,-2.9779,-5.0575,-5.0092,-4.9829,-4.9539,-4.9311,-4.9047,-4.8907,-4.8766,-4.8099,-4.7345,-4.667,-4.6267,-4.6214,-4.6147,-4.6073,-4.5854,-4.5503,-4.5045,-4.4625,-4.4253,-4.3835,-4.3658,-4.3615,-4.3615,-4.3615,-4.3615,-4.3615,-4.3615,-4.3615,-4.3615,-4.3615,-4.3615,-4.3615,-4.3615,-4.3367,-4.2555,-4.196,-4.1375,-4.0498,-3.9846,-3.9381,-3.9315,-3.9315,-3.9315,-3.9315,-3.9315,-3.9315,-3.9315,-3.9315,-3.9272,-3.8871,-3.8451,-3.7924,-3.7399,-3.6845,-3.6101,-3.5814,-3.5748,-3.5537,-3.5549,-3.5804,-3.6267,-3.6596,-3.7015,-3.7853,-3.8033,-3.8437,-3.8826,-3.8736,-3.894,-3.9215,-3.9209,-3.9269,-3.9269,-3.9277,-3.9277,-3.9322,-3.9322,-3.9226,-3.9247,-3.9184,-3.9009,-3.8587,-3.8269,-3.786,-3.7481,-3.7285,-3.7113,-3.7098,-3.6939,-3.6823,-3.6577,-3.646,-3.6489,-3.6519,-3.646,-3.6504,-3.6577,-3.6228,-3.5691,-3.561,-3.5639,-3.5319,-3.4878,-3.4632,-3.438,-3.4264,-3.3977,-3.296,-3.1869,-3.0959,-3.0177,-2.9856,-2.9779,-2.9779,-4.9767,-4.9258,-4.9021,-4.8591,-4.817,-4.8135,-4.7969,-4.7653,-4.7204,-4.667,-4.6284,-4.6214,-4.6214,-4.6214,-4.6189,-4.5998,-4.558,-4.5098,-4.468,-4.4265,-4.3835,-4.3674,-4.3615,-4.3615,-4.3615,-4.3615,-4.3615,-4.3615,-4.3615,-4.3615,-4.3615,-4.3615,-4.3615,-4.3615,-4.33,-4.2622,-4.1839,-4.1193,-4.0448,-3.968,-3.9398,-3.9315,-3.9315,-3.9315,-3.9315,-3.9315,-3.9315,-3.9315,-3.9315,-3.9218,-3.8816,-3.8339,-3.7576,-3.6875,-3.6399,-3.5701,-3.5504,-3.5504,-3.5504,-3.5833,-3.6222,-3.6791,-3.6791,-3.7449,-3.8407,-3.8721,-3.8945,-3.9245,-3.9373,-3.9388,-3.9409,-3.9388,-3.9388,-3.9388,-3.9388,-3.9388,-3.9388,-3.9352,-3.9352,-3.9388,-3.9388,-3.9301,-3.9213,-3.9169,-3.8888,-3.8506,-3.8191,-3.8002,-3.7828,-3.7653,-3.7492,-3.7266,-3.7136,-3.7172,-3.7027,-3.6751,-3.6823,-3.6939,-3.6489,-3.5959,-3.5923,-3.5952,-3.561,-3.5189,-3.4719,-3.4346,-3.4113,-3.3604,-3.2875,-3.2182,-3.1439,-3.0696,-2.996,-2.9792,-2.9792,-4.8521,-4.8337,-4.7696,-4.7432,-4.7362,-4.7362,-4.6933,-4.6284,-4.6249,-4.6232,-4.6214,-4.6214,-4.6214,-4.6214,-4.6189,-4.5947,-4.5529,-4.5072,-4.4652,-4.4265,-4.3818,-4.3687,-4.3615,-4.3615,-4.3615,-4.3615,-4.3615,-4.3615,-4.3615,-4.3615,-4.3615,-4.3615,-4.3615,-4.3615,-4.3201,-4.2506,-4.1728,-4.1193,-4.0382,-3.9713,-3.9365,-3.9315,-3.9315,-3.9315,-3.9315,-3.9315,-3.9315,-3.9315,-3.9228,-3.8871,-3.8226,-3.7693,-3.7027,-3.6179,-3.5765,-3.5489,-3.5489,-3.5489,-3.5579,-3.5998,-3.6626,-3.7135,-3.7404,-3.8197,-3.8856,-3.9194,-3.9269,-3.9313,-3.9388,-3.9388,-3.9388,-3.9388,-3.9388,-3.9388,-3.9388,-3.9388,-3.9388,-3.9388,-3.9388,-3.9388,-3.9388,-3.9352,-3.9337,-3.9352,-3.9301,-3.9109,-3.8741,-3.8575,-3.8399,-3.8348,-3.8186,-3.8075,-3.7965,-3.7964,-3.7659,-3.6947,-3.6591,-3.6533,-3.6635,-3.6272,-3.6315,-3.6127,-3.5619,-3.516,-3.4661,-3.4346,-3.4196,-3.3707,-3.3052,-3.2349,-3.1476,-3.0945,-3.0139,-2.9869,-2.9867,-4.8205,-4.7696,-4.7485,-4.7064,-4.6565,-4.6547,-4.6389,-4.6214,-4.6214,-4.6214,-4.6214,-4.6214,-4.6172,-4.6189,-4.5905,-4.5709,-4.5328,-4.4872,-4.4502,-4.4121,-4.3789,-4.3658,-4.3615,-4.3615,-4.3615,-4.3582,-4.3582,-4.3565,-4.3565,-4.3582,-4.3615,-4.3615,-4.3615,-4.3615,-4.3284,-4.2638,-4.2009,-4.1293,-4.0442,-3.9829,-3.9415,-3.9315,-3.9315,-3.9315,-3.9315,-3.9315,-3.9315,-3.9245,-3.9077,-3.8507,-3.8266,-3.7764,-3.66,-3.629,-3.6053,-3.5522,-3.5489,-3.5504,-3.5624,-3.6118,-3.6731,-3.733,-3.7764,-3.8497,-3.9104,-3.9358,-3.9358,-3.9388,-3.9388,-3.9388,-3.9388,-3.9388,-3.9388,-3.9388,-3.9388,-3.9388,-3.9388,-3.9388,-3.9388,-3.9388,-3.9388,-3.9388,-3.9388,-3.9388,-3.9352,-3.9373,-3.9301,-3.9068,-3.887,-3.876,-3.8553,-3.8427,-3.8331,-3.8161,-3.7434,-3.6707,-3.6351,-3.6148,-3.6482,-3.662,-3.6388,-3.6112,-3.5625,-3.5096,-3.4646,-3.4457,-3.438,-3.3756,-3.2946,-3.2037,-3.1206,-3.0809,-3.0394,-3.0151,-3.0094,-4.7319,-4.6958,-4.6923,-4.666,-4.6267,-4.6214,-4.6214,-4.6214,-4.6214,-4.6214,-4.6214,-4.6214,-4.6105,-4.5947,-4.5701,-4.5424,-4.4998,-4.4603,-4.4224,-4.3889,-4.373,-4.3658,-4.3615,-4.3549,-4.3367,-4.335,-4.3367,-4.3416,-4.335,-4.3515,-4.3615,-4.3615,-4.3615,-4.3615,-4.3449,-4.3085,-4.2373,-4.1541,-4.0696,-4.0044,-3.9597,-3.9315,-3.9315,-3.9315,-3.9315,-3.9315,-3.9245,-3.9131,-3.8673,-3.8181,-3.8023,-3.7265,-3.6337,-3.6196,-3.5973,-3.5489,-3.5489,-3.5489,-3.5609,-3.6133,-3.6611,-3.715,-3.7868,-3.8482,-3.8901,-3.9185,-3.932,-3.9388,-3.9388,-3.9388,-3.9388,-3.9388,-3.9388,-3.9388,-3.9388,-3.9388,-3.9388,-3.9388,-3.9388,-3.9388,-3.9388,-3.9388,-3.9388,-3.9388,-3.9388,-3.9388,-3.9388,-3.9301,-3.9068,-3.887,-3.8612,-3.8404,-3.8294,-3.814,-3.7383,-3.6917,-3.6845,-3.6889,-3.7143,-3.7157,-3.6693,-3.6156,-3.5677,-3.5154,-3.4632,-3.4501,-3.438,-3.3534,-3.2684,-3.1965,-3.1368,-3.0897,-3.0662,-3.0482,-3.0539,-4.6232,-4.6232,-4.6214,-4.6249,-4.6214,-4.6214,-4.6214,-4.6214,-4.6214,-4.6214,-4.6214,-4.6147,-4.593,-4.5684,-4.5424,-4.4971,-4.4603,-4.4253,-4.3964,-4.3611,-4.3628,-4.3615,-4.3582,-4.3482,-4.3085,-4.292,-4.2853,-4.287,-4.282,-4.3035,-4.3383,-4.3582,-4.3615,-4.3615,-4.3565,-4.3499,-4.2738,-4.1524,-4.0845,-4.0233,-3.9564,-3.9315,-3.9315,-3.9315,-3.9315,-3.9272,-3.9148,-3.8772,-3.825,-3.7851,-3.728,-3.6538,-3.6133,-3.5878,-3.5587,-3.5522,-3.5489,-3.5489,-3.5654,-3.6133,-3.6402,-3.6941,-3.7629,-3.8242,-3.8691,-3.914,-3.9328,-3.9388,-3.9388,-3.9388,-3.9388,-3.9388,-3.9388,-3.9388,-3.9388,-3.9388,-3.9388,-3.9388,-3.9388,-3.9388,-3.9388,-3.9388,-3.9388,-3.9388,-3.9388,-3.9388,-3.9388,-3.9388,-3.9228,-3.9017,-3.8797,-3.8478,-3.842,-3.8318,-3.7834,-3.7514,-3.7629,-3.7738,-3.7694,-3.7375,-3.6693,-3.6214,-3.5793,-3.5256,-3.4733,-3.4516,-3.423,-3.3465,-3.2946,-3.2648,-3.2015,-3.1209,-3.0853,-3.0738,-3.0817,-4.6214,-4.6214,-4.6214,-4.6214,-4.6214,-4.6214,-4.6214,-4.6214,-4.6214,-4.6214,-4.6147,-4.5905,-4.5684,-4.5511,-4.4998,-4.4547,-4.4293,-4.3964,-4.373,-4.3628,-4.3615,-4.3615,-4.3466,-4.3102,-4.2704,-4.2423,-4.2274,-4.2158,-4.2423,-4.2721,-4.3085,-4.3515,-4.3582,-4.3615,-4.3615,-4.3598,-4.287,-4.1463,-4.116,-4.0382,-3.9464,-3.9315,-3.9315,-3.9315,-3.9315,-3.9315,-3.9094,-3.8645,-3.808,-3.7531,-3.686,-3.6258,-3.5733,-3.5587,-3.5489,-3.5489,-3.5489,-3.5489,-3.5654,-3.6028,-3.6342,-3.6821,-3.7479,-3.8063,-3.8601,-3.911,-3.9358,-3.9373,-3.9388,-3.9388,-3.9388,-3.9388,-3.9388,-3.9388,-3.9388,-3.9388,-3.9388,-3.9388,-3.9388,-3.9388,-3.9388,-3.9388,-3.9388,-3.9388,-3.9388,-3.9388,-3.9388,-3.9352,-3.9265,-3.9104,-3.9053,-3.8833,-3.8723,-3.8532,-3.8164,-3.7937,-3.7973,-3.7565,-3.7303,-3.6961,-3.6678,-3.638,-3.6052,-3.5407,-3.4913,-3.4719,-3.4374,-3.3638,-3.3241,-3.3008,-3.2305,-3.1354,-3.1203,-3.1118,-3.117,-4.6214,-4.6214,-4.6214,-4.6214,-4.6214,-4.6214,-4.6214,-4.6214,-4.6214,-4.6214,-4.6189,-4.5955,-4.5684,-4.5354,-4.4763,-4.4236,-4.4051,-4.3747,-4.3658,-4.3598,-4.3615,-4.3615,-4.33,-4.2804,-4.2307,-4.1972,-4.1375,-4.1309,-4.2005,-4.2469,-4.282,-4.3184,-4.335,-4.3582,-4.3598,-4.3499,-4.287,-4.1463,-4.1446,-4.0647,-3.9497,-3.9315,-3.9315,-3.9315,-3.9315,-3.9315,-3.8942,-3.8479,-3.7838,-3.7175,-3.6508,-3.5973,-3.5587,-3.5522,-3.5489,-3.5489,-3.5489,-3.5489,-3.5624,-3.5848,-3.6222,-3.6686,-3.7285,-3.7853,-3.8482,-3.8975,-3.9358,-3.9388,-3.9388,-3.9388,-3.9388,-3.9388,-3.9388,-3.9388,-3.9388,-3.9388,-3.9388,-3.9388,-3.9388,-3.9388,-3.9388,-3.9388,-3.9388,-3.9388,-3.9388,-3.9388,-3.9388,-3.9388,-3.9265,-3.9192,-3.9177,-3.9045,-3.8891,-3.8774,-3.851,-3.8282,-3.815,-3.7675,-3.7179,-3.7273,-3.7317,-3.6829,-3.6347,-3.5834,-3.5407,-3.5072,-3.4594,-3.407,-3.3352,-3.2987,-3.2213,-3.135,-3.1423,-3.1581,-3.163,-4.6214,-4.6214,-4.6214,-4.6214,-4.6214,-4.6214,-4.6214,-4.6214,-4.6214,-4.6214,-4.6214,-4.6189,-4.5684,-4.5152,-4.4773,-4.4231,-4.3831,-4.3658,-4.3615,-4.3615,-4.3615,-4.3433,-4.3085,-4.2622,-4.1839,-4.111,-4.0514,-4.0895,-4.1558,-4.1856,-4.2137,-4.2572,-4.3052,-4.3482,-4.3565,-4.3466,-4.292,-4.1943,-4.1397,-4.0696,-3.9951,-3.9348,-3.9315,-3.9315,-3.9315,-3.9315,-3.8914,-3.827,-3.7546,-3.6936,-3.6321,-3.5765,-3.5537,-3.5489,-3.5489,-3.5489,-3.5489,-3.5489,-3.5534,-3.5564,-3.5893,-3.6327,-3.7,-3.7659,-3.8302,-3.8856,-3.9224,-3.9388,-3.9388,-3.9388,-3.9388,-3.9388,-3.9388,-3.9388,-3.9388,-3.9388,-3.9388,-3.9388,-3.9388,-3.9388,-3.9388,-3.9388,-3.9388,-3.9388,-3.9388,-3.9388,-3.9388,-3.9388,-3.9388,-3.9301,-3.9286,-3.9065,-3.8858,-3.8758,-3.8701,-3.8524,-3.8319,-3.837,-3.804,-3.804,-3.7872,-3.736,-3.6887,-3.6482,-3.6054,-3.5619,-3.5253,-3.4809,-3.4062,-3.3422,-3.2863,-3.2326,-3.1992,-3.2121,-3.2166,-4.6214,-4.6214,-4.6214,-4.6214,-4.6214,-4.6214,-4.6214,-4.6214,-4.6214,-4.6214,-4.6189,-4.6122,-4.5735,-4.4882,-4.453,-4.4093,-4.3717,-4.3615,-4.3615,-4.3615,-4.3615,-4.3234,-4.2655,-4.2021,-4.0878,-4.0249,-3.9995,-4.0348,-4.1127,-4.1143,-4.1756,-4.3168,-4.2721,-4.3069,-4.3582,-4.3449,-4.3151,-4.2274,-4.1657,-4.1044,-4.0315,-3.9763,-3.9348,-3.9315,-3.9315,-3.9315,-3.8985,-3.8039,-3.756,-3.7011,-3.6274,-3.5668,-3.5489,-3.5489,-3.5489,-3.5489,-3.5489,-3.5489,-3.5489,-3.5489,-3.5774,-3.6013,-3.6701,-3.7479,-3.8153,-3.8886,-3.9179,-3.9373,-3.9388,-3.9388,-3.9388,-3.9388,-3.9388,-3.9388,-3.9388,-3.9388,-3.9388,-3.9388,-3.9388,-3.9388,-3.9388,-3.9388,-3.9388,-3.9388,-3.9388,-3.9388,-3.9388,-3.9388,-3.9388,-3.9388,-3.9373,-3.9158,-3.8877,-3.8756,-3.8708,-3.8545,-3.8435,-3.862,-3.8627,-3.8252,-3.7959,-3.7806,-3.739,-3.6954,-3.6591,-3.6199,-3.5804,-3.556,-3.5246,-3.4687,-3.4088,-3.356,-3.3087,-3.283,-3.2964]},{"header":{"parameterUnit":"m.s-1","parameterCategory":1,"la1":31.0,"la2":29.5877,"lo1":-88.7671,"lo2":-86.6584,"dy":0.0162,"dx":0.0185,"nx":115,"ny":88,"refTime":"2026-04-27T12:00:00:Z","depth":0,"parameterNumber":3,"parameterNumberName":"V-component_of_WINDS"},"data":[0.0,0.0,0.0,0.0,0.0,0.0,0.0,0.0,0.0,0.0,0.0,0.0,0.0,0.0,0.0,0.0,0.0,0.0,0.0,0.0,0.0,0.0,0.0,0.0,0.0,0.0,0.0,0.0,0.0,0.0,0.0,0.0,0.0,0.0,0.0,0.0,0.0,0.0,0.0,0.0,0.0,0.0,0.0,0.0,0.0,0.0,0.0,0.0,0.0,0.0,0.0,0.0,0.0,0.0,0.0,0.0,0.0,0.0,0.0,0.0,0.0,0.0,0.0,0.0,0.0,0.0,0.0,0.0,0.0,0.0,0.0,0.0,0.0,0.0,0.0,0.0,0.0,0.0,0.0,0.0,0.0,0.0,0.0,0.0,0.0,0.0,0.0,0.0,0.0,0.0,0.0,0.0,0.0,0.0,0.0,0.0,0.0,0.0,0.0,0.0,0.0,0.0,0.0,0.0,0.0,0.0,0.0,0.0,0.0,0.0,0.0,0.0,0.0,0.0,0.0,0.0,0.0,0.0,0.0,0.0,0.0,0.0,0.0,0.0,0.0,0.0,0.0,0.0,0.0,0.0,0.0,0.0,0.0,0.0,0.0,0.0,0.0,0.0,0.0,0.0,0.0,0.0,0.0,0.0,0.0,0.0,0.0,0.0,0.0,0.0,0.0,0.0,0.0,0.0,0.0,0.0,0.0,0.0,0.0,0.0,0.0,0.0,0.0,0.0,0.0,0.0,0.0,0.0,0.0,0.0,0.0,0.0,0.0,0.0,0.0,0.0,0.0,0.0,0.0,0.0,0.0,0.0,0.0,0.0,0.0,0.0,0.0,0.0,0.0,0.0,0.0,0.0,0.0,0.0,0.0,0.0,0.0,0.0,0.0,0.0,0.0,0.0,0.0,0.0,0.0,0.0,0.0,0.0,0.0,0.0,0.0,0.0,0.0,0.0,0.0,0.0,0.0,0.0,0.0,0.0,0.0,0.0,0.0,0.0,0.0,0.0,0.0,0.0,0.0,0.0,0.0,0.0,0.0,0.0,0.0,0.0,0.0,0.0,0.0,0.0,0.0,0.0,0.0,0.0,0.0,0.0,0.0,0.0,0.0,0.0,0.0,0.0,0.0,0.0,0.0,0.0,0.0,0.0,0.0,0.0,0.0,0.0,0.0,0.0,0.0,0.0,0.0,0.0,0.0,0.0,0.0,0.0,0.0,0.0,0.0,0.0,0.0,0.0,0.0,0.0,0.0,0.0,0.0,0.0,0.0,0.0,0.0,0.0,0.0,0.0,0.0,0.0,0.0,0.0,0.0,0.0,0.0,0.0,0.0,0.0,0.0,0.0,0.0,0.0,0.0,0.0,0.0,0.0,0.0,0.0,0.0,0.0,0.0,0.0,0.0,0.0,0.0,0.0,0.0,0.0,0.0,0.0,0.0,0.0,0.0,0.0,0.0,0.0,0.0,0.0,0.0,0.0,0.0,0.0,0.0,0.0,0.0,0.0,0.0,0.0,0.0,0.0,0.0,0.0,0.0,0.0,0.0,0.0,0.0,0.0,0.0,0.0,0.0,0.0,0.0,0.0,0.0,0.0,0.0,0.0,0.0,0.0,0.0,0.0,0.0,0.0,0.0,0.0,0.0,0.0,0.0,0.0,0.0,0.0,0.0,0.0,0.0,0.0,0.0,0.0,0.0,0.0,0.0,0.0,0.0,0.0,0.0,0.0,0.0,0.0,0.0,0.0,0.0,0.0,0.0,0.0,0.0,0.0,0.0,0.0,0.0,0.0,0.0,0.0,0.0,0.0,0.0,0.0,0.0,0.0,0.0,0.0,0.0,0.0,0.0,0.0,0.0,0.0,0.0,0.0,0.0,0.0,0.0,0.0,0.0,0.0,0.0,0.0,0.0,0.0,0.0,0.0,0.0,0.0,0.0,0.0,0.0,0.0,0.0,0.0,0.0,0.0,0.0,0.0,0.0,0.0,0.0,0.0,0.0,0.0,0.0,0.0,0.0,0.0,0.0,0.0,0.0,0.0,0.0,0.0,0.0,0.0,0.0,0.0,0.0,0.0,0.0,0.0,0.0,0.0,0.0,0.0,0.0,0.0,0.0,0.0,0.0,0.0,0.0,0.0,0.0,0.0,0.0,0.0,0.0,0.0,0.0,0.0,0.0,0.0,0.0,0.0,0.0,0.0,0.0,0.0,0.0,0.0,0.0,0.0,0.0,0.0,0.0,0.0,0.0,0.0,0.0,0.0,0.0,0.0,0.0,0.0,0.0,0.0,0.0,0.0,0.0,0.0,0.0,0.0,0.0,0.0,0.0,0.0,0.0,0.0,0.0,0.0,0.0,0.0,0.0,0.0,0.0,0.0,0.0,0.0,0.0,0.0,0.0,0.0,0.0,0.0,0.0,0.0,0.0,0.0,0.0,0.0,0.0,0.0,0.0,0.0,0.0,0.0,0.0,0.0,0.0,0.0,0.0,0.0,0.0,0.0,0.0,0.0,0.0,0.0,0.0,0.0,0.0,0.0,0.0,0.0,0.0,0.0,0.0,0.0,0.0,0.0,0.0,0.0,0.0,0.0,0.0,0.0,0.0,0.0,0.0,0.0,0.0,0.0,0.0,0.0,0.0,0.0,0.0,0.0,0.0,0.0,0.0,0.0,0.0,0.0,0.0,0.0,0.0,0.0,0.0,0.0,0.0,0.0,0.0,0.0,0.0,0.0,0.0,0.0,0.0,0.0,0.0,0.0,0.0,0.0,0.0,0.0,0.0,0.0,0.0,0.0,0.0,0.0,0.0,0.0,0.0,0.0,0.0,0.0,0.0,0.0,0.0,0.0,0.0,0.0,0.0,0.0,0.0,0.0,0.0,0.0,0.0,0.0,0.0,0.0,0.0,0.0,0.0,0.0,0.0,0.0,0.0,0.0,0.0,0.0,0.0,0.0,0.0,0.0,0.0,0.0,0.0,0.0,0.0,0.0,0.0,0.0,0.0,0.0,0.0,0.0,0.0,0.0,0.0,0.0,0.0,0.0,0.0,0.0,0.0,0.0,0.0,0.0,0.0,0.0,0.0,0.0,0.0,0.0,0.0,0.0,0.0,0.0,0.0,0.0,0.0,0.0,0.0,0.0,0.0,0.0,0.0,0.0,0.0,0.0,0.0,0.0,0.0,0.0,0.0,0.0,0.0,0.0,0.0,0.0,0.0,0.0,0.0,0.0,0.0,0.0,0.0,0.0,0.0,0.0,0.0,0.0,0.0,0.0,0.0,0.0,0.0,0.0,0.0,0.0,0.0,0.0,0.0,0.0,0.0,0.0,0.0,0.0,0.0,0.0,0.0,0.0,0.0,0.0,0.0,0.0,0.0,0.0,0.0,0.0,0.0,0.0,0.0,0.0,0.0,0.0,0.0,0.0,0.0,0.0,0.0,0.0,0.0,0.0,0.0,0.0,0.0,0.0,0.0,0.0,0.0,0.0,0.0,0.0,0.0,0.0,0.0,0.0,0.0,0.0,0.0,0.0,0.0,0.0,0.0,0.0,0.0,0.0,0.0,0.0,0.0,0.0,0.0,0.0,0.0,0.0,0.0,0.0,0.0,0.0,0.0,0.0,0.0,0.0,0.0,0.0,0.0,0.0,0.0,0.0,0.0,0.0,0.0,0.0,0.0,0.0,0.0,0.0,0.0,0.0,0.0,0.0,0.0,0.0,0.0,0.0,0.0,0.0,0.0,0.0,0.0,0.0,0.0,0.0,0.0,0.0,0.0,0.0,0.0,0.0,0.0,0.0,0.0,0.0,0.0,0.0,0.0,0.0,0.0,0.0,0.0,0.0,0.0,0.0,0.0,0.0,0.0,0.0,0.0,0.0,0.0,0.0,0.0,0.0,0.0,0.0,0.0,0.0,0.0,0.0,0.0,0.0,0.0,0.0,0.0,0.0,0.0,0.0,0.0,0.0,0.0,0.0,0.0,0.0,0.0,0.0,0.0,0.0,0.0,0.0,0.0,0.0,0.0,0.0,0.0,0.0,0.0,0.0,0.0,0.0,0.0,0.0,0.0,0.0,0.0,0.0,0.0,0.0,0.0,0.0,0.0,0.0,0.0,0.0,0.0,0.0,0.0,0.0,0.0,0.0,0.0,0.0,0.0,0.0,0.0,0.0,0.0,0.0,0.0,0.0,0.0,0.0,0.0,0.0,0.0,0.0,0.0,0.0,0.0,0.0,0.0,0.0,0.0,0.0,0.0,0.0,0.0,0.0,0.0,0.0,0.0,0.0,0.0,0.0,-1.9152,0.0,0.0,0.0,0.0,0.0,0.0,0.0,0.0,0.0,0.0,0.0,0.0,0.0,0.0,0.0,0.0,0.0,0.0,0.0,0.0,0.0,0.0,0.0,0.0,0.0,0.0,0.0,0.0,0.0,0.0,0.0,0.0,0.0,0.0,0.0,0.0,0.0,0.0,0.0,0.0,0.0,0.0,0.0,0.0,0.0,0.0,0.0,0.0,0.0,0.0,0.0,0.0,0.0,0.0,0.0,0.0,0.0,0.0,0.0,0.0,0.0,0.0,0.0,0.0,0.0,0.0,0.0,0.0,0.0,0.0,0.0,0.0,0.0,0.0,0.0,0.0,0.0,0.0,0.0,0.0,0.0,0.0,0.0,0.0,0.0,0.0,0.0,0.0,0.0,0.0,0.0,0.0,0.0,0.0,0.0,0.0,0.0,0.0,0.0,0.0,0.0,0.0,0.0,0.0,0.0,0.0,0.0,0.0,0.0,0.0,-1.9162,-1.9179,-1.9347,-1.9431,-1.9396,0.0,0.0,0.0,0.0,0.0,0.0,0.0,0.0,0.0,0.0,0.0,0.0,0.0,0.0,0.0,0.0,0.0,0.0,0.0,0.0,0.0,0.0,0.0,0.0,0.0,0.0,0.0,0.0,0.0,0.0,0.0,0.0,0.0,0.0,0.0,0.0,0.0,0.0,0.0,0.0,0.0,0.0,0.0,0.0,0.0,0.0,0.0,0.0,0.0,0.0,0.0,0.0,0.0,0.0,0.0,0.0,0.0,0.0,0.0,0.0,0.0,0.0,0.0,0.0,0.0,0.0,0.0,0.0,0.0,0.0,0.0,0.0,0.0,0.0,0.0,0.0,0.0,0.0,0.0,0.0,0.0,0.0,0.0,0.0,0.0,0.0,0.0,0.0,0.0,0.0,0.0,0.0,0.0,0.0,0.0,0.0,0.0,0.0,0.0,0.0,0.0,0.0,0.0,0.0,0.0,0.0,0.0,0.0,0.0,0.0,0.0,0.0,-2.0041,-2.0084,-1.9875,0.0,0.0,0.0,0.0,0.0,0.0,0.0,0.0,0.0,0.0,0.0,0.0,0.0,0.0,0.0,0.0,0.0,0.0,0.0,0.0,0.0,0.0,0.0,0.0,0.0,0.0,0.0,0.0,0.0,0.0,0.0,0.0,0.0,0.0,0.0,0.0,0.0,0.0,0.0,0.0,0.0,0.0,0.0,0.0,0.0,0.0,0.0,0.0,0.0,0.0,0.0,0.0,0.0,0.0,0.0,0.0,0.0,0.0,0.0,0.0,0.0,0.0,0.0,0.0,0.0,0.0,0.0,0.0,0.0,0.0,0.0,0.0,0.0,0.0,0.0,0.0,0.0,0.0,0.0,0.0,0.0,0.0,0.0,0.0,0.0,0.0,0.0,0.0,0.0,0.0,0.0,0.0,0.0,0.0,0.0,0.0,0.0,0.0,0.0,0.0,0.0,0.0,0.0,0.0,0.0,0.0,0.0,0.0,0.0,0.0,-2.0463,-2.1765,-2.2057,0.0,-2.1141,0.0,0.0,0.0,0.0,0.0,0.0,0.0,0.0,0.0,0.0,0.0,0.0,0.0,0.0,0.0,0.0,0.0,0.0,0.0,0.0,0.0,0.0,0.0,0.0,0.0,0.0,0.0,0.0,0.0,0.0,0.0,0.0,0.0,0.0,0.0,0.0,0.0,0.0,0.0,0.0,0.0,0.0,0.0,0.0,0.0,0.0,0.0,0.0,0.0,0.0,0.0,0.0,0.0,0.0,0.0,0.0,0.0,0.0,0.0,0.0,0.0,0.0,0.0,0.0,0.0,0.0,0.0,0.0,0.0,0.0,0.0,0.0,0.0,0.0,0.0,0.0,0.0,0.0,0.0,0.0,0.0,0.0,0.0,0.0,0.0,0.0,0.0,0.0,0.0,0.0,0.0,0.0,0.0,0.0,0.0,0.0,0.0,0.0,0.0,0.0,0.0,0.0,0.0,0.0,0.0,0.0,0.0,0.0,0.0,0.0,-2.093,-2.111,-2.1284,-2.1376,0.0,0.0,0.0,0.0,0.0,0.0,0.0,0.0,0.0,0.0,0.0,0.0,0.0,0.0,0.0,0.0,0.0,0.0,0.0,0.0,0.0,0.0,0.0,0.0,0.0,0.0,0.0,0.0,0.0,0.0,0.0,0.0,0.0,0.0,0.0,0.0,0.0,0.0,0.0,0.0,0.0,0.0,0.0,0.0,0.0,0.0,0.0,0.0,0.0,0.0,0.0,0.0,0.0,0.0,0.0,0.0,0.0,0.0,0.0,0.0,0.0,0.0,0.0,0.0,0.0,0.0,0.0,0.0,0.0,0.0,0.0,0.0,0.0,0.0,0.0,0.0,0.0,0.0,0.0,0.0,0.0,0.0,0.0,0.0,0.0,0.0,0.0,0.0,0.0,0.0,0.0,0.0,0.0,0.0,0.0,0.0,0.0,0.0,0.0,0.0,0.0,0.0,0.0,0.0,0.0,0.0,0.0,0.0,0.0,0.0,-2.093,0.0,-2.1503,-2.157,-2.1475,-2.1182,0.0,0.0,0.0,0.0,0.0,0.0,0.0,0.0,0.0,0.0,0.0,0.0,0.0,0.0,0.0,0.0,0.0,0.0,0.0,0.0,0.0,0.0,0.0,0.0,0.0,0.0,0.0,0.0,0.0,0.0,0.0,0.0,0.0,0.0,0.0,0.0,0.0,0.0,0.0,0.0,0.0,0.0,0.0,0.0,0.0,0.0,0.0,0.0,0.0,0.0,0.0,0.0,0.0,0.0,0.0,0.0,0.0,0.0,0.0,0.0,0.0,0.0,0.0,0.0,0.0,0.0,0.0,0.0,0.0,0.0,0.0,0.0,0.0,0.0,0.0,0.0,0.0,0.0,0.0,0.0,0.0,0.0,0.0,0.0,0.0,0.0,0.0,0.0,0.0,0.0,0.0,0.0,0.0,0.0,0.0,0.0,0.0,0.0,0.0,0.0,0.0,0.0,0.0,0.0,0.0,0.0,0.0,0.0,0.0,-2.2086,-2.2477,-2.402,-2.4114,-2.3036,0.0,0.0,0.0,0.0,0.0,0.0,0.0,0.0,0.0,0.0,0.0,0.0,0.0,0.0,0.0,0.0,0.0,0.0,0.0,0.0,0.0,0.0,0.0,0.0,0.0,0.0,0.0,0.0,0.0,0.0,0.0,0.0,0.0,0.0,0.0,0.0,0.0,0.0,0.0,0.0,0.0,0.0,0.0,0.0,0.0,0.0,0.0,0.0,0.0,0.0,0.0,0.0,0.0,0.0,0.0,0.0,0.0,0.0,0.0,0.0,0.0,0.0,0.0,0.0,0.0,0.0,0.0,0.0,0.0,0.0,0.0,0.0,0.0,0.0,0.0,0.0,0.0,0.0,0.0,0.0,0.0,0.0,0.0,0.0,0.0,0.0,0.0,0.0,0.0,0.0,0.0,0.0,0.0,0.0,0.0,0.0,0.0,0.0,0.0,0.0,0.0,0.0,0.0,0.0,0.0,0.0,0.0,0.0,0.0,-2.0305,-2.0319,-2.1823,-2.4895,-2.2298,-2.1158,0.0,0.0,0.0,0.0,0.0,0.0,0.0,0.0,0.0,0.0,0.0,0.0,0.0,0.0,0.0,0.0,0.0,0.0,0.0,0.0,0.0,0.0,0.0,0.0,0.0,0.0,0.0,0.0,0.0,0.0,0.0,0.0,0.0,0.0,0.0,0.0,0.0,0.0,0.0,0.0,0.0,0.0,0.0,0.0,0.0,0.0,0.0,0.0,0.0,0.0,0.0,0.0,0.0,0.0,0.0,0.0,0.0,0.0,0.0,0.0,0.0,0.0,0.0,0.0,0.0,0.0,0.0,0.0,0.0,0.0,0.0,0.0,0.0,0.0,0.0,0.0,0.0,0.0,0.0,0.0,0.0,0.0,0.0,0.0,0.0,0.0,0.0,0.0,0.0,0.0,0.0,0.0,0.0,0.0,0.0,0.0,0.0,0.0,0.0,0.0,0.0,0.0,0.0,0.0,0.0,0.0,0.0,0.0,0.0,-2.0204,0.0,-2.2552,0.0,-2.1857,-2.054,0.0,0.0,0.0,0.0,0.0,0.0,0.0,0.0,0.0,0.0,0.0,0.0,0.0,0.0,0.0,0.0,0.0,0.0,0.0,0.0,0.0,0.0,0.0,0.0,0.0,0.0,0.0,0.0,0.0,0.0,0.0,0.0,0.0,0.0,0.0,0.0,0.0,0.0,0.0,0.0,0.0,0.0,0.0,0.0,0.0,0.0,0.0,0.0,0.0,0.0,0.0,0.0,0.0,0.0,0.0,0.0,0.0,0.0,0.0,0.0,0.0,0.0,0.0,0.0,0.0,0.0,0.0,0.0,0.0,0.0,0.0,0.0,0.0,0.0,0.0,0.0,0.0,0.0,0.0,0.0,0.0,0.0,0.0,0.0,0.0,0.0,0.0,0.0,0.0,0.0,0.0,0.0,0.0,0.0,0.0,0.0,0.0,0.0,0.0,0.0,0.0,0.0,0.0,0.0,0.0,0.0,0.0,0.0,-2.0088,-2.2981,-2.453,-2.4612,-2.3489,-2.3256,-2.1443,0.0,0.0,0.0,0.0,0.0,0.0,0.0,0.0,0.0,0.0,0.0,0.0,0.0,0.0,0.0,0.0,0.0,0.0,0.0,0.0,0.0,0.0,0.0,0.0,0.0,0.0,0.0,0.0,0.0,0.0,0.0,0.0,0.0,0.0,0.0,0.0,0.0,0.0,0.0,0.0,0.0,0.0,0.0,0.0,0.0,0.0,0.0,0.0,0.0,0.0,0.0,0.0,0.0,0.0,0.0,0.0,0.0,0.0,0.0,0.0,0.0,0.0,0.0,0.0,0.0,0.0,0.0,0.0,0.0,0.0,0.0,0.0,0.0,0.0,0.0,0.0,0.0,0.0,0.0,0.0,0.0,0.0,0.0,0.0,0.0,0.0,0.0,0.0,0.0,0.0,0.0,0.0,0.0,0.0,0.0,0.0,0.0,0.0,0.0,0.0,0.0,0.0,0.0,0.0,0.0,0.0,0.0,0.0,0.0,-2.1236,-2.2704,-2.3974,-2.4808,-2.2196,-2.0974,0.0,0.0,0.0,0.0,0.0,0.0,0.0,0.0,0.0,0.0,0.0,0.0,0.0,0.0,0.0,0.0,0.0,0.0,0.0,0.0,0.0,0.0,0.0,0.0,0.0,0.0,0.0,0.0,0.0,0.0,0.0,0.0,0.0,0.0,0.0,0.0,0.0,0.0,0.0,0.0,0.0,0.0,0.0,0.0,0.0,0.0,0.0,0.0,0.0,0.0,0.0,0.0,0.0,0.0,0.0,0.0,0.0,0.0,0.0,0.0,0.0,0.0,0.0,0.0,0.0,0.0,0.0,0.0,0.0,0.0,0.0,0.0,0.0,0.0,0.0,0.0,0.0,0.0,0.0,0.0,0.0,0.0,0.0,0.0,0.0,0.0,0.0,0.0,0.0,0.0,0.0,0.0,0.0,0.0,0.0,0.0,0.0,0.0,0.0,0.0,0.0,0.0,0.0,0.0,0.0,0.0,0.0,0.0,0.0,-2.2396,-2.3981,-2.5149,-2.5763,-2.3123,-2.1768,-2.1883,0.0,0.0,0.0,0.0,0.0,0.0,0.0,0.0,0.0,0.0,0.0,0.0,0.0,0.0,0.0,0.0,0.0,0.0,0.0,0.0,0.0,0.0,0.0,0.0,0.0,0.0,0.0,0.0,0.0,0.0,0.0,0.0,0.0,0.0,0.0,0.0,0.0,0.0,0.0,0.0,0.0,0.0,0.0,0.0,0.0,0.0,0.0,0.0,0.0,0.0,0.0,0.0,0.0,0.0,0.0,0.0,0.0,0.0,0.0,0.0,0.0,0.0,0.0,0.0,0.0,0.0,0.0,0.0,0.0,0.0,0.0,0.0,0.0,0.0,0.0,0.0,0.0,0.0,0.0,0.0,0.0,0.0,0.0,0.0,0.0,0.0,0.0,0.0,0.0,0.0,0.0,0.0,0.0,0.0,0.0,0.0,0.0,0.0,0.0,0.0,0.0,0.0,0.0,0.0,0.0,0.0,0.0,0.0,-2.5853,-2.7839,-2.7985,-2.6301,-2.5678,-2.3628,0.0,0.0,0.0,0.0,0.0,0.0,0.0,0.0,0.0,0.0,0.0,0.0,0.0,0.0,0.0,0.0,0.0,0.0,0.0,0.0,0.0,0.0,0.0,0.0,0.0,0.0,0.0,0.0,0.0,0.0,0.0,0.0,0.0,0.0,0.0,0.0,0.0,0.0,0.0,0.0,0.0,0.0,0.0,0.0,0.0,0.0,0.0,0.0,0.0,0.0,0.0,0.0,0.0,0.0,0.0,0.0,0.0,0.0,0.0,0.0,0.0,0.0,0.0,0.0,0.0,0.0,0.0,0.0,0.0,0.0,0.0,0.0,0.0,0.0,0.0,0.0,0.0,0.0,0.0,0.0,0.0,0.0,0.0,0.0,0.0,0.0,0.0,0.0,0.0,0.0,0.0,0.0,0.0,0.0,0.0,0.0,0.0,0.0,0.0,0.0,0.0,0.0,0.0,0.0,0.0,0.0,0.0,0.0,0.0,-2.7874,-2.9894,-3.0514,-2.964,-2.7036,-2.5066,0.0,0.0,0.0,0.0,0.0,0.0,0.0,0.0,0.0,0.0,0.0,0.0,0.0,0.0,0.0,0.0,0.0,0.0,0.0,0.0,0.0,0.0,0.0,0.0,0.0,0.0,0.0,0.0,0.0,0.0,0.0,0.0,0.0,0.0,0.0,0.0,0.0,0.0,0.0,0.0,0.0,0.0,0.0,0.0,0.0,0.0,0.0,0.0,0.0,0.0,0.0,0.0,0.0,0.0,0.0,0.0,0.0,0.0,0.0,0.0,0.0,0.0,0.0,0.0,0.0,0.0,0.0,0.0,0.0,0.0,0.0,0.0,0.0,0.0,0.0,0.0,0.0,0.0,0.0,0.0,0.0,0.0,0.0,0.0,0.0,0.0,0.0,0.0,0.0,0.0,0.0,0.0,0.0,0.0,0.0,0.0,0.0,0.0,0.0,0.0,0.0,0.0,0.0,0.0,0.0,0.0,0.0,0.0,-2.6473,-2.8987,-3.1008,-3.203,-3.1961,-2.9323,-2.6872,0.0,0.0,0.0,0.0,0.0,0.0,0.0,0.0,0.0,0.0,0.0,0.0,0.0,0.0,0.0,0.0,0.0,0.0,0.0,0.0,0.0,0.0,0.0,0.0,0.0,0.0,0.0,0.0,0.0,0.0,0.0,0.0,0.0,0.0,0.0,0.0,0.0,0.0,0.0,0.0,0.0,0.0,0.0,0.0,0.0,0.0,0.0,0.0,0.0,0.0,0.0,0.0,0.0,0.0,0.0,0.0,0.0,0.0,0.0,0.0,0.0,0.0,0.0,0.0,0.0,0.0,0.0,0.0,0.0,0.0,0.0,0.0,0.0,0.0,0.0,0.0,0.0,0.0,0.0,0.0,0.0,0.0,0.0,0.0,0.0,0.0,0.0,0.0,0.0,0.0,0.0,0.0,0.0,0.0,0.0,0.0,0.0,0.0,0.0,0.0,0.0,0.0,0.0,0.0,0.0,0.0,0.0,0.0,-2.7128,-2.9527,-3.1525,-3.2764,-3.317,-3.1635,-2.8684,0.0,0.0,0.0,0.0,0.0,0.0,0.0,0.0,0.0,0.0,0.0,0.0,0.0,0.0,0.0,0.0,0.0,0.0,0.0,0.0,0.0,0.0,0.0,0.0,0.0,0.0,0.0,0.0,0.0,0.0,0.0,0.0,0.0,0.0,0.0,0.0,0.0,0.0,0.0,0.0,0.0,0.0,0.0,0.0,0.0,0.0,0.0,0.0,0.0,0.0,0.0,0.0,0.0,0.0,0.0,0.0,0.0,0.0,0.0,0.0,0.0,0.0,0.0,0.0,0.0,0.0,0.0,0.0,0.0,0.0,0.0,0.0,0.0,0.0,0.0,0.0,0.0,0.0,0.0,0.0,0.0,0.0,0.0,0.0,0.0,0.0,0.0,0.0,0.0,0.0,0.0,0.0,0.0,0.0,0.0,0.0,0.0,0.0,0.0,0.0,0.0,0.0,0.0,0.0,0.0,0.0,0.0,0.0,-2.8333,-3.0044,-3.2064,-3.2971,-3.2661,-3.0802,-2.8618,0.0,0.0,0.0,0.0,0.0,0.0,0.0,0.0,0.0,0.0,0.0,0.0,0.0,0.0,0.0,0.0,0.0,0.0,0.0,0.0,0.0,0.0,0.0,0.0,0.0,0.0,0.0,0.0,0.0,0.0,0.0,0.0,0.0,0.0,0.0,0.0,0.0,0.0,0.0,0.0,0.0,0.0,0.0,0.0,0.0,0.0,0.0,0.0,-2.5297,0.0,0.0,0.0,0.0,0.0,0.0,0.0,0.0,0.0,0.0,0.0,0.0,0.0,0.0,0.0,0.0,0.0,0.0,0.0,0.0,0.0,0.0,0.0,0.0,0.0,0.0,0.0,0.0,0.0,0.0,0.0,0.0,0.0,0.0,0.0,0.0,0.0,0.0,0.0,0.0,0.0,0.0,0.0,0.0,0.0,0.0,0.0,0.0,0.0,0.0,0.0,0.0,0.0,0.0,0.0,0.0,0.0,0.0,0.0,-2.9056,-3.0572,-3.2351,-3.3155,-3.281,-3.1134,-2.9077,0.0,0.0,0.0,0.0,0.0,0.0,0.0,0.0,0.0,0.0,0.0,0.0,0.0,0.0,0.0,0.0,0.0,0.0,0.0,0.0,0.0,0.0,0.0,0.0,0.0,0.0,0.0,0.0,0.0,0.0,0.0,0.0,0.0,0.0,0.0,0.0,0.0,0.0,0.0,0.0,0.0,0.0,0.0,0.0,0.0,0.0,0.0,0.0,0.0,0.0,0.0,0.0,0.0,0.0,0.0,0.0,0.0,0.0,0.0,0.0,0.0,0.0,0.0,0.0,0.0,0.0,0.0,0.0,0.0,0.0,0.0,0.0,0.0,0.0,0.0,0.0,0.0,0.0,0.0,0.0,0.0,0.0,0.0,0.0,0.0,0.0,0.0,0.0,0.0,0.0,0.0,0.0,0.0,0.0,0.0,0.0,0.0,0.0,0.0,0.0,0.0,0.0,0.0,0.0,0.0,0.0,0.0,-2.7013,-2.9332,-3.11,-3.2546,-3.3247,-3.3143,-3.1766,-2.9629,-2.6764,0.0,0.0,0.0,0.0,0.0,0.0,0.0,0.0,0.0,0.0,0.0,0.0,0.0,0.0,0.0,0.0,0.0,0.0,0.0,0.0,0.0,0.0,0.0,0.0,0.0,0.0,0.0,0.0,0.0,0.0,0.0,0.0,0.0,0.0,0.0,0.0,0.0,0.0,-2.3052,-2.4517,0.0,0.0,0.0,0.0,0.0,0.0,0.0,0.0,-2.5963,0.0,0.0,0.0,0.0,0.0,0.0,0.0,0.0,0.0,0.0,0.0,0.0,0.0,0.0,0.0,0.0,0.0,0.0,0.0,0.0,0.0,0.0,0.0,0.0,0.0,0.0,0.0,0.0,0.0,0.0,0.0,0.0,0.0,0.0,0.0,0.0,0.0,0.0,0.0,0.0,0.0,0.0,0.0,0.0,0.0,0.0,0.0,0.0,0.0,0.0,0.0,0.0,0.0,0.0,0.0,0.0,-2.5977,-2.6967,-2.8827,-3.1618,-3.2718,-3.3074,-3.2615,-3.1582,-2.9584,-2.6679,0.0,0.0,0.0,0.0,0.0,0.0,0.0,0.0,0.0,0.0,0.0,0.0,0.0,0.0,0.0,0.0,0.0,0.0,0.0,0.0,0.0,0.0,0.0,0.0,0.0,0.0,0.0,0.0,0.0,0.0,0.0,0.0,0.0,0.0,0.0,0.0,0.0,0.0,0.0,-2.734,-2.7949,0.0,0.0,0.0,0.0,0.0,0.0,0.0,0.0,-2.6517,0.0,0.0,0.0,0.0,0.0,0.0,0.0,0.0,0.0,0.0,0.0,0.0,0.0,0.0,0.0,0.0,0.0,0.0,0.0,0.0,0.0,0.0,0.0,0.0,0.0,0.0,0.0,0.0,0.0,0.0,0.0,0.0,0.0,0.0,0.0,0.0,0.0,0.0,0.0,0.0,0.0,0.0,0.0,0.0,0.0,0.0,0.0,0.0,0.0,0.0,0.0,0.0,0.0,0.0,0.0,-2.5268,-2.7862,-3.0032,-3.1767,-3.2802,-3.3028,-3.2477,-3.1019,-2.9045,0.0,0.0,0.0,0.0,0.0,0.0,0.0,0.0,0.0,0.0,0.0,0.0,0.0,0.0,0.0,0.0,0.0,0.0,0.0,0.0,0.0,0.0,0.0,0.0,0.0,0.0,0.0,0.0,0.0,0.0,0.0,0.0,0.0,0.0,0.0,0.0,0.0,0.0,0.0,0.0,-2.802,-2.8712,-2.9601,0.0,0.0,0.0,0.0,0.0,0.0,-2.7497,-2.7314,0.0,0.0,0.0,0.0,0.0,0.0,0.0,0.0,0.0,0.0,0.0,0.0,0.0,0.0,0.0,0.0,0.0,0.0,0.0,0.0,0.0,0.0,0.0,0.0,0.0,0.0,0.0,0.0,0.0,0.0,0.0,0.0,0.0,0.0,0.0,0.0,0.0,0.0,0.0,0.0,0.0,0.0,0.0,0.0,0.0,0.0,0.0,0.0,0.0,0.0,0.0,0.0,0.0,0.0,0.0,-2.4303,-2.8287,-3.0801,-3.1605,-3.25,-3.273,-3.2179,-3.0445,-2.8448,0.0,0.0,0.0,0.0,0.0,0.0,0.0,0.0,0.0,0.0,0.0,0.0,0.0,0.0,0.0,0.0,0.0,0.0,0.0,0.0,0.0,0.0,0.0,0.0,0.0,0.0,0.0,0.0,0.0,0.0,0.0,0.0,0.0,0.0,0.0,0.0,0.0,0.0,0.0,0.0,0.0,-2.9702,-3.0803,-2.9784,0.0,0.0,0.0,0.0,-2.8325,-2.8974,0.0,0.0,0.0,0.0,0.0,0.0,0.0,0.0,0.0,0.0,0.0,0.0,0.0,0.0,0.0,0.0,0.0,0.0,0.0,0.0,0.0,0.0,0.0,0.0,0.0,0.0,0.0,0.0,0.0,0.0,0.0,0.0,0.0,0.0,0.0,0.0,0.0,0.0,0.0,0.0,0.0,0.0,0.0,0.0,0.0,0.0,0.0,0.0,0.0,0.0,0.0,0.0,0.0,0.0,0.0,0.0,-2.42,-2.6921,-2.9228,-3.1019,-3.1698,-3.1708,-3.1192,-3.0089,-2.8115,0.0,0.0,0.0,0.0,0.0,0.0,0.0,0.0,0.0,0.0,0.0,0.0,0.0,0.0,0.0,0.0,0.0,0.0,0.0,0.0,0.0,0.0,0.0,0.0,0.0,0.0,0.0,0.0,0.0,0.0,0.0,0.0,0.0,0.0,0.0,0.0,0.0,0.0,0.0,0.0,0.0,-3.1888,-3.1129,-3.0803,-3.049,0.0,0.0,-3.0153,-3.1158,-3.2267,0.0,0.0,0.0,0.0,0.0,0.0,0.0,0.0,0.0,0.0,0.0,0.0,0.0,0.0,0.0,0.0,0.0,0.0,0.0,0.0,0.0,0.0,0.0,0.0,0.0,0.0,0.0,0.0,0.0,0.0,0.0,0.0,0.0,0.0,0.0,0.0,0.0,0.0,0.0,0.0,0.0,0.0,0.0,0.0,0.0,0.0,0.0,0.0,0.0,0.0,0.0,0.0,0.0,0.0,0.0,-2.2777,-2.4269,-2.7828,-3.0135,-3.0985,-3.1513,-3.1525,-3.1019,-2.9194,-2.7174,0.0,0.0,0.0,0.0,0.0,0.0,0.0,0.0,0.0,0.0,0.0,0.0,0.0,0.0,0.0,0.0,0.0,0.0,0.0,0.0,0.0,0.0,0.0,0.0,0.0,0.0,0.0,0.0,0.0,0.0,0.0,0.0,0.0,0.0,0.0,0.0,0.0,0.0,0.0,0.0,0.0,0.0,-3.1927,-3.2502,0.0,0.0,0.0,-3.2136,-3.2306,0.0,0.0,0.0,0.0,0.0,0.0,0.0,0.0,0.0,0.0,0.0,0.0,0.0,0.0,0.0,0.0,0.0,0.0,0.0,0.0,0.0,0.0,0.0,0.0,0.0,0.0,0.0,0.0,0.0,0.0,0.0,0.0,0.0,0.0,0.0,0.0,0.0,0.0,0.0,0.0,0.0,0.0,0.0,0.0,0.0,0.0,0.0,0.0,0.0,0.0,0.0,0.0,0.0,0.0,0.0,0.0,0.0,-2.4258,-2.8563,-3.0824,-3.0824,-3.1192,-3.1203,-3.079,-2.8669,0.0,0.0,0.0,0.0,0.0,0.0,0.0,0.0,0.0,0.0,0.0,0.0,0.0,0.0,0.0,0.0,0.0,0.0,0.0,0.0,0.0,0.0,0.0,0.0,0.0,0.0,0.0,-1.7434,0.0,0.0,0.0,0.0,0.0,0.0,0.0,0.0,0.0,0.0,0.0,0.0,0.0,0.0,-3.194,-3.2803,-3.4005,-3.4737,0.0,0.0,-3.3731,-3.3574,-3.4306,-3.3705,0.0,0.0,0.0,0.0,0.0,0.0,0.0,0.0,0.0,0.0,0.0,0.0,0.0,0.0,0.0,0.0,0.0,0.0,0.0,0.0,0.0,0.0,0.0,0.0,0.0,0.0,0.0,0.0,0.0,0.0,0.0,0.0,0.0,0.0,0.0,0.0,0.0,0.0,0.0,0.0,0.0,0.0,0.0,0.0,0.0,0.0,0.0,0.0,0.0,0.0,0.0,0.0,0.0,0.0,0.0,-2.4292,-2.8207,-3.0273,-3.0273,-3.0308,-3.0262,-3.025,-2.9183,-2.7231,0.0,0.0,0.0,0.0,0.0,0.0,0.0,0.0,0.0,0.0,0.0,0.0,0.0,0.0,0.0,0.0,0.0,0.0,0.0,0.0,0.0,0.0,0.0,0.0,0.0,0.0,0.0,0.0,0.0,0.0,0.0,0.0,0.0,0.0,0.0,0.0,0.0,0.0,0.0,0.0,0.0,-3.3443,-3.3522,-3.4933,-3.6175,0.0,0.0,-3.4698,-3.5717,-3.7246,-3.6658,-3.1679,0.0,0.0,0.0,0.0,0.0,0.0,0.0,0.0,0.0,0.0,0.0,0.0,0.0,0.0,0.0,0.0,0.0,0.0,0.0,0.0,0.0,0.0,0.0,0.0,0.0,0.0,0.0,0.0,0.0,0.0,0.0,0.0,0.0,0.0,0.0,0.0,0.0,0.0,0.0,0.0,0.0,0.0,0.0,0.0,0.0,0.0,0.0,0.0,0.0,0.0,0.0,0.0,0.0,-2.2868,-2.4212,-2.7874,-2.9917,-3.0204,-3.0216,-3.0216,-3.0216,-2.8941,-2.7116,0.0,0.0,0.0,0.0,0.0,0.0,0.0,0.0,0.0,0.0,0.0,0.0,0.0,0.0,0.0,0.0,0.0,0.0,0.0,0.0,0.0,0.0,0.0,0.0,0.0,0.0,0.0,0.0,-1.9995,-2.0231,-2.0347,0.0,0.0,0.0,0.0,0.0,0.0,0.0,0.0,0.0,0.0,-3.3025,-3.4437,-3.5796,0.0,0.0,-3.6658,-3.6149,-3.658,-3.6305,-3.5025,-3.1954,-2.98,0.0,0.0,0.0,0.0,0.0,0.0,0.0,0.0,0.0,0.0,0.0,0.0,0.0,0.0,0.0,0.0,0.0,0.0,0.0,0.0,0.0,0.0,0.0,0.0,0.0,0.0,0.0,0.0,0.0,0.0,0.0,0.0,0.0,0.0,0.0,0.0,0.0,0.0,0.0,0.0,0.0,0.0,0.0,0.0,0.0,0.0,0.0,0.0,0.0,0.0,0.0,0.0,-2.2823,-2.42,-2.769,-2.9722,-3.0159,-3.0216,-3.0216,-3.0181,-2.8907,-2.7242,0.0,0.0,0.0,0.0,0.0,0.0,0.0,0.0,0.0,0.0,0.0,0.0,0.0,0.0,0.0,0.0,0.0,0.0,0.0,0.0,0.0,0.0,0.0,0.0,0.0,0.0,0.0,0.0,-2.0767,-2.078,-2.0216,0.0,0.0,0.0,0.0,0.0,0.0,0.0,0.0,0.0,0.0,-3.3037,-3.5025,-3.6279,-3.7168,-3.7573,-3.6828,-3.6227,-3.6227,-3.5338,-3.3914,-3.1654,0.0,0.0,0.0,0.0,0.0,0.0,0.0,0.0,0.0,0.0,0.0,0.0,0.0,0.0,0.0,0.0,0.0,0.0,0.0,0.0,0.0,0.0,0.0,0.0,0.0,0.0,0.0,0.0,0.0,0.0,-1.6169,0.0,0.0,0.0,0.0,0.0,0.0,0.0,0.0,0.0,0.0,0.0,0.0,0.0,0.0,0.0,0.0,0.0,0.0,0.0,0.0,0.0,0.0,-2.3155,-2.4223,-2.769,-2.9722,-3.0204,-3.0216,-3.0216,-3.0193,-2.9217,-2.7736,-2.5704,0.0,0.0,0.0,0.0,0.0,0.0,0.0,0.0,0.0,0.0,0.0,0.0,0.0,0.0,0.0,0.0,0.0,0.0,0.0,0.0,0.0,0.0,0.0,0.0,0.0,0.0,-1.9799,-1.9839,-1.963,0.0,0.0,0.0,0.0,0.0,0.0,0.0,0.0,0.0,0.0,-3.0999,-3.3966,-3.5142,-3.6279,-3.6998,-3.705,-3.5613,-3.4489,-3.4541,-3.4907,-3.411,0.0,0.0,0.0,0.0,0.0,0.0,0.0,0.0,0.0,0.0,0.0,0.0,0.0,0.0,0.0,0.0,0.0,0.0,0.0,0.0,0.0,0.0,0.0,0.0,0.0,0.0,0.0,-1.7559,-1.6707,0.0,0.0,0.0,0.0,0.0,0.0,0.0,0.0,0.0,0.0,0.0,-2.474,-2.5727,0.0,0.0,0.0,0.0,0.0,0.0,0.0,0.0,0.0,0.0,0.0,0.0,-2.3006,-2.4717,-2.7506,-2.9366,-3.0181,-3.0216,-3.0216,-3.0216,-2.9228,-2.7449,-2.4774,0.0,0.0,0.0,0.0,0.0,0.0,0.0,0.0,0.0,0.0,0.0,0.0,0.0,0.0,0.0,0.0,0.0,0.0,0.0,0.0,0.0,0.0,0.0,0.0,0.0,-2.057,0.0,0.0,0.0,0.0,0.0,0.0,0.0,0.0,0.0,0.0,0.0,-2.5863,-2.836,-3.1182,-3.3548,-3.5077,-3.594,-3.6684,0.0,0.0,0.0,0.0,0.0,0.0,0.0,0.0,0.0,0.0,0.0,0.0,0.0,0.0,-2.9418,-2.6341,-2.548,-2.5432,-2.6026,0.0,0.0,0.0,0.0,0.0,0.0,0.0,0.0,0.0,0.0,0.0,0.0,0.0,0.0,-1.9356,0.0,-1.8667,0.0,0.0,0.0,0.0,0.0,0.0,0.0,0.0,-2.6175,-2.7024,-2.707,-2.7862,-2.7449,0.0,-2.6026,-2.4395,0.0,0.0,0.0,0.0,0.0,0.0,0.0,0.0,-2.3534,-2.5222,-2.769,-2.9378,-3.017,-3.0216,-3.0216,-3.0193,-2.9068,-2.7277,-2.4809,-2.2937,-2.1342,0.0,0.0,0.0,0.0,0.0,0.0,0.0,0.0,0.0,0.0,0.0,0.0,0.0,0.0,0.0,0.0,0.0,0.0,0.0,0.0,0.0,0.0,0.0,-2.1446,0.0,0.0,0.0,0.0,0.0,0.0,0.0,0.0,0.0,-2.3532,-2.5576,-2.7876,-3.0163,-3.2097,-3.3705,-3.4829,0.0,0.0,0.0,0.0,0.0,0.0,0.0,-3.2672,-3.2698,-3.1967,-3.1418,-3.1561,-3.2215,-3.2489,-3.1718,0.0,0.0,-2.8795,-2.7889,-2.7785,-2.836,-2.8752,-2.917,-2.9771,-3.0296,-3.0645,0.0,0.0,0.0,0.0,0.0,0.0,0.0,0.0,-2.0879,-2.0879,0.0,-2.0999,0.0,0.0,0.0,0.0,0.0,-2.534,0.0,0.0,-2.8758,-2.9504,-2.9458,-2.901,-2.8528,-2.8126,-2.8964,-2.8138,-2.5658,-2.2352,0.0,0.0,0.0,0.0,0.0,0.0,-2.474,-2.5796,-2.8218,-2.9722,-3.0193,-3.0216,-3.0204,-3.0112,-2.8769,-2.73,-2.5773,-2.4267,-2.2548,-2.0595,-1.9017,0.0,0.0,0.0,0.0,0.0,0.0,0.0,0.0,0.0,0.0,0.0,0.0,0.0,0.0,0.0,0.0,0.0,0.0,0.0,0.0,-2.0832,0.0,0.0,0.0,0.0,0.0,0.0,0.0,0.0,0.0,0.0,-2.6004,-2.7928,-3.015,-3.2359,0.0,0.0,0.0,0.0,-3.5116,-3.4593,-3.4031,-3.3535,-3.2999,-3.3731,-3.4018,-3.2999,0.0,0.0,-3.3091,-3.3718,-3.4097,-3.3025,-3.3731,-3.4097,-3.296,-3.1757,-3.1235,-3.1667,-3.104,-3.091,-3.2385,-3.2993,-3.3536,-2.4565,0.0,0.0,0.0,0.0,-2.2584,-2.3235,-2.4143,-2.4033,-2.3391,-2.2465,-2.35,0.0,0.0,0.0,0.0,0.0,0.0,-2.7816,-2.8333,-2.947,-3.0009,-3.0021,-3.025,-3.0078,-2.9584,-2.9515,-2.893,-2.7816,-2.6473,-2.412,-2.0885,0.0,0.0,0.0,0.0,-2.5784,-2.68,-2.8574,-2.9722,-3.0159,-3.0216,-2.9871,-2.916,-2.8723,-2.7782,-2.6341,-2.5486,-2.4256,-2.2605,-2.0736,0.0,0.0,0.0,0.0,0.0,0.0,0.0,0.0,0.0,0.0,0.0,0.0,0.0,0.0,0.0,0.0,0.0,0.0,0.0,-2.0268,-2.0726,-2.1001,0.0,0.0,0.0,0.0,0.0,0.0,0.0,0.0,0.0,-2.935,-3.0072,-3.1039,0.0,0.0,-3.3822,-3.3822,-3.4659,-3.5365,-3.5574,0.0,0.0,0.0,-3.4999,-3.4567,-3.5051,-3.5547,-3.5704,-3.5221,-3.5391,-3.5508,-3.5155,-3.5391,-3.5495,-3.5168,-3.4201,-3.3522,-3.3613,-3.3718,-3.4071,-3.4923,-3.5213,-3.5592,-2.6615,-2.463,-2.4094,-2.4134,-2.451,-2.4684,-2.5252,-2.6131,-2.5922,-2.539,-2.4711,-2.5996,-2.5235,-2.3113,-2.4889,0.0,0.0,0.0,-2.955,-3.0216,-3.0641,-3.0939,-3.11,-3.1054,-3.0847,-3.0503,-3.0021,-2.9607,-2.9297,-2.8804,-2.7162,-2.4407,0.0,0.0,-2.3787,-2.5647,-2.7001,-2.7828,-2.9114,-2.9929,-3.0204,-3.0216,-2.9837,-2.9045,-2.8815,-2.8184,-2.7105,-2.6381,-2.5394,-2.4038,-2.2294,-2.0588,0.0,0.0,0.0,0.0,0.0,0.0,0.0,0.0,0.0,0.0,0.0,-1.6428,-1.4982,0.0,0.0,0.0,-1.8649,-2.0414,-2.1917,-2.2467,0.0,0.0,0.0,0.0,0.0,0.0,0.0,-2.7184,-2.8773,-3.0253,-3.1524,-3.1875,-3.2398,-3.3247,-3.3692,-3.3914,-3.3914,0.0,-3.5064,-3.5378,-3.543,-3.5547,-3.59,-3.5299,-3.5064,-3.5966,-3.6109,-3.6109,-3.6109,-3.6109,-3.6109,-3.6109,-3.6109,-3.6109,-3.6109,-3.5534,-3.5077,-3.5077,-3.5365,-3.5913,-3.6813,-3.7297,-3.7853,-2.7913,-2.7381,-2.6145,-2.5814,-2.6133,-2.6463,-2.6829,-2.7187,-2.6839,-2.6848,-2.7197,-2.8199,-2.7904,-2.6844,-2.7942,0.0,-3.0422,-3.095,-3.1639,-3.2466,-3.2066,-3.2089,-3.2386,-3.1456,-3.1019,-3.095,-3.0468,-3.0216,-3.0136,-2.9768,-2.9079,-2.8149,-2.7226,-2.6662,-2.657,-2.7506,-2.8264,-2.87,-2.9619,-3.0112,-3.0158,-3.0124,-2.9883,-2.9424,-2.8884,-2.8344,-2.7862,-2.6921,-2.5984,-2.4935,-2.3534,-2.201,-2.0388,0.0,0.0,0.0,0.0,0.0,0.0,0.0,0.0,0.0,0.0,0.0,0.0,0.0,0.0,0.0,-2.1211,0.0,-2.4086,-2.5132,0.0,0.0,0.0,-2.5811,-2.545,-2.7293,-2.8643,-2.8643,0.0,0.0,-3.2724,0.0,-3.3835,-3.4332,-3.4397,-3.4397,-3.4397,-3.445,-3.4463,-3.4567,-3.4554,-3.4567,-3.4842,-3.5103,-3.5521,-3.6018,-3.6109,-3.6109,-3.6109,-3.6109,-3.6109,-3.6109,-3.6109,-3.6109,-3.6109,-3.6057,-3.6109,-3.6044,-3.6053,-3.6485,-3.7695,-3.851,-3.9424,-2.8951,-2.8312,-2.7961,-2.7544,-2.6959,-2.6814,-2.7083,-2.7609,-2.73,-2.6982,-2.6838,-2.8159,-2.9101,-2.975,-3.0079,-3.0838,-3.1972,-3.25,-3.2638,-3.2538,-3.2363,-3.2227,-3.1963,-3.1306,-3.1019,-3.0973,-3.0468,-3.0216,-3.0216,-3.0112,-2.9929,-2.9665,-2.9068,-2.8,-2.6616,-2.7881,-2.8586,-2.8689,-2.8941,-2.9263,-2.9642,-2.9274,-2.8999,-2.8896,-2.8035,-2.7334,-2.6869,-2.6221,-2.5589,-2.4935,-2.382,-2.273,-2.1562,-2.0039,0.0,0.0,0.0,0.0,0.0,0.0,0.0,0.0,0.0,-1.9643,-1.7199,0.0,-2.0595,0.0,-2.2582,-2.4008,-2.4717,-2.5044,0.0,0.0,-2.7007,-2.7568,-2.8743,-2.9773,-3.0533,-3.0959,-3.229,-3.3217,-3.3364,-3.3862,-3.4241,-3.4384,-3.4397,-3.4397,-3.441,-3.4803,-3.5077,-3.509,-3.5365,-3.5704,-3.5626,-3.5809,-3.5913,-3.6096,-3.6096,-3.6109,-3.6096,-3.6109,-3.6109,-3.6109,-3.6109,-3.6109,-3.6096,-3.6109,-3.6096,-3.6123,-3.6108,-3.6168,-3.6582,-3.6893,-3.7629,-2.8988,-2.8437,-2.8201,-2.7885,-2.7431,-2.749,-2.7782,-2.8064,-2.7718,-2.7516,-2.7492,-2.89,-3.0412,-3.189,-3.1917,-3.2277,-3.2856,-3.3155,-3.312,-3.2845,-3.2845,-3.2707,-3.242,-3.1674,-3.1341,-3.1329,-3.0572,-3.0216,-3.0216,-3.0216,-3.0216,-3.0204,-2.9952,-2.9033,-2.7564,-2.8287,-2.8689,-2.8689,-2.8689,-2.8838,-2.9114,-2.885,-2.8482,-2.8015,-2.7736,-2.7105,-2.6163,-2.6083,-2.5601,-2.4648,-2.4038,-2.3167,-2.1952,-2.0931,-1.9978,0.0,0.0,0.0,0.0,0.0,0.0,0.0,0.0,0.0,0.0,0.0,-2.2531,-2.3354,-2.4543,-2.5694,-2.6811,-2.7373,-2.8033,-2.8974,-2.9523,-3.0124,-3.0792,-3.1621,-3.2276,-3.2555,-3.3385,-3.397,-3.3979,-3.4214,-3.4397,-3.4397,-3.4397,-3.4397,-3.4424,-3.4698,-3.4894,-3.4907,-3.5155,-3.5351,-3.5338,-3.5338,-3.5338,-3.5338,-3.5351,-3.5351,-3.5338,-3.5338,-3.5351,-3.5338,-3.5338,-3.5443,-3.5665,-3.5508,-3.5417,-3.5665,-3.5539,-3.5838,-3.7012,-3.7311,-3.7965,-2.8588,-2.816,-2.7826,-2.7608,-2.7521,-2.808,-2.8397,-2.843,-2.802,-2.8016,-2.8333,-2.9589,-3.1168,-3.2858,-3.2891,-3.2969,-3.317,-3.3181,-3.317,-3.3181,-3.3281,-3.3281,-3.3235,-3.2225,-3.1743,-3.1767,-3.0709,-3.0216,-3.0216,-3.0216,-3.0216,-3.0216,-3.0158,-2.9642,-2.8735,-2.8643,-2.8574,-2.8517,-2.8574,-2.8609,-2.8609,-2.854,-2.8138,-2.7339,-2.7552,-2.707,-2.5796,-2.6003,-2.5593,-2.4292,-2.4131,-2.3503,-2.2155,-2.1481,-2.114,0.0,-2.0487,0.0,0.0,0.0,0.0,0.0,0.0,0.0,0.0,-2.4191,-2.5066,-2.6041,-2.6739,-2.7811,-2.9457,-3.0503,-3.113,-3.1222,-3.215,-3.2607,-3.2137,-3.3038,-3.3692,-3.3692,-3.4097,-3.4397,-3.4371,-3.4397,-3.4397,-3.4397,-3.4397,-3.4397,-3.4397,-3.4424,-3.445,-3.4397,-3.4397,-3.4541,-3.4502,-3.4463,-3.4463,-3.4437,-3.4489,-3.4397,-3.4463,-3.445,-3.4424,-3.4437,-3.4476,-3.462,-3.509,-3.4763,-3.462,-3.5077,-3.4816,-3.5237,-3.7236,-3.7827,-3.8841,-2.8811,-2.8186,-2.8117,-2.7751,-2.7194,-2.753,-2.7831,-2.8071,-2.7743,-2.7608,-2.7624,-2.7949,-2.8991,-3.0588,-3.0621,-3.1351,-3.2583,-3.2572,-3.2572,-3.2572,-3.3058,-3.3281,-3.3224,-3.2236,-3.1766,-3.1756,-3.0721,-3.0216,-3.0216,-3.0216,-3.0216,-3.0204,-2.9825,-2.932,-2.8712,0.0,0.0,0.0,-2.7908,-2.8115,-2.8103,-2.7713,-2.7621,-2.7805,-2.6737,0.0,-2.5665,-2.5015,-2.4499,-2.4212,-2.381,0.0,0.0,0.0,0.0,0.0,0.0,0.0,0.0,0.0,0.0,0.0,-2.5929,-2.5306,-2.4769,-2.6457,-2.7667,-2.7902,-2.8856,-2.9957,-3.1197,-3.1497,-3.1862,-3.2346,-3.2999,-3.3378,-3.33,-3.3849,-3.4241,-3.4254,-3.4332,-3.4397,-3.4397,-3.4397,-3.4397,-3.4397,-3.4397,-3.4397,-3.4397,-3.4397,-3.4397,-3.4397,-3.4397,-3.4397,-3.4397,-3.4397,-3.4397,-3.4397,-3.4397,-3.4397,-3.4397,-3.4397,-3.4397,-3.4397,-3.4397,-3.4424,-3.4567,-3.4463,-3.4437,-3.4554,-3.4489,-3.4588,-3.5118,-3.5268,-3.5897,-2.8871,0.0,-2.8194,-2.7758,0.0,-2.7246,-2.7418,-2.7547,-2.7521,-2.7721,-2.8024,-2.7984,-2.8907,-3.0414,-3.0234,-3.0815,-3.2015,-3.2015,-3.2015,-3.2015,-3.2291,-3.2454,-3.242,-3.1702,-3.1371,-3.1326,-3.0559,-3.0216,-3.0216,-3.0216,-3.0216,-3.0159,-2.9734,-2.9228,-2.87,-2.7977,-2.7483,-2.719,-2.7483,-2.761,-2.7598,-2.7316,-2.719,-2.7219,0.0,0.0,0.0,0.0,0.0,0.0,0.0,0.0,0.0,0.0,0.0,-2.4558,-2.5063,-2.5602,-2.6164,-2.6203,-2.6726,-2.785,-2.8477,-2.8355,-2.7216,-2.8425,-2.9483,-3.0045,-3.0609,-3.1419,-3.2568,-3.2712,-3.2894,-3.347,-3.3809,-3.3992,-3.4018,-3.4228,-3.4397,-3.4397,-3.4397,-3.4397,-3.4397,-3.4397,-3.4397,-3.4397,-3.4397,-3.4397,-3.4397,-3.4397,-3.4397,-3.4397,-3.4397,-3.4397,-3.4397,-3.4397,-3.4397,-3.4397,-3.4397,-3.4397,-3.4397,-3.4397,-3.4397,-3.4397,-3.4397,-3.4397,-3.4397,-3.4397,-3.4397,-3.4397,-3.4397,-3.4397,-3.4426,-3.5035,-3.6039,-2.8871,-2.8194,-2.8194,-2.7758,-2.7081,-2.7081,-2.7081,-2.7133,0.0,0.0,0.0,-2.8347,-2.9218,-3.058,-3.0285,-3.0641,-3.1424,-3.1465,-3.1465,-3.1465,-3.1567,-3.1567,-3.1575,-3.1053,-3.0793,-3.0737,-3.0189,-2.9932,-2.9943,-2.9932,-2.9932,-2.9897,-2.9465,-2.9007,-2.8422,-2.7542,-2.7097,-2.719,-2.719,-2.719,-2.719,-2.719,-2.6995,-2.6611,-2.6921,-2.6496,-2.5256,-2.552,-2.513,-2.3889,-2.3808,-2.3815,-2.382,-2.4776,-2.5812,-2.6784,-2.7803,-2.8465,-2.8699,-2.9157,-2.9314,-2.9013,-3.0411,-3.079,-2.9702,-3.0202,-3.0988,-3.2032,-3.2111,-3.2554,-3.3626,-3.3731,-3.3901,-3.4358,-3.4397,-3.4397,-3.4397,-3.4397,-3.4397,-3.4397,-3.4397,-3.4397,-3.4397,-3.4397,-3.4397,-3.4397,-3.4397,-3.4397,-3.4397,-3.4397,-3.4397,-3.4397,-3.4397,-3.4397,-3.4397,-3.4397,-3.4397,-3.4397,-3.4397,-3.4397,-3.4397,-3.4397,-3.4397,-3.4397,-3.4397,-3.4397,-3.4397,-3.4397,-3.4397,-3.4397,-3.4397,-3.4397,-3.4538,-3.5599,-3.6824,-2.8871,-2.8194,-2.8194,-2.7766,-2.7081,-2.7081,-2.7081,-2.7073,-2.7133,-2.722,-2.7323,-2.7741,-2.8471,-2.9496,-2.9441,-2.9954,-3.0899,-3.094,-3.0888,0.0,-3.1362,-3.1567,-3.1575,-3.0707,-3.0307,-3.0241,-2.9346,-2.891,-2.891,-2.891,-2.891,-2.8855,-2.8483,-2.8022,-2.7476,-2.6891,-2.6787,-2.719,-2.719,-2.719,-2.719,-2.719,-2.7167,-2.7116,-2.676,-2.6536,-2.6255,-2.5899,-2.5585,-2.5417,-2.5394,-2.5367,-2.5382,-2.5944,-2.6639,-2.7359,-2.7992,-2.8767,-2.9764,-2.9931,-3.0375,-3.1249,-3.2032,-3.1967,-3.0932,-3.1718,-3.262,-3.3273,-3.3313,-3.36,-3.4201,-3.4254,-3.4254,-3.4345,-3.4384,-3.4397,-3.4332,-3.4371,-3.4358,-3.4358,-3.4397,-3.4397,-3.4397,-3.4397,-3.4397,-3.4397,-3.4397,-3.4397,-3.4397,-3.4397,-3.4397,-3.4397,-3.4397,-3.4397,-3.4397,-3.4397,-3.4397,-3.4397,-3.4397,-3.4397,-3.4397,-3.4397,-3.4397,-3.4397,-3.4397,-3.4397,-3.4397,-3.4397,-3.4397,-3.4397,-3.4397,-3.4397,-3.4397,-3.5251,-3.6186,-2.87,-2.8186,-2.7963,-2.7569,-2.7081,-2.7081,-2.7081,-2.7081,-2.7081,-2.7427,-2.7847,-2.7871,-2.8507,-2.9567,-2.9431,-2.9705,-3.0339,-3.0401,-3.0339,-3.0391,-3.0609,-3.0754,-3.0669,-3.0049,-2.9768,-2.9693,-2.9052,-2.8678,-2.8678,-2.8678,-2.8735,-2.8691,-2.8049,-2.7283,-2.6594,-2.6329,-2.6373,-2.6787,-2.6839,-2.6921,-2.719,-2.6962,-2.6962,-2.719,-2.7001,-2.6737,-2.6513,-2.6283,-2.5991,-2.5716,-2.5716,-2.5716,-2.5713,-2.65,-2.7288,-2.789,-2.8736,-2.9627,-3.0544,-3.0857,-3.1249,-3.1784,-3.2672,-3.2973,-3.245,-3.2881,-3.3417,-3.3953,-3.4031,-3.4123,-3.4358,-3.4136,-3.3953,-3.3953,-3.3679,-3.3483,-3.3522,-3.3783,-3.3966,-3.3979,-3.4228,-3.4397,-3.4397,-3.4397,-3.4397,-3.4397,-3.4397,-3.4397,-3.4397,-3.4397,-3.4397,-3.4397,-3.4397,-3.4397,-3.4397,-3.4397,-3.4397,-3.4397,-3.4397,-3.4397,-3.4397,-3.4397,-3.4397,-3.4397,-3.4397,-3.4397,-3.4397,-3.4397,-3.4397,-3.4397,-3.4397,-3.4397,-3.4509,-3.5386,-3.657,-2.8545,-2.816,-2.7766,-2.7407,-2.709,-2.7081,-2.7081,-2.7081,-2.7081,-2.7599,-2.8376,-2.8129,-2.8609,-2.9531,-2.953,-2.9699,-2.9993,-2.9994,-2.9994,-2.9994,-2.9994,-2.9994,-2.9953,-2.9457,-2.9204,-2.9158,-2.8683,-2.8362,-2.8409,-2.8409,-2.8301,-2.8099,-2.7351,-2.6574,-2.5738,-2.5728,-2.5968,-2.6321,-2.6238,-2.655,-2.7138,-2.6745,-2.6704,-2.7149,-2.7097,-2.6914,-2.6668,-2.6634,-2.6462,-2.6094,-2.6048,-2.6021,-2.6071,-2.6889,-2.7639,-2.8273,-2.9247,-3.0203,-3.1133,-3.181,-3.2202,-3.2215,-3.3182,-3.377,-3.377,-3.3783,-3.3927,-3.4319,-3.4371,-3.4384,-3.4332,-3.3927,-3.3587,-3.3548,-3.3051,-3.2764,-3.2751,-3.3234,-3.3587,-3.3639,-3.4071,-3.4397,-3.4397,-3.4397,-3.4397,-3.4397,-3.4397,-3.4397,-3.4397,-3.4397,-3.4397,-3.4397,-3.4397,-3.4397,-3.4397,-3.4397,-3.4397,-3.4397,-3.4397,-3.4397,-3.4397,-3.4397,-3.4397,-3.4397,-3.4397,-3.4397,-3.4397,-3.4397,-3.4397,-3.4397,-3.4397,-3.4481,-3.4799,-3.5856,-3.713,-2.8545,-2.816,-2.7758,-2.7398,-2.709,-2.7081,-2.7081,-2.7081,-2.7081,-2.7599,-2.8412,-2.8495,-2.8492,-2.8747,-2.9492,-2.9852,-2.9973,-2.9994,-2.9994,-2.9994,-2.9994,-2.9994,-2.9911,-2.9103,-2.8657,-2.8603,-2.7879,-2.7547,-2.7489,-2.7499,-2.7014,-2.6274,-2.6052,-2.5818,-2.5296,-2.5295,-2.5496,-2.5937,-2.5549,-2.5915,-2.7067,-2.6757,-2.6745,-2.719,-2.6798,-2.6723,-2.7046,-2.7121,-2.7098,-2.7052,-2.7018,-2.703,-2.703,-2.7168,-2.7504,-2.8164,-2.8846,-2.993,-3.1565,-3.2803,-3.3378,-3.347,-3.3927,-3.4293,-3.4293,-3.4306,-3.4332,-3.4397,-3.4397,-3.4397,-3.4371,-3.3888,-3.3509,-3.3404,-3.2973,-3.2672,-3.2725,-3.3234,-3.3587,-3.3587,-3.4071,-3.4397,-3.4397,-3.4397,-3.4397,-3.4397,-3.4397,-3.4397,-3.4397,-3.4397,-3.4397,-3.4397,-3.4397,-3.4397,-3.4397,-3.4397,-3.4397,-3.4397,-3.4397,-3.4397,-3.4397,-3.4371,-3.4384,-3.4241,-3.4254,-3.4228,-3.4267,-3.4397,-3.4319,-3.4293,-3.4402,-3.4592,-3.5386,-3.6241,-3.7141,-2.834,-2.8134,-2.7544,-2.721,-2.7081,-2.7081,-2.7081,-2.7081,-2.7081,-2.7306,-2.7744,-2.8523,-2.9068,-2.9364,-2.9518,-2.9715,-3.0015,-2.9994,-2.9994,-2.9994,-2.9994,-2.9994,-2.9901,-2.9052,-2.8618,-2.8535,-2.7686,-2.732,-2.732,-2.732,-2.6832,-2.5978,-2.593,-2.5519,-2.4849,-2.4786,-2.4999,-2.5454,-2.5285,-2.5622,-2.626,-2.5999,-2.6071,-2.6663,-2.6622,-2.6456,-2.6479,-2.6891,-2.7097,-2.6839,-2.7056,-2.719,-2.719,-2.719,-2.7505,-2.8203,-2.9441,-3.0799,-3.2228,-3.313,-3.3587,-3.3587,-3.4084,-3.4397,-3.4397,-3.4397,-3.4397,-3.4397,-3.4397,-3.4293,-3.394,-3.3404,-3.2934,-3.262,-3.2293,-3.2163,-3.2163,-3.3038,-3.3587,-3.3626,-3.4058,-3.4397,-3.4397,-3.4397,-3.4397,-3.4397,-3.4397,-3.4397,-3.4397,-3.4397,-3.4397,-3.4397,-3.4397,-3.4397,-3.4397,-3.4397,-3.4397,-3.4397,-3.4397,-3.4397,-3.4345,-3.4071,-3.3927,-3.3927,-3.3679,-3.3483,-3.3326,-3.3417,-3.3456,-3.3744,-3.4254,-3.4551,-3.4868,-3.6002,-3.6933,-2.8117,-2.7938,-2.7338,-2.7081,-2.7081,-2.7081,-2.7081,-2.7081,-2.7081,-2.7081,-2.7194,-2.7948,-2.8757,-2.9456,-2.965,-2.9876,-2.9973,-2.9994,-2.9994,-2.9994,-2.9994,-2.9994,-2.9911,-2.9052,-2.8618,-2.8473,-2.7686,-2.732,-2.732,-2.732,-2.6843,-2.6055,-2.593,-2.543,-2.46,-2.4507,-2.4658,-2.4956,-2.4988,-2.5253,-2.5591,-2.5253,-2.5454,-2.6249,-2.6332,-2.6249,-2.6093,-2.6768,-2.7056,-2.6734,-2.7015,-2.719,-2.719,-2.719,-2.7656,-2.867,-3.018,-3.1616,-3.2841,-3.3483,-3.3809,-3.3849,-3.4188,-3.4332,-3.4214,-3.4175,-3.4097,-3.3901,-3.3927,-3.3744,-3.3613,-3.3051,-3.2476,-3.1889,-3.168,-3.1615,-3.185,-3.2764,-3.3391,-3.36,-3.4071,-3.4397,-3.4397,-3.4397,-3.4397,-3.4397,-3.4397,-3.4397,-3.4397,-3.4397,-3.4397,-3.4397,-3.4397,-3.4397,-3.4397,-3.4397,-3.4397,-3.4345,-3.4319,-3.4123,-3.4123,-3.3692,-3.3352,-3.3273,-3.2881,-3.2764,-3.2908,-3.2842,-3.2777,-3.3273,-3.3757,-3.4234,-3.4631,-3.5864,-3.6671,-2.7972,-2.7595,-2.7227,-2.7081,-2.7081,-2.7081,-2.7081,-2.7081,-2.7081,-2.7073,-2.6953,-2.647,-2.7022,-2.8633,-2.9882,-3.0365,-3.0036,-2.9994,-2.9994,-2.9994,-2.9994,-2.9994,-2.9932,-2.9052,-2.8618,-2.8535,-2.7696,-2.732,-2.732,-2.7309,-2.6843,-2.5927,-2.593,-2.543,-2.4621,-2.4507,-2.4507,-2.4583,-2.4583,-2.4754,-2.5115,-2.4786,-2.5009,-2.5759,-2.5948,-2.6052,-2.6404,-2.6921,-2.7149,-2.7149,-2.7138,-2.719,-2.7179,-2.7213,-2.8023,-2.9744,-3.0947,-3.2127,-3.337,-3.4018,-3.4293,-3.4319,-3.428,-3.4162,-3.3666,-3.3613,-3.3417,-3.2855,-3.2908,-3.3051,-3.3339,-3.2908,-3.2385,-3.1797,-3.1365,-3.1378,-3.1797,-3.2502,-3.2986,-3.3548,-3.4097,-3.4371,-3.4397,-3.4397,-3.4397,-3.4397,-3.4397,-3.4397,-3.4397,-3.4397,-3.4397,-3.4397,-3.4397,-3.4397,-3.4397,-3.4397,-3.4397,-3.4254,-3.3953,-3.3652,-3.3417,-3.3195,-3.2921,-3.2698,-3.2515,-3.2476,-3.2607,-3.2659,-3.262,-3.2908,-3.3272,-3.3736,-3.4286,-3.5804,-3.6603,-2.7604,-2.7261,-2.7124,-2.7081,-2.7081,-2.7081,-2.7081,-2.7081,-2.7081,-2.6927,-2.6755,-2.6731,-2.7268,-2.8227,-2.9016,-2.9664,-2.9952,-2.9994,-2.9994,-2.9994,-2.9994,-2.9994,-2.9891,-2.9052,-2.8618,-2.8483,-2.7696,-2.732,-2.732,-2.732,-2.6843,-2.602,-2.593,-2.543,-2.4662,-2.4507,-2.4507,-2.4507,-2.4507,-2.4583,-2.4754,-2.4583,-2.4668,-2.5009,-2.5295,-2.5549,-2.5653,-2.6135,-2.6354,-2.6365,-2.6592,-2.6745,-2.6832,-2.7364,-2.8574,-3.0274,-3.1206,-3.2323,-3.3851,-3.428,-3.4241,-3.3927,-3.3888,-3.3626,-3.3156,-3.3012,-3.2921,-3.2725,-3.2672,-3.2698,-3.2398,-3.2228,-3.1927,-3.1431,-3.1444,-3.1731,-3.2319,-3.2908,-3.3483,-3.3979,-3.4306,-3.4384,-3.4397,-3.4397,-3.4397,-3.4397,-3.4397,-3.4397,-3.4397,-3.4397,-3.4397,-3.4397,-3.4397,-3.4397,-3.4397,-3.4397,-3.4319,-3.3979,-3.3652,-3.3339,-3.3077,-3.2529,-3.2189,-3.2097,-3.1993,-3.181,-3.1836,-3.2058,-3.2097,-3.2254,-3.2633,-3.341,-3.4012,-3.5339,-3.6043,-2.7295,-2.7098,-2.7081,-2.7081,-2.7081,-2.7081,-2.7081,-2.7081,-2.7073,-2.6859,-2.6575,-2.6728,-2.7187,-2.7954,-2.8188,-2.8963,-2.9942,-2.9994,-2.9994,-2.9994,-2.9994,-2.9994,-2.9849,-2.9042,-2.8618,-2.8473,-2.7696,-2.732,-2.732,-2.732,-2.6895,-2.62,-2.5968,-2.5502,-2.4817,-2.458,-2.4507,-2.4507,-2.4507,-2.4507,-2.4507,-2.4507,-2.4507,-2.454,-2.4828,-2.5041,-2.52,-2.5633,-2.5895,-2.5937,-2.6177,-2.6362,-2.6584,-2.7429,-2.8733,-3.0335,-3.0991,-3.2047,-3.3565,-3.3862,-3.3679,-3.3352,-3.3287,-3.3051,-3.2502,-3.2424,-3.2333,-3.2215,-3.2136,-3.1954,-3.1692,-3.1561,-3.1405,-3.113,-3.1458,-3.2058,-3.2633,-3.3221,-3.3783,-3.4201,-3.4188,-3.4214,-3.4332,-3.4214,-3.4228,-3.4358,-3.4397,-3.4397,-3.4397,-3.4397,-3.4397,-3.4397,-3.4397,-3.4397,-3.4319,-3.4214,-3.4045,-3.3718,-3.3051,-3.2803,-3.2529,-3.1915,-3.1588,-3.1484,-3.1352,-3.1104,-3.1117,-3.1365,-3.1471,-3.1588,-3.2306,-3.3198,-3.391,-3.4713,-3.5501,-2.709,-2.7081,-2.7081,-2.7081,-2.7081,-2.7081,-2.7081,-2.7081,-2.7047,-2.679,-2.6388,-2.6121,-2.6727,-2.7705,-2.7663,-2.8359,-2.9784,-2.9994,-2.9994,-2.9994,-2.9994,-2.9973,-2.987,-2.9032,-2.8535,-2.8442,-2.7714,-2.732,-2.732,-2.7299,-2.704,-2.6563,-2.6051,-2.5606,-2.5137,-2.4693,-2.4507,-2.4507,-2.4507,-2.4507,-2.4507,-2.4507,-2.4507,-2.4507,-2.454,-2.4743,-2.5158,-2.5549,-2.5812,-2.5853,-2.5895,-2.6093,-2.6598,-2.741,-2.8603,-2.9817,-3.047,-3.132,-3.2512,-3.2776,-3.2854,-3.2712,-3.2698,-3.2515,-3.1928,-3.1797,-3.1628,-3.13,-3.1194,-3.1065,-3.1078,-3.1065,-3.1052,-3.1039,-3.1496,-3.2019,-3.2646,-3.3247,-3.3796,-3.4201,-3.4005,-3.3888,-3.4123,-3.3992,-3.3901,-3.4267,-3.4397,-3.4397,-3.4397,-3.4397,-3.4397,-3.4397,-3.4384,-3.4371,-3.4188,-3.3979,-3.3731,-3.3391,-3.2594,-3.2019,-3.1875,-3.1444,-3.13,-3.1196,-3.1209,-3.1024,-3.1024,-3.1196,-3.1156,-3.1377,-3.2224,-3.2901,-3.3574,-3.4369,-3.5375,-2.7081,-2.7081,-2.7081,-2.7081,-2.7081,-2.7081,-2.7081,-2.7047,-2.6799,-2.6465,-2.6088,-2.5711,-2.6323,-2.7322,-2.7441,-2.8368,-2.9942,-2.9994,-2.9994,-2.9994,-2.9994,-2.9818,-2.9456,-2.8897,-2.8286,-2.7738,-2.7465,-2.732,-2.732,-2.732,-2.6936,-2.6241,-2.5958,-2.5471,-2.4786,-2.4569,-2.4507,-2.4507,-2.4507,-2.4507,-2.4507,-2.4507,-2.4507,-2.4507,-2.4507,-2.4583,-2.47,-2.4882,-2.5094,-2.538,-2.5422,-2.5889,-2.685,-2.7347,-2.823,-2.9618,-2.9995,-3.0675,-3.1896,-3.2423,-3.2442,-3.2254,-3.245,-3.2176,-3.1418,-3.1261,-3.1196,-3.0999,-3.1024,-3.1024,-3.1024,-3.1024,-3.1024,-3.1024,-3.1483,-3.2058,-3.2777,-3.3574,-3.4149,-3.428,-3.3927,-3.3875,-3.4149,-3.3927,-3.3822,-3.428,-3.4397,-3.4397,-3.4397,-3.4397,-3.4397,-3.4397,-3.4371,-3.4293,-3.4084,-3.3809,-3.3522,-3.3143,-3.2372,-3.1641,-3.1405,-3.1222,-3.1065,-3.1024,-3.1024,-3.1024,-3.1024,-3.1024,-3.1024,-3.1228,-3.1904,-3.2516,-3.3107,-3.4044,-3.5179,-2.7081,-2.7081,-2.7081,-2.7081,-2.7081,-2.7081,-2.7081,-2.7021,-2.6662,-2.6285,-2.5917,-2.554,-2.6145,-2.718,-2.7394,-2.8368,-2.9889,-2.9994,-2.9994,-2.9994,-2.9994,-2.9746,-2.9249,-2.8638,-2.7997,-2.7444,-2.732,-2.732,-2.732,-2.7289,-2.6926,-2.6283,-2.5968,-2.5533,-2.4786,-2.458,-2.4507,-2.4507,-2.4507,-2.4507,-2.4507,-2.4507,-2.4507,-2.4507,-2.4507,-2.4507,-2.4507,-2.4507,-2.4615,-2.4914,-2.5115,-2.5646,-2.6458,-2.6692,-2.7344,-2.8412,-2.9035,-2.9682,-3.0809,-3.1656,-3.2,-3.1707,-3.2058,-3.198,-3.1209,-3.1024,-3.1024,-3.1024,-3.1024,-3.1024,-3.1024,-3.1024,-3.1024,-3.0999,-3.1718,-3.2463,-3.3208,-3.394,-3.4345,-3.4293,-3.3927,-3.3927,-3.4123,-3.3953,-3.3835,-3.4254,-3.4397,-3.4397,-3.4397,-3.4397,-3.4397,-3.4397,-3.4397,-3.4241,-3.3992,-3.3679,-3.3326,-3.2855,-3.2267,-3.1641,-3.1222,-3.1117,-3.1024,-3.1024,-3.1024,-3.1024,-3.1024,-3.1024,-3.1037,-3.1382,-3.1779,-3.2558,-3.3372,-3.4264,-3.5244,-2.7081,-2.7081,-2.7081,-2.7081,-2.7081,-2.7081,-2.7047,-2.6961,-2.6602,-2.6208,-2.5857,-2.5446,-2.6109,-2.718,-2.7394,-2.8359,-2.9784,-2.9994,-2.9994,-2.9994,-2.9973,-2.9725,-2.9135,-2.8297,-2.7665,-2.7372,-2.732,-2.732,-2.732,-2.7309,-2.7071,-2.6563,-2.6072,-2.5658,-2.5127,-2.4724,-2.4507,-2.4507,-2.4507,-2.4507,-2.4507,-2.4507,-2.4507,-2.4507,-2.4507,-2.4507,-2.4507,-2.4507,-2.4507,-2.4583,-2.4914,-2.5211,-2.5391,-2.5665,-2.6232,-2.6986,-2.7603,-2.8391,-2.9361,-3.0552,-3.1242,-3.1108,-3.1523,-3.1562,-3.1117,-3.1024,-3.1024,-3.1024,-3.1024,-3.1024,-3.1024,-3.1024,-3.1063,-3.1235,-3.2045,-3.3025,-3.4149,-3.4332,-3.4293,-3.4254,-3.3953,-3.3705,-3.411,-3.3796,-3.3796,-3.4136,-3.4319,-3.4397,-3.4397,-3.4397,-3.4397,-3.4397,-3.4384,-3.4188,-3.394,-3.3992,-3.3561,-3.2607,-3.2189,-3.1914,-3.1287,-3.1117,-3.1024,-3.1024,-3.1024,-3.1024,-3.1024,-3.1024,-3.1091,-3.1363,-3.1995,-3.2864,-3.3606,-3.4331,-3.4883,-2.7081,-2.7081,-2.7081,-2.7081,-2.7081,-2.7081,-2.6902,-2.6619,-2.6251,-2.5891,-2.5506,-2.5129,-2.5904,-2.7295,-2.7447,-2.8359,-2.9669,-2.9994,-2.9994,-2.9994,-2.9994,-2.9518,-2.8752,-2.7883,-2.7444,-2.732,-2.732,-2.732,-2.732,-2.732,-2.7061,-2.6615,-2.6103,-2.5668,-2.5189,-2.4735,-2.4518,-2.4507,-2.4507,-2.4507,-2.4507,-2.4507,-2.4507,-2.4507,-2.4507,-2.4507,-2.4507,-2.4507,-2.4507,-2.4507,-2.4615,-2.506,-2.5561,-2.5519,-2.5741,-2.6413,-2.6571,-2.7121,-2.8351,-2.9429,-3.0165,-3.0776,-3.1394,-3.1536,-3.1052,-3.1024,-3.1024,-3.1024,-3.1024,-3.1024,-3.1024,-3.1024,-3.1313,-3.2123,-3.245,-3.3091,-3.4005,-3.4058,-3.394,-3.4162,-3.3169,-3.3038,-3.3443,-3.3443,-3.3273,-3.3783,-3.4162,-3.4358,-3.4306,-3.4293,-3.4254,-3.4345,-3.4319,-3.411,-3.4005,-3.4136,-3.3692,-3.2476,-3.215,-3.2306,-3.1692,-3.1248,-3.1091,-3.1024,-3.1024,-3.1024,-3.1024,-3.1024,-3.1182,-3.1326,-3.1876,-3.258,-3.3188,-3.384,-3.439,-2.7081,-2.7081,-2.7081,-2.7081,-2.7081,-2.7081,-2.6842,-2.6465,-2.6038,-2.5729,-2.5352,-2.4984,-2.5789,-2.7286,-2.7447,-2.8359,-2.9837,-2.9994,-2.9994,-2.9922,-2.958,-2.9104,-2.8483,-2.7755,-2.732,-2.732,-2.732,-2.732,-2.732,-2.732,-2.705,-2.6604,-2.6159,-2.5668,-2.5179,-2.4745,-2.4507,-2.4507,-2.4507,-2.4507,-2.4507,-2.4507,-2.4507,-2.4507,-2.4507,-2.4507,-2.4507,-2.4507,-2.4507,-2.4507,-2.4518,-2.476,-2.5271,-2.5082,-2.5157,-2.5712,-2.6089,-2.6876,-2.7829,-2.9109,-3.0138,-3.0676,-3.1318,-3.1355,-3.113,-3.1024,-3.1024,-3.1024,-3.1024,-3.1024,-3.1024,-3.1024,-3.1418,-3.2071,-3.2333,-3.2816,-3.3914,-3.3783,-3.3626,-3.343,-3.2921,-3.2515,-3.3456,-3.3221,-3.3404,-3.3835,-3.4241,-3.4201,-3.4084,-3.4084,-3.4018,-3.3992,-3.3901,-3.3626,-3.3692,-3.3862,-3.4031,-3.2934,-3.2137,-3.2333,-3.1757,-3.1248,-3.113,-3.1024,-3.1024,-3.1024,-3.1024,-3.1024,-3.1065,-3.1323,-3.1775,-3.2356,-3.3024,-3.3705,-3.4174,-2.7081,-2.7081,-2.7081,-2.7081,-2.7064,-2.703,-2.6747,-2.6396,-2.6003,-2.5634,-2.5275,-2.4958,-2.5789,-2.7394,-2.7447,-2.8359,-2.9994,-2.9994,-2.9932,-2.9663,-2.9166,-2.8618,-2.84,-2.7693,-2.734,-2.732,-2.732,-2.732,-2.732,-2.732,-2.7112,-2.6739,-2.6283,-2.5751,-2.5368,-2.4848,-2.458,-2.4507,-2.4507,-2.4507,-2.4507,-2.4507,-2.4507,-2.4507,-2.4507,-2.4507,-2.4507,-2.4507,-2.4507,-2.4507,-2.4507,-2.4518,-2.4581,-2.4497,-2.4668,-2.4988,-2.6082,-2.6976,-2.7805,-2.942,-3.0556,-3.0624,-3.1087,-3.1305,-3.1029,-3.0949,-3.1024,-3.1024,-3.1024,-3.1024,-3.1024,-3.1024,-3.1287,-3.1784,-3.1889,-3.2463,-3.3104,-3.3404,-3.3221,-3.2751,-3.2633,-3.279,-3.3182,-3.3443,-3.3496,-3.3195,-3.3705,-3.3979,-3.3862,-3.3809,-3.36,-3.3326,-3.3195,-3.3025,-3.3247,-3.3548,-3.3744,-3.347,-3.2568,-3.2176,-3.1483,-3.1065,-3.1026,-3.1024,-3.1024,-3.1024,-3.1024,-3.0999,-3.1026,-3.1483,-3.2075,-3.2576,-3.3151,-3.3775,-3.4332,-2.7081,-2.7081,-2.7081,-2.7081,-2.7021,-2.6739,-2.6396,-2.6028,-2.566,-2.5318,-2.4992,-2.4847,-2.5789,-2.7394,-2.7438,-2.8359,-2.9827,-2.9921,-2.9818,-2.9384,-2.8897,-2.84,-2.8069,-2.75,-2.734,-2.732,-2.732,-2.732,-2.732,-2.7309,-2.7268,-2.7102,-2.6625,-2.6231,-2.572,-2.521,-2.4848,-2.458,-2.4507,-2.4507,-2.4507,-2.4507,-2.4507,-2.4507,-2.4507,-2.4507,-2.4507,-2.4507,-2.4507,-2.4507,-2.4507,-2.4507,-2.4507,-2.4507,-2.4743,-2.5306,-2.5788,-2.6771,-2.8075,-2.8901,-2.958,-3.0266,-3.0662,-3.0865,-3.0825,-3.0911,-3.0986,-3.1024,-3.1024,-3.0986,-3.0986,-3.0986,-3.1235,-3.1641,-3.2098,-3.2293,-3.2241,-3.2254,-3.2463,-3.2398,-3.1927,-3.1588,-3.2124,-3.2293,-3.2411,-3.2528,-3.3025,-3.3574,-3.3574,-3.343,-3.3104,-3.2685,-3.2542,-3.2476,-3.2999,-3.3287,-3.3483,-3.3417,-3.2685,-3.2136,-3.1444,-3.1024,-3.1024,-3.1024,-3.1024,-3.1024,-3.1024,-3.1037,-3.1063,-3.1724,-3.2256,-3.2664,-3.3167,-3.3821,-3.4617,-2.7081,-2.7081,-2.7081,-2.697,-2.6782,-2.6568,-2.6182,-2.5703,-2.5472,-2.5163,-2.4881,-2.4821,-2.5569,-2.6789,-2.7222,-2.8145,-2.9237,-2.9827,-2.9746,-2.9301,-2.8835,-2.8369,-2.7914,-2.751,-2.732,-2.732,-2.732,-2.732,-2.732,-2.732,-2.7309,-2.7278,-2.6853,-2.6356,-2.593,-2.5416,-2.4941,-2.459,-2.4507,-2.4507,-2.4507,-2.4507,-2.4507,-2.4507,-2.4507,-2.4507,-2.4507,-2.4507,-2.4507,-2.4507,-2.4507,-2.4507,-2.4507,-2.4507,-2.4775,-2.5137,-2.611,-2.6689,-2.7718,-2.8752,-2.9534,-3.0037,-3.0381,-3.0584,-3.0698,-3.0811,-3.0911,-3.0936,-3.0861,-3.0748,-3.0836,-3.0949,-3.1196,-3.1431,-3.1954,-3.2019,-3.1667,-3.1876,-3.2032,-3.1967,-3.1378,-3.1444,-3.1575,-3.168,-3.2019,-3.2476,-3.262,-3.3077,-3.2646,-3.2502,-3.2333,-3.2045,-3.1901,-3.2045,-3.2659,-3.3025,-3.3247,-3.2986,-3.2398,-3.1993,-3.1627,-3.1261,-3.1024,-3.1024,-3.1024,-3.1024,-3.1024,-3.105,-3.1088,-3.1367,-3.1806,-3.2482,-3.3076,-3.3626,-3.4617,-2.7081,-2.7073,-2.7013,-2.679,-2.6491,-2.6345,-2.5943,-2.5429,-2.53,-2.5078,-2.4872,-2.4821,-2.5348,-2.6145,-2.6844,-2.7707,-2.8721,-2.9453,-2.9559,-2.9104,-2.8649,-2.8183,-2.7759,-2.7438,-2.732,-2.732,-2.732,-2.732,-2.732,-2.732,-2.732,-2.7247,-2.6957,-2.648,-2.5927,-2.5533,-2.5044,-2.459,-2.4507,-2.4507,-2.4507,-2.4507,-2.4507,-2.4507,-2.4507,-2.4507,-2.4507,-2.4507,-2.4507,-2.4507,-2.4507,-2.4507,-2.4507,-2.4507,-2.4625,-2.4775,-2.6205,-2.7098,-2.777,-2.8831,-2.9818,-3.0037,-3.0292,-3.0444,-3.0609,-3.0698,-3.0798,-3.0798,-3.0723,-3.0558,-3.0698,-3.0874,-3.0986,-3.113,-3.1484,-3.1484,-3.134,-3.1928,-3.1915,-3.1327,-3.1117,-3.1248,-3.1418,-3.1536,-3.198,-3.2319,-3.245,-3.2437,-3.1993,-3.1784,-3.1797,-3.1679,-3.1588,-3.1692,-3.2254,-3.2502,-3.2751,-3.2633,-3.2058,-3.185,-3.1615,-3.13,-3.1024,-3.1024,-3.1024,-3.1024,-3.1024,-3.1037,-3.1037,-3.1061,-3.168,-3.2679,-3.3136,-3.3416,-3.4564,-2.7081,-2.7047,-2.6722,-2.6542,-2.6388,-2.584,-2.5506,-2.5335,-2.5044,-2.4889,-2.4838,-2.4821,-2.5293,-2.5926,-2.6191,-2.7222,-2.8473,-2.9103,-2.9146,-2.8681,-2.8286,-2.7862,-2.7527,-2.7392,-2.732,-2.732,-2.732,-2.732,-2.732,-2.732,-2.732,-2.7289,-2.7206,-2.6781,-2.6113,-2.5751,-2.5326,-2.4673,-2.4538,-2.4507,-2.4507,-2.4507,-2.4507,-2.4507,-2.4507,-2.4507,-2.4507,-2.4507,-2.4507,-2.4507,-2.4507,-2.4507,-2.4583,-2.4583,-2.4903,-2.5547,-2.6453,-2.7354,-2.8131,-2.9131,-2.9753,-2.9946,-3.0152,-3.0368,-3.0482,-3.0571,-3.0622,-3.066,-3.066,-3.066,-3.0698,-3.0798,-3.0949,-3.1117,-3.138,-3.1549,-3.1263,-3.1513,-3.1733,-3.1132,-3.1039,-3.105,-3.1196,-3.1313,-3.147,-3.1718,-3.1849,-3.194,-3.1745,-3.1654,-3.1706,-3.1575,-3.1365,-3.1561,-3.1823,-3.1928,-3.2084,-3.2163,-3.185,-3.1718,-3.147,-3.1169,-3.1024,-3.0999,-3.1024,-3.1024,-3.1024,-3.1024,-3.1334,-3.1566,-3.2268,-3.3017,-3.3492,-3.3988,-3.4693,-2.6662,-2.6465,-2.6277,-2.6088,-2.5874,-2.5532,-2.5258,-2.5069,-2.4898,-2.4821,-2.4821,-2.4821,-2.5034,-2.545,-2.5981,-2.6967,-2.8048,-2.8475,-2.8492,-2.819,-2.8007,-2.7686,-2.7351,-2.732,-2.732,-2.732,-2.732,-2.732,-2.732,-2.732,-2.732,-2.732,-2.7309,-2.6946,-2.6366,-2.5968,-2.5533,-2.4921,-2.4631,-2.4507,-2.4507,-2.4507,-2.4507,-2.4507,-2.4507,-2.4507,-2.4507,-2.4507,-2.4507,-2.4507,-2.4507,-2.4743,-2.502,-2.5189,-2.5348,-2.5902,-2.6648,-2.7516,-2.841,-2.9287,-2.9753,-2.983,-3.0088,-3.0228,-3.0254,-3.0305,-3.0356,-3.033,-3.0495,-3.0495,-3.0381,-3.0571,-3.0672,-3.0813,-3.1228,-3.133,-3.1174,-3.1487,-3.1344,-3.1066,-3.1039,-3.1037,-3.1037,-3.1052,-3.105,-3.1104,-3.1274,-3.1378,-3.1419,-3.1445,-3.1522,-3.1444,-3.1274,-3.1444,-3.1575,-3.1628,-3.1758,-3.1797,-3.1667,-3.1535,-3.147,-3.1261,-3.1104,-3.1026,-3.1013,-3.1024,-3.1161,-3.1259,-3.1676,-3.2051,-3.2613,-3.3213,-3.3973,-3.4624,-3.5204,-2.6208,-2.5934,-2.5799,-2.5643,-2.5386,-2.5283,-2.5095,-2.4864,-2.483,-2.4821,-2.4821,-2.4821,-2.4821,-2.5008,-2.5637,-2.65,-2.7438,-2.7548,-2.7744,-2.7686,-2.7703,-2.7552,-2.7403,-2.732,-2.732,-2.732,-2.732,-2.732,-2.732,-2.732,-2.732,-2.732,-2.7309,-2.7071,-2.6604,-2.6082,-2.5668,-2.5179,-2.4745,-2.4518,-2.4507,-2.4507,-2.4507,-2.4507,-2.4507,-2.4507,-2.4507,-2.4507,-2.4507,-2.4507,-2.4583,-2.485,-2.5579,-2.5621,-2.5788,-2.6329,-2.7017,-2.7718,-2.8422,-2.9287,-2.9779,-2.9792,-2.9972,-3.0088,-3.0113,-3.0113,-3.0049,-2.9946,-3.0126,-3.0292,-3.0216,-3.0292,-3.0432,-3.0585,-3.0932,-3.119,-3.1033,-3.1123,-3.1239,-3.1092,-3.1026,-3.1024,-3.0986,-3.1024,-3.1024,-3.1024,-3.1143,-3.113,-3.1196,-3.1156,-3.1182,-3.1209,-3.1222,-3.1352,-3.1457,-3.147,-3.1615,-3.1784,-3.1575,-3.1365,-3.1444,-3.1483,-3.1287,-3.1039,-3.0999,-3.1061,-3.1259,-3.1371,-3.1468,-3.1859,-3.2627,-3.3248,-3.3719,-3.4491,-3.5222,-2.5919,-2.5842,-2.5574,-2.5403,-2.5366,-2.5026,-2.4881,-2.483,-2.4821,-2.4821,-2.4812,-2.4804,-2.4787,-2.4849,-2.5217,-2.5466,-2.5824,-2.6495,-2.7023,-2.7138,-2.7311,-2.7423,-2.732,-2.732,-2.732,-2.732,-2.732,-2.732,-2.732,-2.732,-2.732,-2.732,-2.7278,-2.7092,-2.6708,-2.6216,-2.5658,-2.5189,-2.4745,-2.4507,-2.4507,-2.4507,-2.4507,-2.4507,-2.4507,-2.4507,-2.4507,-2.4507,-2.4507,-2.4507,-2.4507,-2.4946,-2.5495,-2.5062,-2.6121,-2.7395,-2.8303,-2.8383,-2.8673,-2.9339,-2.9779,-2.9818,-2.9972,-3.0075,-3.0075,-3.0037,-2.9972,-2.983,-3.0049,-3.0139,-3.0139,-3.0318,-3.047,-3.056,-3.0689,-3.0906,-3.0929,-3.1008,-3.1098,-3.1173,-3.1159,-3.104,-3.0999,-3.0986,-3.1024,-3.1024,-3.1024,-3.1024,-3.1024,-3.1024,-3.1024,-3.1052,-3.1104,-3.1222,-3.1287,-3.13,-3.1535,-3.1732,-3.1575,-3.1339,-3.1444,-3.1522,-3.1235,-3.1039,-3.1013,-3.1024,-3.1123,-3.1198,-3.1161,-3.1823,-3.284,-3.3143,-3.3248,-3.4167,-3.5288,-2.53,-2.5292,-2.5121,-2.5061,-2.5035,-2.4881,-2.4821,-2.4821,-2.4821,-2.4821,-2.477,-2.4564,-2.4384,-2.4296,-2.4393,-2.4797,-2.527,-2.5855,-2.6498,-2.6974,-2.7222,-2.732,-2.732,-2.732,-2.732,-2.732,-2.732,-2.732,-2.732,-2.732,-2.732,-2.732,-2.7309,-2.7247,-2.6926,-2.6542,-2.6061,-2.5544,-2.4964,-2.4528,-2.4507,-2.4507,-2.4507,-2.4507,-2.4507,-2.4507,-2.4507,-2.4507,-2.4507,-2.4507,-2.4507,-2.4903,-2.5495,-2.5621,-2.6235,-2.8143,-2.8462,-2.8712,-2.9209,-2.9598,-2.9753,-2.9779,-2.9856,-2.9895,-2.9934,-2.9934,-2.9895,-2.983,-3.0171,-3.0223,-3.0211,-3.0593,-3.0722,-3.0775,-3.0739,-3.1021,-3.1177,-3.1061,-3.11,-3.1177,-3.1278,-3.125,-3.1222,-3.1209,-3.1143,-3.1024,-3.1024,-3.1024,-3.1024,-3.1024,-3.1024,-3.1037,-3.1026,-3.1078,-3.1104,-3.113,-3.1457,-3.1641,-3.1797,-3.1575,-3.1536,-3.1509,-3.1235,-3.1052,-3.0999,-3.1024,-3.1024,-3.1371,-3.1676,-3.2376,-3.3122,-3.3492,-3.3885,-3.4505,-3.5436,-2.4821,-2.4821,-2.4821,-2.4821,-2.4821,-2.4821,-2.4821,-2.4821,-2.4821,-2.4761,-2.4581,-2.4264,-2.3896,-2.3728,-2.3826,-2.4394,-2.4995,-2.5436,-2.6143,-2.6769,-2.7214,-2.732,-2.732,-2.732,-2.732,-2.732,-2.732,-2.732,-2.732,-2.732,-2.732,-2.732,-2.732,-2.7299,-2.7175,-2.6791,-2.6237,-2.5585,-2.4859,-2.4528,-2.4507,-2.4507,-2.4507,-2.4507,-2.4507,-2.4507,-2.4507,-2.4507,-2.4507,-2.4507,-2.4507,-2.4903,-2.5579,-2.5547,-2.637,-2.7851,-2.8251,-2.8593,-2.9248,-2.9753,-2.9779,-2.9779,-2.9779,-2.9818,-2.9818,-2.9792,-2.993,-3.003,-3.008,-3.0218,-3.0382,-3.0911,-3.0966,-3.1021,-3.1088,-3.1407,-3.1612,-3.1559,-3.1564,-3.1733,-3.1759,-3.159,-3.1562,-3.1509,-3.1339,-3.1065,-3.1024,-3.1024,-3.1063,-3.1052,-3.0999,-3.0999,-3.1026,-3.113,-3.1313,-3.1339,-3.1548,-3.1601,-3.1706,-3.1641,-3.1496,-3.1418,-3.1248,-3.1104,-3.1037,-3.1024,-3.1024,-3.164,-3.2268,-3.2613,-3.3108,-3.4124,-3.4739,-3.5246,-3.5519,-2.4821,-2.4821,-2.4821,-2.4821,-2.4821,-2.4821,-2.4821,-2.4812,-2.4812,-2.4509,-2.4187,-2.3871,-2.3502,-2.3376,-2.3718,-2.4,-2.404,-2.5401,-2.6082,-2.6506,-2.688,-2.7272,-2.732,-2.732,-2.732,-2.732,-2.732,-2.732,-2.732,-2.732,-2.732,-2.732,-2.732,-2.732,-2.7175,-2.6843,-2.6185,-2.5544,-2.4859,-2.4559,-2.4518,-2.4507,-2.4507,-2.4507,-2.4507,-2.4507,-2.4507,-2.4507,-2.4507,-2.4507,-2.4507,-2.4903,-2.5537,-2.5306,-2.6246,-2.7799,-2.7959,-2.8462,-2.9378,-2.9779,-2.9779,-2.9779,-2.9792,-2.9829,-2.993,-2.9854,-3.003,-3.047,-3.052,-3.0583,-3.0809,-3.1047,-3.1405,-3.1407,-3.159,-3.1835,-3.2018,-3.2094,-3.2129,-3.2329,-3.2239,-3.2019,-3.1915,-3.185,-3.1419,-3.1143,-3.1013,-3.1013,-3.1156,-3.1196,-3.1065,-3.1026,-3.1065,-3.1261,-3.1641,-3.1706,-3.1575,-3.1561,-3.1628,-3.1444,-3.1169,-3.1117,-3.1169,-3.1091,-3.1024,-3.1024,-3.1123,-3.1676,-3.2196,-3.247,-3.3059,-3.4022,-3.4773,-3.5246,-3.5424,-2.4821,-2.4821,-2.4821,-2.4821,-2.4821,-2.4821,-2.4821,-2.4778,-2.4564,-2.4102,-2.3562,-2.3383,-2.3117,-2.3005,-2.3113,-2.3781,-2.4412,-2.4943,-2.5887,-2.6678,-2.7167,-2.732,-2.732,-2.732,-2.732,-2.732,-2.732,-2.732,-2.732,-2.732,-2.732,-2.732,-2.732,-2.732,-2.7164,-2.6832,-2.6206,-2.5699,-2.5127,-2.4817,-2.4518,-2.4507,-2.4507,-2.4507,-2.4507,-2.4507,-2.4507,-2.4507,-2.4507,-2.4507,-2.4497,-2.5062,-2.5652,-2.5379,-2.6453,-2.8171,-2.8011,-2.8593,-2.9456,-2.9779,-2.9779,-2.9779,-2.9804,-2.9942,-3.0231,-3.0294,-3.057,-3.0884,-3.1135,-3.1273,-3.121,-3.18,-3.2282,-3.211,-3.2129,-3.2313,-3.2422,-3.2498,-3.2516,-3.2613,-3.2483,-3.2275,-3.2259,-3.2199,-3.1681,-3.1184,-3.1117,-3.1104,-3.1339,-3.1483,-3.1431,-3.1392,-3.1431,-3.1509,-3.1863,-3.1719,-3.1509,-3.1601,-3.1654,-3.1444,-3.1222,-3.1026,-3.1052,-3.0999,-3.1024,-3.1024,-3.1222,-3.17,-3.2123,-3.2434,-3.3073,-3.3885,-3.4558,-3.5246,-3.5392,-2.4821,-2.4812,-2.4693,-2.4718,-2.4795,-2.4693,-2.465,-2.4526,-2.4222,-2.3725,-2.3109,-2.3006,-2.2818,-2.2696,-2.2946,-2.3447,-2.4412,-2.5099,-2.5936,-2.662,-2.7071,-2.7272,-2.732,-2.732,-2.732,-2.732,-2.732,-2.732,-2.732,-2.732,-2.732,-2.732,-2.732,-2.732,-2.7175,-2.6708,-2.6252,-2.5854,-2.5306,-2.489,-2.4518,-2.4507,-2.4507,-2.4507,-2.4507,-2.4507,-2.4507,-2.4507,-2.4507,-2.4625,-2.4775,-2.5221,-2.5663,-2.6235,-2.7017,-2.7931,-2.8593,-2.8922,-2.9534,-2.9779,-2.9867,-3.0055,-3.0093,-3.0369,-3.067,-3.0859,-3.1085,-3.1537,-3.1838,-3.1926,-3.17,-3.2315,-3.2616,-3.242,-3.2622,-3.2807,-3.2841,-3.2942,-3.2866,-3.2899,-3.2784,-3.2794,-3.2442,-3.2388,-3.2187,-3.1811,-3.1888,-3.1875,-3.198,-3.2058,-3.1993,-3.1967,-3.1954,-3.2032,-3.2071,-3.2045,-3.2006,-3.2097,-3.2084,-3.1718,-3.1483,-3.1274,-3.1065,-3.0986,-3.1024,-3.1024,-3.1198,-3.1468,-3.1955,-3.2434,-3.3318,-3.439,-3.4773,-3.5392,-3.5424,-2.4812,-2.477,-2.4355,-2.447,-2.4693,-2.4401,-2.4193,-2.4196,-2.3845,-2.3443,-2.304,-2.2749,-2.2654,-2.2745,-2.3088,-2.3529,-2.4125,-2.5206,-2.6091,-2.6332,-2.7023,-2.7262,-2.732,-2.732,-2.732,-2.732,-2.732,-2.732,-2.732,-2.732,-2.732,-2.732,-2.732,-2.7309,-2.7226,-2.6407,-2.5982,-2.5761,-2.4993,-2.4683,-2.4518,-2.4507,-2.4507,-2.4507,-2.4507,-2.4507,-2.4507,-2.4507,-2.4507,-2.454,-2.5062,-2.5505,-2.5986,-2.6607,-2.7476,-2.8502,-2.8581,-2.9,-2.9663,-2.974,-3.0018,-3.0382,-3.0419,-3.0733,-3.1198,-3.1424,-3.1612,-3.2114,-3.2001,-3.219,-3.242,-3.2641,-3.2742,-3.2847,-3.3025,-3.3106,-3.3126,-3.3152,-3.3068,-3.3005,-3.3322,-3.3427,-3.2902,-3.2575,-3.2559,-3.2486,-3.2606,-3.2672,-3.262,-3.2633,-3.2568,-3.2437,-3.2411,-3.245,-3.2489,-3.2502,-3.2515,-3.2594,-3.2411,-3.2006,-3.181,-3.1667,-3.1457,-3.113,-3.1024,-3.1024,-3.1024,-3.1123,-3.1932,-3.2861,-3.4138,-3.5067,-3.5359,-3.5489,-3.5489,-2.4667,-2.4364,-2.4236,-2.4162,-2.405,-2.3922,-2.3853,-2.3785,-2.346,-2.3091,-2.2826,-2.2628,-2.2603,-2.2695,-2.2846,-2.3238,-2.3877,-2.4648,-2.5441,-2.6197,-2.6928,-2.7214,-2.732,-2.732,-2.732,-2.732,-2.732,-2.732,-2.732,-2.732,-2.732,-2.732,-2.732,-2.732,-2.7164,-2.6656,-2.6283,-2.5854,-2.5306,-2.4838,-2.4549,-2.4507,-2.4507,-2.4507,-2.4507,-2.4507,-2.4507,-2.4507,-2.4507,-2.454,-2.5062,-2.5631,-2.637,-2.711,-2.7891,-2.891,-2.9326,-2.9468,-2.9753,-2.9829,-3.0043,-3.0432,-3.0708,-3.106,-3.1763,-3.1913,-3.2252,-3.2579,-3.2503,-3.2747,-3.2905,-3.2973,-3.3023,-3.3023,-3.3104,-3.3104,-3.3142,-3.3142,-3.3134,-3.3079,-3.3245,-3.339,-3.3102,-3.2902,-3.2838,-3.2798,-3.2843,-3.2979,-3.2966,-3.3115,-3.3156,-3.2934,-3.2829,-3.2855,-3.2881,-3.2829,-3.2868,-3.2934,-3.262,-3.2136,-3.1993,-3.2019,-3.1732,-3.1405,-3.1182,-3.1024,-3.1123,-3.1408,-3.239,-3.3437,-3.4308,-3.51,-3.5424,-3.5489,-3.5489,-2.4273,-2.4025,-2.3843,-2.3699,-2.3494,-2.3477,-2.3461,-2.3306,-2.3023,-2.2826,-2.2637,-2.2603,-2.2603,-2.2603,-2.2653,-2.2996,-2.3728,-2.455,-2.5343,-2.6139,-2.6928,-2.7225,-2.732,-2.732,-2.732,-2.732,-2.732,-2.732,-2.732,-2.732,-2.732,-2.732,-2.732,-2.732,-2.7123,-2.6698,-2.6144,-2.574,-2.5275,-2.4735,-2.4559,-2.4507,-2.4507,-2.4507,-2.4507,-2.4507,-2.4507,-2.4507,-2.4507,-2.4625,-2.5147,-2.5799,-2.6864,-2.7851,-2.8502,-2.9495,-2.9792,-2.9792,-2.9792,-3.0068,-3.0394,-3.0871,-3.0871,-3.1424,-3.2227,-3.2491,-3.2679,-3.293,-3.3111,-3.3124,-3.3068,-3.3124,-3.3124,-3.3124,-3.3124,-3.3124,-3.3124,-3.3167,-3.3167,-3.3124,-3.3124,-3.3197,-3.327,-3.3232,-3.314,-3.3106,-3.3053,-3.3181,-3.332,-3.3459,-3.361,-3.3481,-3.3364,-3.347,-3.3339,-3.3091,-3.3156,-3.326,-3.2855,-3.2306,-3.2346,-3.2372,-3.1993,-3.1615,-3.1261,-3.1061,-3.1259,-3.175,-3.2448,-3.3108,-3.3788,-3.4543,-3.5311,-3.5504,-3.5504,-2.3665,-2.3641,-2.3263,-2.3134,-2.31,-2.31,-2.2954,-2.2637,-2.262,-2.2611,-2.2603,-2.2603,-2.2603,-2.2603,-2.2653,-2.3097,-2.3827,-2.4599,-2.5392,-2.6139,-2.6918,-2.7167,-2.732,-2.732,-2.732,-2.732,-2.732,-2.732,-2.732,-2.732,-2.732,-2.732,-2.732,-2.732,-2.7061,-2.6625,-2.6138,-2.574,-2.5233,-2.4755,-2.4538,-2.4507,-2.4507,-2.4507,-2.4507,-2.4507,-2.4507,-2.4507,-2.4572,-2.5062,-2.5966,-2.67,-2.7649,-2.8843,-2.9417,-2.9779,-2.9779,-2.9779,-2.9854,-3.0206,-3.0733,-3.116,-3.1386,-3.2051,-3.2604,-3.296,-3.3023,-3.3061,-3.3124,-3.3124,-3.3124,-3.3124,-3.3124,-3.3124,-3.3124,-3.3124,-3.3124,-3.3124,-3.3124,-3.3124,-3.3124,-3.3167,-3.3154,-3.3167,-3.3197,-3.3182,-3.3162,-3.3385,-3.3527,-3.3704,-3.3859,-3.3983,-3.396,-3.4108,-3.3834,-3.3194,-3.2947,-3.2894,-3.2986,-3.2659,-3.2698,-3.2529,-3.2071,-3.1588,-3.1209,-3.1061,-3.1198,-3.164,-3.2268,-3.2918,-3.3754,-3.4293,-3.5133,-3.5439,-3.5594,-2.3511,-2.3263,-2.316,-2.2954,-2.2774,-2.2766,-2.2688,-2.2603,-2.2603,-2.2603,-2.2603,-2.2603,-2.2644,-2.2653,-2.3138,-2.3479,-2.4165,-2.5001,-2.5693,-2.638,-2.6965,-2.7214,-2.732,-2.732,-2.732,-2.7299,-2.7299,-2.7289,-2.7289,-2.7299,-2.732,-2.732,-2.732,-2.732,-2.7112,-2.6708,-2.6314,-2.5802,-2.521,-2.4828,-2.4569,-2.4507,-2.4507,-2.4507,-2.4507,-2.4507,-2.4507,-2.4583,-2.4775,-2.5547,-2.5872,-2.6565,-2.8211,-2.8673,-2.9,-2.974,-2.9779,-2.9792,-2.9892,-3.0306,-3.0821,-3.1323,-3.1687,-3.2303,-3.2885,-3.3099,-3.3099,-3.3124,-3.3124,-3.3124,-3.3124,-3.3124,-3.3124,-3.3124,-3.3124,-3.3124,-3.3124,-3.3124,-3.3124,-3.3124,-3.3124,-3.3124,-3.3124,-3.3124,-3.3167,-3.3111,-3.3197,-3.3441,-3.3641,-3.3768,-3.4034,-3.4147,-3.4137,-3.421,-3.3558,-3.2906,-3.2659,-3.2476,-3.2776,-3.2973,-3.2764,-3.2515,-3.2006,-3.1601,-3.1196,-3.1026,-3.1024,-3.1616,-3.2376,-3.3248,-3.4056,-3.4442,-3.4887,-3.5302,-3.5786,-2.3143,-2.2903,-2.2886,-2.2758,-2.2628,-2.2603,-2.2603,-2.2603,-2.2603,-2.2603,-2.2603,-2.2603,-2.2736,-2.3097,-2.3538,-2.4026,-2.4815,-2.5557,-2.6245,-2.6764,-2.7061,-2.7214,-2.732,-2.7278,-2.7164,-2.7154,-2.7164,-2.7195,-2.7154,-2.7258,-2.732,-2.732,-2.732,-2.732,-2.7216,-2.6988,-2.6542,-2.5958,-2.543,-2.4962,-2.4683,-2.4507,-2.4507,-2.4507,-2.4507,-2.4507,-2.4583,-2.469,-2.5295,-2.5997,-2.6193,-2.7261,-2.8581,-2.8791,-2.9131,-2.9779,-2.9779,-2.9779,-2.988,-3.0319,-3.0721,-3.1173,-3.1775,-3.229,-3.2641,-3.288,-3.2993,-3.3124,-3.3124,-3.3124,-3.3124,-3.3124,-3.3124,-3.3124,-3.3124,-3.3124,-3.3124,-3.3124,-3.3124,-3.3124,-3.3124,-3.3124,-3.3124,-3.3124,-3.3124,-3.3124,-3.3124,-3.3197,-3.3441,-3.3641,-3.3937,-3.4202,-3.4178,-3.4116,-3.3439,-3.3022,-3.3103,-3.3142,-3.3443,-3.3456,-3.3038,-3.2555,-3.2123,-3.1653,-3.1182,-3.1065,-3.1024,-3.1823,-3.2613,-3.3318,-3.3934,-3.439,-3.4886,-3.5533,-3.6075,-2.2611,-2.2611,-2.2603,-2.262,-2.2603,-2.2603,-2.2603,-2.2603,-2.2603,-2.2603,-2.2603,-2.2695,-2.3088,-2.3529,-2.4026,-2.4864,-2.5557,-2.6197,-2.6678,-2.7251,-2.7262,-2.732,-2.7299,-2.7237,-2.6988,-2.6884,-2.6843,-2.6853,-2.6822,-2.6957,-2.7175,-2.7299,-2.732,-2.732,-2.7289,-2.7247,-2.677,-2.5947,-2.5523,-2.514,-2.4662,-2.4507,-2.4507,-2.4507,-2.4507,-2.454,-2.47,-2.5179,-2.5861,-2.6442,-2.7273,-2.8291,-2.887,-2.9248,-2.9663,-2.974,-2.9779,-2.9779,-2.9917,-3.0319,-3.0545,-3.0997,-3.1574,-3.2089,-3.2466,-3.2842,-3.3074,-3.3124,-3.3124,-3.3124,-3.3124,-3.3124,-3.3124,-3.3124,-3.3124,-3.3124,-3.3124,-3.3124,-3.3124,-3.3124,-3.3124,-3.3124,-3.3124,-3.3124,-3.3124,-3.3124,-3.3124,-3.3124,-3.3283,-3.3471,-3.3725,-3.4118,-3.4066,-3.3975,-3.3843,-3.3556,-3.3807,-3.3979,-3.394,-3.3652,-3.3038,-3.2607,-3.2228,-3.1744,-3.1274,-3.1078,-3.1161,-3.1896,-3.2376,-3.2648,-3.3297,-3.4133,-3.4873,-3.5751,-3.6403,-2.2603,-2.2603,-2.2603,-2.2603,-2.2603,-2.2603,-2.2603,-2.2603,-2.2603,-2.2603,-2.2695,-2.3138,-2.3529,-2.3818,-2.4815,-2.5654,-2.6091,-2.6678,-2.7061,-2.7262,-2.732,-2.732,-2.7226,-2.6998,-2.675,-2.6573,-2.648,-2.6407,-2.6573,-2.676,-2.6988,-2.7258,-2.7299,-2.732,-2.732,-2.7309,-2.6853,-2.5972,-2.572,-2.5233,-2.46,-2.4507,-2.4507,-2.4507,-2.4507,-2.4507,-2.4786,-2.5337,-2.611,-2.6894,-2.7839,-2.8712,-2.9456,-2.9663,-2.9779,-2.9779,-2.9779,-2.9779,-2.9917,-3.0231,-3.0495,-3.0896,-3.1449,-3.1938,-3.239,-3.2817,-3.3099,-3.3111,-3.3124,-3.3124,-3.3124,-3.3124,-3.3124,-3.3124,-3.3124,-3.3124,-3.3124,-3.3124,-3.3124,-3.3124,-3.3124,-3.3124,-3.3124,-3.3124,-3.3124,-3.3124,-3.3124,-3.3167,-3.324,-3.3398,-3.3428,-3.3683,-3.381,-3.3791,-3.3765,-3.3786,-3.3892,-3.3675,-3.344,-3.3207,-3.3025,-3.2685,-3.2319,-3.181,-3.1367,-3.1261,-3.1292,-3.1713,-3.2101,-3.2508,-3.3234,-3.4292,-3.5346,-3.6274,-3.682,-2.2603,-2.2603,-2.2603,-2.2603,-2.2603,-2.2603,-2.2603,-2.2603,-2.2603,-2.2603,-2.2653,-2.3038,-2.3529,-2.4115,-2.5197,-2.6187,-2.6534,-2.7071,-2.7214,-2.7309,-2.732,-2.732,-2.7123,-2.6812,-2.6501,-2.6227,-2.5854,-2.5813,-2.6248,-2.6537,-2.6822,-2.705,-2.7154,-2.7299,-2.7309,-2.7247,-2.6853,-2.5972,-2.5962,-2.5399,-2.4621,-2.4507,-2.4507,-2.4507,-2.4507,-2.4507,-2.4988,-2.5589,-2.6494,-2.7383,-2.8331,-2.9131,-2.9663,-2.974,-2.9779,-2.9779,-2.9779,-2.9779,-2.9892,-3.008,-3.0394,-3.0783,-3.1286,-3.1763,-3.229,-3.2704,-3.3099,-3.3124,-3.3124,-3.3124,-3.3124,-3.3124,-3.3124,-3.3124,-3.3124,-3.3124,-3.3124,-3.3124,-3.3124,-3.3124,-3.3124,-3.3124,-3.3124,-3.3124,-3.3124,-3.3124,-3.3124,-3.3124,-3.324,-3.3326,-3.3313,-3.3348,-3.3437,-3.3632,-3.3698,-3.372,-3.3752,-3.3405,-3.311,-3.3122,-3.3161,-3.2799,-3.237,-3.2124,-3.181,-3.151,-3.163,-3.191,-3.2632,-3.3276,-3.3945,-3.4665,-3.5673,-3.6571,-3.7198,-2.2603,-2.2603,-2.2603,-2.2603,-2.2603,-2.2603,-2.2603,-2.2603,-2.2603,-2.2603,-2.2603,-2.2653,-2.3529,-2.4452,-2.5138,-2.6119,-2.686,-2.7214,-2.732,-2.732,-2.732,-2.7206,-2.6988,-2.6698,-2.6144,-2.5689,-2.5316,-2.5554,-2.5968,-2.6154,-2.633,-2.6667,-2.6967,-2.7237,-2.7289,-2.7226,-2.6884,-2.6273,-2.593,-2.543,-2.4964,-2.4528,-2.4507,-2.4507,-2.4507,-2.4507,-2.5031,-2.5935,-2.6905,-2.777,-2.8633,-2.9417,-2.9753,-2.9779,-2.9779,-2.9779,-2.9779,-2.9779,-2.9817,-2.9842,-3.0118,-3.0482,-3.1047,-3.1599,-3.2139,-3.2604,-3.2986,-3.3124,-3.3124,-3.3124,-3.3124,-3.3124,-3.3124,-3.3124,-3.3124,-3.3124,-3.3124,-3.3124,-3.3124,-3.3124,-3.3124,-3.3124,-3.3124,-3.3124,-3.3124,-3.3124,-3.3124,-3.3124,-3.3124,-3.3197,-3.3185,-3.3144,-3.3115,-3.3322,-3.3568,-3.3562,-3.3531,-3.365,-3.3434,-3.3434,-3.3359,-3.3053,-3.2851,-3.2776,-3.2463,-3.2071,-3.1951,-3.2177,-3.2966,-3.3642,-3.3808,-3.4214,-3.5375,-3.6307,-3.7331,-2.2603,-2.2603,-2.2603,-2.2603,-2.2603,-2.2603,-2.2603,-2.2603,-2.2603,-2.2603,-2.2653,-2.2745,-2.3429,-2.4943,-2.5645,-2.6428,-2.7119,-2.732,-2.732,-2.732,-2.732,-2.7081,-2.6718,-2.6258,-2.5544,-2.515,-2.4931,-2.5213,-2.5699,-2.5709,-2.6092,-2.704,-2.676,-2.6978,-2.7299,-2.7216,-2.7029,-2.648,-2.603,-2.5647,-2.5192,-2.4786,-2.4528,-2.4507,-2.4507,-2.4507,-2.4956,-2.6205,-2.6853,-2.7637,-2.8724,-2.9534,-2.9779,-2.9779,-2.9779,-2.9779,-2.9779,-2.9779,-2.9779,-2.9779,-3.0018,-3.0218,-3.0796,-3.1449,-3.2014,-3.2629,-3.2948,-3.3111,-3.3124,-3.3124,-3.3124,-3.3124,-3.3124,-3.3124,-3.3124,-3.3124,-3.3124,-3.3124,-3.3124,-3.3124,-3.3124,-3.3124,-3.3124,-3.3124,-3.3124,-3.3124,-3.3124,-3.3124,-3.3124,-3.3124,-3.3111,-3.3003,-3.2912,-3.3174,-3.35,-3.336,-3.3338,-3.3572,-3.3652,-3.3399,-3.3289,-3.3374,-3.3226,-3.3128,-3.2947,-3.2594,-3.2594,-3.2514,-3.2653,-3.3133,-3.3135,-3.356,-3.4866,-3.6064,-3.7178]}]]